<?xml version="1.0" encoding="UTF-8" standalone="no" ?>
<gpx xmlns="http://www.topografix.com/GPX/1/1" xmlns:xsi="http://www.w3.org/2001/XMLSchema-instance" xsi:schemaLocation="http://www.topografix.com/GPX/1/1 http://www.topografix.com/GPX/1/1/gpx.xsd" version="1.1" creator="VisuGPX - https://www.visugpx.com">
  <metadata>
    <name>43k 1300m coub 2020</name>
    <desc><![CDATA[Coublevitaine 2022 43 km]]></desc>
  </metadata>
  <trk>
    <name><![CDATA[43k 1300m coub 2020]]></name>
    <trkseg>
      <trkpt lat="45.35336" lon="5.61186">
        <ele>323</ele>
        <time>2018-10-20T16:33:57Z</time>
      </trkpt>
      <trkpt lat="45.35333" lon="5.61185">
        <ele>323</ele>
        <time>2018-10-20T16:33:58Z</time>
      </trkpt>
      <trkpt lat="45.35331" lon="5.61183">
        <ele>323</ele>
        <time>2018-10-20T16:33:59Z</time>
      </trkpt>
      <trkpt lat="45.35327" lon="5.61178">
        <ele>323</ele>
        <time>2018-10-20T16:34:01Z</time>
      </trkpt>
      <trkpt lat="45.35324" lon="5.61176">
        <ele>323</ele>
        <time>2018-10-20T16:34:02Z</time>
      </trkpt>
      <trkpt lat="45.35283" lon="5.6115">
        <ele>323</ele>
        <time>2018-10-20T16:34:18Z</time>
      </trkpt>
      <trkpt lat="45.3524" lon="5.61146">
        <ele>324</ele>
        <time>2018-10-20T16:34:37Z</time>
      </trkpt>
      <trkpt lat="45.35209" lon="5.6115">
        <ele>325</ele>
        <time>2018-10-20T16:34:53Z</time>
      </trkpt>
      <trkpt lat="45.3521" lon="5.61198">
        <ele>325</ele>
        <time>2018-10-20T16:35:09Z</time>
      </trkpt>
      <trkpt lat="45.35216" lon="5.61251">
        <ele>326</ele>
        <time>2018-10-20T16:35:24Z</time>
      </trkpt>
      <trkpt lat="45.35215" lon="5.613">
        <ele>327</ele>
        <time>2018-10-20T16:35:38Z</time>
      </trkpt>
      <trkpt lat="45.35219" lon="5.61341">
        <ele>330</ele>
        <time>2018-10-20T16:35:53Z</time>
      </trkpt>
      <trkpt lat="45.35221" lon="5.61377">
        <ele>333</ele>
        <time>2018-10-20T16:36:07Z</time>
      </trkpt>
      <trkpt lat="45.35221" lon="5.61408">
        <ele>336</ele>
        <time>2018-10-20T16:36:20Z</time>
      </trkpt>
      <trkpt lat="45.35217" lon="5.61437">
        <ele>340</ele>
        <time>2018-10-20T16:36:32Z</time>
      </trkpt>
      <trkpt lat="45.35213" lon="5.61466">
        <ele>343</ele>
        <time>2018-10-20T16:36:44Z</time>
      </trkpt>
      <trkpt lat="45.352" lon="5.61516">
        <ele>346</ele>
        <time>2018-10-20T16:37:02Z</time>
      </trkpt>
      <trkpt lat="45.35183" lon="5.61567">
        <ele>347</ele>
        <time>2018-10-20T16:37:19Z</time>
      </trkpt>
      <trkpt lat="45.35152" lon="5.61605">
        <ele>349</ele>
        <time>2018-10-20T16:37:36Z</time>
      </trkpt>
      <trkpt lat="45.35147" lon="5.61619">
        <ele>350</ele>
        <time>2018-10-20T16:37:41Z</time>
      </trkpt>
      <trkpt lat="45.35148" lon="5.61622">
        <ele>350</ele>
        <time>2018-10-20T16:37:42Z</time>
      </trkpt>
      <trkpt lat="45.3515" lon="5.61625">
        <ele>350</ele>
        <time>2018-10-20T16:37:43Z</time>
      </trkpt>
      <trkpt lat="45.35151" lon="5.61628">
        <ele>350</ele>
        <time>2018-10-20T16:37:44Z</time>
      </trkpt>
      <trkpt lat="45.35188" lon="5.61679">
        <ele>352</ele>
        <time>2018-10-20T16:38:05Z</time>
      </trkpt>
      <trkpt lat="45.3521" lon="5.61707">
        <ele>353</ele>
        <time>2018-10-20T16:38:17Z</time>
      </trkpt>
      <trkpt lat="45.35241" lon="5.61749">
        <ele>354</ele>
        <time>2018-10-20T16:38:35Z</time>
      </trkpt>
      <trkpt lat="45.35275" lon="5.61793">
        <ele>356</ele>
        <time>2018-10-20T16:38:54Z</time>
      </trkpt>
      <trkpt lat="45.35288" lon="5.61833">
        <ele>357</ele>
        <time>2018-10-20T16:39:09Z</time>
      </trkpt>
      <trkpt lat="45.35284" lon="5.61881">
        <ele>359</ele>
        <time>2018-10-20T16:39:25Z</time>
      </trkpt>
      <trkpt lat="45.35281" lon="5.6189">
        <ele>360</ele>
        <time>2018-10-20T16:39:29Z</time>
      </trkpt>
      <trkpt lat="45.35274" lon="5.61893">
        <ele>361</ele>
        <time>2018-10-20T16:39:34Z</time>
      </trkpt>
      <trkpt lat="45.35256" lon="5.61906">
        <ele>364</ele>
        <time>2018-10-20T16:39:48Z</time>
      </trkpt>
      <trkpt lat="45.35236" lon="5.61923">
        <ele>366</ele>
        <time>2018-10-20T16:40:01Z</time>
      </trkpt>
      <trkpt lat="45.35221" lon="5.61938">
        <ele>368</ele>
        <time>2018-10-20T16:40:13Z</time>
      </trkpt>
      <trkpt lat="45.35203" lon="5.6195">
        <ele>371</ele>
        <time>2018-10-20T16:40:27Z</time>
      </trkpt>
      <trkpt lat="45.35184" lon="5.61961">
        <ele>374</ele>
        <time>2018-10-20T16:40:40Z</time>
      </trkpt>
      <trkpt lat="45.3517" lon="5.61982">
        <ele>377</ele>
        <time>2018-10-20T16:40:54Z</time>
      </trkpt>
      <trkpt lat="45.35156" lon="5.61999">
        <ele>380</ele>
        <time>2018-10-20T16:41:08Z</time>
      </trkpt>
      <trkpt lat="45.35138" lon="5.62022">
        <ele>381</ele>
        <time>2018-10-20T16:41:22Z</time>
      </trkpt>
      <trkpt lat="45.35111" lon="5.62047">
        <ele>383</ele>
        <time>2018-10-20T16:41:40Z</time>
      </trkpt>
      <trkpt lat="45.35088" lon="5.62066">
        <ele>384</ele>
        <time>2018-10-20T16:41:53Z</time>
      </trkpt>
      <trkpt lat="45.35087" lon="5.62099">
        <ele>387</ele>
        <time>2018-10-20T16:42:06Z</time>
      </trkpt>
      <trkpt lat="45.35077" lon="5.62131">
        <ele>387</ele>
        <time>2018-10-20T16:42:18Z</time>
      </trkpt>
      <trkpt lat="45.35045" lon="5.62148">
        <ele>388</ele>
        <time>2018-10-20T16:42:31Z</time>
      </trkpt>
      <trkpt lat="45.35046" lon="5.62158">
        <ele>388</ele>
        <time>2018-10-20T16:42:35Z</time>
      </trkpt>
      <trkpt lat="45.35052" lon="5.62189">
        <ele>389</ele>
        <time>2018-10-20T16:42:45Z</time>
      </trkpt>
      <trkpt lat="45.35063" lon="5.6225">
        <ele>386</ele>
        <time>2018-10-20T16:42:54Z</time>
      </trkpt>
      <trkpt lat="45.35064" lon="5.62275">
        <ele>387</ele>
        <time>2018-10-20T16:43:01Z</time>
      </trkpt>
      <trkpt lat="45.35062" lon="5.62277">
        <ele>387</ele>
        <time>2018-10-20T16:43:02Z</time>
      </trkpt>
      <trkpt lat="45.35061" lon="5.62278">
        <ele>387</ele>
        <time>2018-10-20T16:43:03Z</time>
      </trkpt>
      <trkpt lat="45.35059" lon="5.62279">
        <ele>388</ele>
        <time>2018-10-20T16:43:04Z</time>
      </trkpt>
      <trkpt lat="45.35057" lon="5.6228">
        <ele>388</ele>
        <time>2018-10-20T16:43:05Z</time>
      </trkpt>
      <trkpt lat="45.35055" lon="5.62281">
        <ele>388</ele>
        <time>2018-10-20T16:43:06Z</time>
      </trkpt>
      <trkpt lat="45.35028" lon="5.62313">
        <ele>391</ele>
        <time>2018-10-20T16:43:23Z</time>
      </trkpt>
      <trkpt lat="45.35002" lon="5.62322">
        <ele>393</ele>
        <time>2018-10-20T16:43:37Z</time>
      </trkpt>
      <trkpt lat="45.34982" lon="5.62285">
        <ele>396</ele>
        <time>2018-10-20T16:43:52Z</time>
      </trkpt>
      <trkpt lat="45.34954" lon="5.62284">
        <ele>398</ele>
        <time>2018-10-20T16:44:06Z</time>
      </trkpt>
      <trkpt lat="45.34932" lon="5.62302">
        <ele>400</ele>
        <time>2018-10-20T16:44:18Z</time>
      </trkpt>
      <trkpt lat="45.34932" lon="5.62304">
        <ele>400</ele>
        <time>2018-10-20T16:44:19Z</time>
      </trkpt>
      <trkpt lat="45.34932" lon="5.62307">
        <ele>400</ele>
        <time>2018-10-20T16:44:20Z</time>
      </trkpt>
      <trkpt lat="45.34934" lon="5.62308">
        <ele>400</ele>
        <time>2018-10-20T16:44:21Z</time>
      </trkpt>
      <trkpt lat="45.34936" lon="5.62309">
        <ele>400</ele>
        <time>2018-10-20T16:44:22Z</time>
      </trkpt>
      <trkpt lat="45.34938" lon="5.62309">
        <ele>401</ele>
        <time>2018-10-20T16:44:23Z</time>
      </trkpt>
      <trkpt lat="45.34941" lon="5.6231">
        <ele>401</ele>
        <time>2018-10-20T16:44:24Z</time>
      </trkpt>
      <trkpt lat="45.34943" lon="5.6231">
        <ele>401</ele>
        <time>2018-10-20T16:44:25Z</time>
      </trkpt>
      <trkpt lat="45.34979" lon="5.62321">
        <ele>401</ele>
        <time>2018-10-20T16:44:39Z</time>
      </trkpt>
      <trkpt lat="45.34986" lon="5.6233">
        <ele>401</ele>
        <time>2018-10-20T16:44:41Z</time>
      </trkpt>
      <trkpt lat="45.35" lon="5.62352">
        <ele>400</ele>
        <time>2018-10-20T16:44:45Z</time>
      </trkpt>
      <trkpt lat="45.35004" lon="5.62356">
        <ele>400</ele>
        <time>2018-10-20T16:44:46Z</time>
      </trkpt>
      <trkpt lat="45.35015" lon="5.62367">
        <ele>399</ele>
        <time>2018-10-20T16:44:49Z</time>
      </trkpt>
      <trkpt lat="45.35019" lon="5.62369">
        <ele>399</ele>
        <time>2018-10-20T16:44:50Z</time>
      </trkpt>
      <trkpt lat="45.35022" lon="5.6237">
        <ele>399</ele>
        <time>2018-10-20T16:44:51Z</time>
      </trkpt>
      <trkpt lat="45.35026" lon="5.6237">
        <ele>399</ele>
        <time>2018-10-20T16:44:52Z</time>
      </trkpt>
      <trkpt lat="45.3503" lon="5.6237">
        <ele>400</ele>
        <time>2018-10-20T16:44:53Z</time>
      </trkpt>
      <trkpt lat="45.35033" lon="5.62369">
        <ele>400</ele>
        <time>2018-10-20T16:44:54Z</time>
      </trkpt>
      <trkpt lat="45.35036" lon="5.62368">
        <ele>400</ele>
        <time>2018-10-20T16:44:55Z</time>
      </trkpt>
      <trkpt lat="45.3504" lon="5.62366">
        <ele>400</ele>
        <time>2018-10-20T16:44:56Z</time>
      </trkpt>
      <trkpt lat="45.3506" lon="5.62352">
        <ele>402</ele>
        <time>2018-10-20T16:45:04Z</time>
      </trkpt>
      <trkpt lat="45.35097" lon="5.62357">
        <ele>405</ele>
        <time>2018-10-20T16:45:21Z</time>
      </trkpt>
      <trkpt lat="45.35118" lon="5.62387">
        <ele>408</ele>
        <time>2018-10-20T16:45:36Z</time>
      </trkpt>
      <trkpt lat="45.35145" lon="5.62419">
        <ele>411</ele>
        <time>2018-10-20T16:45:52Z</time>
      </trkpt>
      <trkpt lat="45.35178" lon="5.62445">
        <ele>414</ele>
        <time>2018-10-20T16:46:09Z</time>
      </trkpt>
      <trkpt lat="45.35208" lon="5.62487">
        <ele>417</ele>
        <time>2018-10-20T16:46:28Z</time>
      </trkpt>
      <trkpt lat="45.35239" lon="5.62522">
        <ele>421</ele>
        <time>2018-10-20T16:46:46Z</time>
      </trkpt>
      <trkpt lat="45.35282" lon="5.62565">
        <ele>422</ele>
        <time>2018-10-20T16:47:05Z</time>
      </trkpt>
      <trkpt lat="45.35316" lon="5.62601">
        <ele>425</ele>
        <time>2018-10-20T16:47:22Z</time>
      </trkpt>
      <trkpt lat="45.35367" lon="5.62622">
        <ele>427</ele>
        <time>2018-10-20T16:47:39Z</time>
      </trkpt>
      <trkpt lat="45.35457" lon="5.62652">
        <ele>428</ele>
        <time>2018-10-20T16:48:04Z</time>
      </trkpt>
      <trkpt lat="45.3552" lon="5.6267">
        <ele>427</ele>
        <time>2018-10-20T16:48:22Z</time>
      </trkpt>
      <trkpt lat="45.35574" lon="5.62664">
        <ele>424</ele>
        <time>2018-10-20T16:48:31Z</time>
      </trkpt>
      <trkpt lat="45.35583" lon="5.62664">
        <ele>424</ele>
        <time>2018-10-20T16:48:32Z</time>
      </trkpt>
      <trkpt lat="45.35633" lon="5.62672">
        <ele>420</ele>
        <time>2018-10-20T16:48:38Z</time>
      </trkpt>
      <trkpt lat="45.35649" lon="5.62674">
        <ele>420</ele>
        <time>2018-10-20T16:48:40Z</time>
      </trkpt>
      <trkpt lat="45.35741" lon="5.62689">
        <ele>419</ele>
        <time>2018-10-20T16:48:54Z</time>
      </trkpt>
      <trkpt lat="45.35811" lon="5.62656">
        <ele>418</ele>
        <time>2018-10-20T16:49:06Z</time>
      </trkpt>
      <trkpt lat="45.35877" lon="5.6263">
        <ele>417</ele>
        <time>2018-10-20T16:49:18Z</time>
      </trkpt>
      <trkpt lat="45.3593" lon="5.62623">
        <ele>420</ele>
        <time>2018-10-20T16:49:32Z</time>
      </trkpt>
      <trkpt lat="45.35978" lon="5.62634">
        <ele>423</ele>
        <time>2018-10-20T16:49:47Z</time>
      </trkpt>
      <trkpt lat="45.35997" lon="5.62665">
        <ele>426</ele>
        <time>2018-10-20T16:49:58Z</time>
      </trkpt>
      <trkpt lat="45.36014" lon="5.62701">
        <ele>428</ele>
        <time>2018-10-20T16:50:09Z</time>
      </trkpt>
      <trkpt lat="45.36013" lon="5.62705">
        <ele>428</ele>
        <time>2018-10-20T16:50:10Z</time>
      </trkpt>
      <trkpt lat="45.35998" lon="5.62784">
        <ele>428</ele>
        <time>2018-10-20T16:50:28Z</time>
      </trkpt>
      <trkpt lat="45.35981" lon="5.62876">
        <ele>430</ele>
        <time>2018-10-20T16:50:49Z</time>
      </trkpt>
      <trkpt lat="45.35969" lon="5.62937">
        <ele>433</ele>
        <time>2018-10-20T16:51:07Z</time>
      </trkpt>
      <trkpt lat="45.35964" lon="5.62949">
        <ele>433</ele>
        <time>2018-10-20T16:51:11Z</time>
      </trkpt>
      <trkpt lat="45.35962" lon="5.62951">
        <ele>433</ele>
        <time>2018-10-20T16:51:12Z</time>
      </trkpt>
      <trkpt lat="45.3596" lon="5.6295">
        <ele>434</ele>
        <time>2018-10-20T16:51:13Z</time>
      </trkpt>
      <trkpt lat="45.35957" lon="5.62949">
        <ele>434</ele>
        <time>2018-10-20T16:51:14Z</time>
      </trkpt>
      <trkpt lat="45.35955" lon="5.62948">
        <ele>434</ele>
        <time>2018-10-20T16:51:15Z</time>
      </trkpt>
      <trkpt lat="45.35953" lon="5.62947">
        <ele>434</ele>
        <time>2018-10-20T16:51:16Z</time>
      </trkpt>
      <trkpt lat="45.35912" lon="5.62928">
        <ele>435</ele>
        <time>2018-10-20T16:51:32Z</time>
      </trkpt>
      <trkpt lat="45.35881" lon="5.62923">
        <ele>433</ele>
        <time>2018-10-20T16:51:40Z</time>
      </trkpt>
      <trkpt lat="45.35834" lon="5.62923">
        <ele>434</ele>
        <time>2018-10-20T16:51:55Z</time>
      </trkpt>
      <trkpt lat="45.35801" lon="5.62935">
        <ele>436</ele>
        <time>2018-10-20T16:52:09Z</time>
      </trkpt>
      <trkpt lat="45.35763" lon="5.62946">
        <ele>438</ele>
        <time>2018-10-20T16:52:23Z</time>
      </trkpt>
      <trkpt lat="45.35731" lon="5.6295">
        <ele>439</ele>
        <time>2018-10-20T16:52:36Z</time>
      </trkpt>
      <trkpt lat="45.35702" lon="5.62964">
        <ele>442</ele>
        <time>2018-10-20T16:52:50Z</time>
      </trkpt>
      <trkpt lat="45.35685" lon="5.62975">
        <ele>445</ele>
        <time>2018-10-20T16:53:02Z</time>
      </trkpt>
      <trkpt lat="45.3567" lon="5.62993">
        <ele>448</ele>
        <time>2018-10-20T16:53:15Z</time>
      </trkpt>
      <trkpt lat="45.35655" lon="5.63023">
        <ele>451</ele>
        <time>2018-10-20T16:53:32Z</time>
      </trkpt>
      <trkpt lat="45.35644" lon="5.63048">
        <ele>454</ele>
        <time>2018-10-20T16:53:51Z</time>
      </trkpt>
      <trkpt lat="45.35635" lon="5.63076">
        <ele>457</ele>
        <time>2018-10-20T16:54:08Z</time>
      </trkpt>
      <trkpt lat="45.3562" lon="5.63089">
        <ele>460</ele>
        <time>2018-10-20T16:54:22Z</time>
      </trkpt>
      <trkpt lat="45.35604" lon="5.63102">
        <ele>463</ele>
        <time>2018-10-20T16:54:36Z</time>
      </trkpt>
      <trkpt lat="45.35584" lon="5.63125">
        <ele>466</ele>
        <time>2018-10-20T16:54:52Z</time>
      </trkpt>
      <trkpt lat="45.35582" lon="5.63125">
        <ele>466</ele>
        <time>2018-10-20T16:54:53Z</time>
      </trkpt>
      <trkpt lat="45.3558" lon="5.63123">
        <ele>466</ele>
        <time>2018-10-20T16:54:54Z</time>
      </trkpt>
      <trkpt lat="45.35578" lon="5.63122">
        <ele>466</ele>
        <time>2018-10-20T16:54:55Z</time>
      </trkpt>
      <trkpt lat="45.35575" lon="5.6312">
        <ele>466</ele>
        <time>2018-10-20T16:54:56Z</time>
      </trkpt>
      <trkpt lat="45.35573" lon="5.63118">
        <ele>466</ele>
        <time>2018-10-20T16:54:57Z</time>
      </trkpt>
      <trkpt lat="45.35571" lon="5.63116">
        <ele>466</ele>
        <time>2018-10-20T16:54:58Z</time>
      </trkpt>
      <trkpt lat="45.35524" lon="5.63078">
        <ele>468</ele>
        <time>2018-10-20T16:55:18Z</time>
      </trkpt>
      <trkpt lat="45.35488" lon="5.63069">
        <ele>470</ele>
        <time>2018-10-20T16:55:35Z</time>
      </trkpt>
      <trkpt lat="45.35458" lon="5.63087">
        <ele>473</ele>
        <time>2018-10-20T16:55:53Z</time>
      </trkpt>
      <trkpt lat="45.35433" lon="5.63092">
        <ele>476</ele>
        <time>2018-10-20T16:56:09Z</time>
      </trkpt>
      <trkpt lat="45.35407" lon="5.63088">
        <ele>479</ele>
        <time>2018-10-20T16:56:24Z</time>
      </trkpt>
      <trkpt lat="45.35375" lon="5.63079">
        <ele>482</ele>
        <time>2018-10-20T16:56:42Z</time>
      </trkpt>
      <trkpt lat="45.35348" lon="5.63064">
        <ele>485</ele>
        <time>2018-10-20T16:57:00Z</time>
      </trkpt>
      <trkpt lat="45.35325" lon="5.63056">
        <ele>488</ele>
        <time>2018-10-20T16:57:16Z</time>
      </trkpt>
      <trkpt lat="45.353" lon="5.6305">
        <ele>489</ele>
        <time>2018-10-20T16:57:30Z</time>
      </trkpt>
      <trkpt lat="45.35292" lon="5.63049">
        <ele>489</ele>
        <time>2018-10-20T16:57:34Z</time>
      </trkpt>
      <trkpt lat="45.35281" lon="5.63051">
        <ele>490</ele>
        <time>2018-10-20T16:57:41Z</time>
      </trkpt>
      <trkpt lat="45.3527" lon="5.63051">
        <ele>492</ele>
        <time>2018-10-20T16:57:47Z</time>
      </trkpt>
      <trkpt lat="45.35261" lon="5.63053">
        <ele>492</ele>
        <time>2018-10-20T16:57:53Z</time>
      </trkpt>
      <trkpt lat="45.35257" lon="5.63054">
        <ele>493</ele>
        <time>2018-10-20T16:57:55Z</time>
      </trkpt>
      <trkpt lat="45.35248" lon="5.63058">
        <ele>494</ele>
        <time>2018-10-20T16:58:01Z</time>
      </trkpt>
      <trkpt lat="45.35222" lon="5.63071">
        <ele>496</ele>
        <time>2018-10-20T16:58:16Z</time>
      </trkpt>
      <trkpt lat="45.35201" lon="5.63089">
        <ele>499</ele>
        <time>2018-10-20T16:58:31Z</time>
      </trkpt>
      <trkpt lat="45.35184" lon="5.63098">
        <ele>502</ele>
        <time>2018-10-20T16:58:44Z</time>
      </trkpt>
      <trkpt lat="45.35174" lon="5.63102">
        <ele>504</ele>
        <time>2018-10-20T16:58:52Z</time>
      </trkpt>
      <trkpt lat="45.35157" lon="5.63099">
        <ele>506</ele>
        <time>2018-10-20T16:59:03Z</time>
      </trkpt>
      <trkpt lat="45.35134" lon="5.63098">
        <ele>508</ele>
        <time>2018-10-20T16:59:19Z</time>
      </trkpt>
      <trkpt lat="45.35111" lon="5.631">
        <ele>510</ele>
        <time>2018-10-20T16:59:33Z</time>
      </trkpt>
      <trkpt lat="45.35089" lon="5.63103">
        <ele>511</ele>
        <time>2018-10-20T16:59:45Z</time>
      </trkpt>
      <trkpt lat="45.3508" lon="5.63103">
        <ele>512</ele>
        <time>2018-10-20T16:59:50Z</time>
      </trkpt>
      <trkpt lat="45.35075" lon="5.63105">
        <ele>512</ele>
        <time>2018-10-20T16:59:53Z</time>
      </trkpt>
      <trkpt lat="45.3507" lon="5.63105">
        <ele>512</ele>
        <time>2018-10-20T16:59:56Z</time>
      </trkpt>
      <trkpt lat="45.35043" lon="5.63113">
        <ele>514</ele>
        <time>2018-10-20T17:00:12Z</time>
      </trkpt>
      <trkpt lat="45.35036" lon="5.63115">
        <ele>515</ele>
        <time>2018-10-20T17:00:16Z</time>
      </trkpt>
      <trkpt lat="45.35013" lon="5.63132">
        <ele>518</ele>
        <time>2018-10-20T17:00:34Z</time>
      </trkpt>
      <trkpt lat="45.34991" lon="5.63148">
        <ele>521</ele>
        <time>2018-10-20T17:00:50Z</time>
      </trkpt>
      <trkpt lat="45.34971" lon="5.63164">
        <ele>524</ele>
        <time>2018-10-20T17:01:06Z</time>
      </trkpt>
      <trkpt lat="45.34954" lon="5.63176">
        <ele>527</ele>
        <time>2018-10-20T17:01:21Z</time>
      </trkpt>
      <trkpt lat="45.34938" lon="5.63189">
        <ele>529</ele>
        <time>2018-10-20T17:01:35Z</time>
      </trkpt>
      <trkpt lat="45.34929" lon="5.63196">
        <ele>531</ele>
        <time>2018-10-20T17:01:42Z</time>
      </trkpt>
      <trkpt lat="45.34907" lon="5.63211">
        <ele>534</ele>
        <time>2018-10-20T17:01:58Z</time>
      </trkpt>
      <trkpt lat="45.34892" lon="5.63226">
        <ele>537</ele>
        <time>2018-10-20T17:02:14Z</time>
      </trkpt>
      <trkpt lat="45.3488" lon="5.63233">
        <ele>540</ele>
        <time>2018-10-20T17:02:30Z</time>
      </trkpt>
      <trkpt lat="45.34869" lon="5.63242">
        <ele>543</ele>
        <time>2018-10-20T17:02:45Z</time>
      </trkpt>
      <trkpt lat="45.34862" lon="5.63247">
        <ele>545</ele>
        <time>2018-10-20T17:03:00Z</time>
      </trkpt>
      <trkpt lat="45.34859" lon="5.63248">
        <ele>545</ele>
        <time>2018-10-20T17:03:02Z</time>
      </trkpt>
      <trkpt lat="45.34843" lon="5.63271">
        <ele>548</ele>
        <time>2018-10-20T17:03:20Z</time>
      </trkpt>
      <trkpt lat="45.34825" lon="5.63286">
        <ele>551</ele>
        <time>2018-10-20T17:03:36Z</time>
      </trkpt>
      <trkpt lat="45.34814" lon="5.63289">
        <ele>552</ele>
        <time>2018-10-20T17:03:43Z</time>
      </trkpt>
      <trkpt lat="45.34818" lon="5.63298">
        <ele>552</ele>
        <time>2018-10-20T17:03:57Z</time>
      </trkpt>
      <trkpt lat="45.34818" lon="5.63302">
        <ele>539</ele>
        <time>2018-10-20T17:05:00Z</time>
      </trkpt>
      <trkpt lat="45.34818" lon="5.63302">
        <ele>546</ele>
        <time>2018-10-20T17:05:01Z</time>
      </trkpt>
      <trkpt lat="45.34818" lon="5.63302">
        <ele>549</ele>
        <time>2018-10-20T17:05:02Z</time>
      </trkpt>
      <trkpt lat="45.34818" lon="5.63302">
        <ele>552</ele>
        <time>2018-10-20T17:05:06Z</time>
      </trkpt>
      <trkpt lat="45.34822" lon="5.63299">
        <ele>553</ele>
        <time>2018-10-20T17:05:48Z</time>
      </trkpt>
      <trkpt lat="45.34836" lon="5.63299">
        <ele>552</ele>
        <time>2018-10-20T17:05:55Z</time>
      </trkpt>
      <trkpt lat="45.34847" lon="5.63296">
        <ele>552</ele>
        <time>2018-10-20T17:06:00Z</time>
      </trkpt>
      <trkpt lat="45.34887" lon="5.63286">
        <ele>551</ele>
        <time>2018-10-20T17:06:11Z</time>
      </trkpt>
      <trkpt lat="45.34933" lon="5.6328">
        <ele>548</ele>
        <time>2018-10-20T17:06:21Z</time>
      </trkpt>
      <trkpt lat="45.34949" lon="5.63277">
        <ele>547</ele>
        <time>2018-10-20T17:06:24Z</time>
      </trkpt>
      <trkpt lat="45.3496" lon="5.6328">
        <ele>547</ele>
        <time>2018-10-20T17:06:26Z</time>
      </trkpt>
      <trkpt lat="45.34992" lon="5.63306">
        <ele>547</ele>
        <time>2018-10-20T17:06:35Z</time>
      </trkpt>
      <trkpt lat="45.35007" lon="5.63323">
        <ele>548</ele>
        <time>2018-10-20T17:06:39Z</time>
      </trkpt>
      <trkpt lat="45.35032" lon="5.63343">
        <ele>546</ele>
        <time>2018-10-20T17:06:44Z</time>
      </trkpt>
      <trkpt lat="45.35058" lon="5.63358">
        <ele>544</ele>
        <time>2018-10-20T17:06:49Z</time>
      </trkpt>
      <trkpt lat="45.35101" lon="5.63388">
        <ele>544</ele>
        <time>2018-10-20T17:07:00Z</time>
      </trkpt>
      <trkpt lat="45.35162" lon="5.63412">
        <ele>543</ele>
        <time>2018-10-20T17:07:12Z</time>
      </trkpt>
      <trkpt lat="45.35172" lon="5.63416">
        <ele>542</ele>
        <time>2018-10-20T17:07:14Z</time>
      </trkpt>
      <trkpt lat="45.35233" lon="5.63447">
        <ele>541</ele>
        <time>2018-10-20T17:07:27Z</time>
      </trkpt>
      <trkpt lat="45.35288" lon="5.63473">
        <ele>539</ele>
        <time>2018-10-20T17:07:40Z</time>
      </trkpt>
      <trkpt lat="45.35325" lon="5.63494">
        <ele>537</ele>
        <time>2018-10-20T17:07:49Z</time>
      </trkpt>
      <trkpt lat="45.35349" lon="5.63511">
        <ele>537</ele>
        <time>2018-10-20T17:07:55Z</time>
      </trkpt>
      <trkpt lat="45.354" lon="5.63542">
        <ele>534</ele>
        <time>2018-10-20T17:08:08Z</time>
      </trkpt>
      <trkpt lat="45.35442" lon="5.63546">
        <ele>532</ele>
        <time>2018-10-20T17:08:19Z</time>
      </trkpt>
      <trkpt lat="45.35487" lon="5.63566">
        <ele>531</ele>
        <time>2018-10-20T17:08:30Z</time>
      </trkpt>
      <trkpt lat="45.3553" lon="5.6359">
        <ele>530</ele>
        <time>2018-10-20T17:08:41Z</time>
      </trkpt>
      <trkpt lat="45.35557" lon="5.63615">
        <ele>529</ele>
        <time>2018-10-20T17:08:49Z</time>
      </trkpt>
      <trkpt lat="45.35583" lon="5.6362">
        <ele>529</ele>
        <time>2018-10-20T17:08:57Z</time>
      </trkpt>
      <trkpt lat="45.35607" lon="5.63647">
        <ele>531</ele>
        <time>2018-10-20T17:09:09Z</time>
      </trkpt>
      <trkpt lat="45.35618" lon="5.63667">
        <ele>534</ele>
        <time>2018-10-20T17:09:19Z</time>
      </trkpt>
      <trkpt lat="45.35626" lon="5.63678">
        <ele>535</ele>
        <time>2018-10-20T17:09:25Z</time>
      </trkpt>
      <trkpt lat="45.35639" lon="5.63687">
        <ele>535</ele>
        <time>2018-10-20T17:09:31Z</time>
      </trkpt>
      <trkpt lat="45.35666" lon="5.63726">
        <ele>534</ele>
        <time>2018-10-20T17:09:42Z</time>
      </trkpt>
      <trkpt lat="45.35678" lon="5.63741">
        <ele>534</ele>
        <time>2018-10-20T17:09:47Z</time>
      </trkpt>
      <trkpt lat="45.357" lon="5.63771">
        <ele>533</ele>
        <time>2018-10-20T17:09:55Z</time>
      </trkpt>
      <trkpt lat="45.35741" lon="5.63805">
        <ele>531</ele>
        <time>2018-10-20T17:10:06Z</time>
      </trkpt>
      <trkpt lat="45.35744" lon="5.63808">
        <ele>531</ele>
        <time>2018-10-20T17:10:07Z</time>
      </trkpt>
      <trkpt lat="45.35751" lon="5.63825">
        <ele>531</ele>
        <time>2018-10-20T17:10:11Z</time>
      </trkpt>
      <trkpt lat="45.35771" lon="5.6387">
        <ele>533</ele>
        <time>2018-10-20T17:10:22Z</time>
      </trkpt>
      <trkpt lat="45.35773" lon="5.63874">
        <ele>533</ele>
        <time>2018-10-20T17:10:23Z</time>
      </trkpt>
      <trkpt lat="45.35789" lon="5.63896">
        <ele>536</ele>
        <time>2018-10-20T17:10:32Z</time>
      </trkpt>
      <trkpt lat="45.35809" lon="5.6394">
        <ele>537</ele>
        <time>2018-10-20T17:10:46Z</time>
      </trkpt>
      <trkpt lat="45.35818" lon="5.63948">
        <ele>537</ele>
        <time>2018-10-20T17:10:50Z</time>
      </trkpt>
      <trkpt lat="45.35846" lon="5.63991">
        <ele>536</ele>
        <time>2018-10-20T17:11:01Z</time>
      </trkpt>
      <trkpt lat="45.3587" lon="5.64005">
        <ele>534</ele>
        <time>2018-10-20T17:11:10Z</time>
      </trkpt>
      <trkpt lat="45.35881" lon="5.64008">
        <ele>532</ele>
        <time>2018-10-20T17:11:13Z</time>
      </trkpt>
      <trkpt lat="45.35897" lon="5.64">
        <ele>527</ele>
        <time>2018-10-20T17:11:18Z</time>
      </trkpt>
      <trkpt lat="45.35898" lon="5.63999">
        <ele>527</ele>
        <time>2018-10-20T17:11:19Z</time>
      </trkpt>
      <trkpt lat="45.35922" lon="5.64025">
        <ele>527</ele>
        <time>2018-10-20T17:11:31Z</time>
      </trkpt>
      <trkpt lat="45.35933" lon="5.64039">
        <ele>528</ele>
        <time>2018-10-20T17:11:37Z</time>
      </trkpt>
      <trkpt lat="45.3595" lon="5.6407">
        <ele>531</ele>
        <time>2018-10-20T17:11:51Z</time>
      </trkpt>
      <trkpt lat="45.3596" lon="5.64093">
        <ele>533</ele>
        <time>2018-10-20T17:12:02Z</time>
      </trkpt>
      <trkpt lat="45.35969" lon="5.64102">
        <ele>534</ele>
        <time>2018-10-20T17:12:07Z</time>
      </trkpt>
      <trkpt lat="45.35996" lon="5.64144">
        <ele>534</ele>
        <time>2018-10-20T17:12:21Z</time>
      </trkpt>
      <trkpt lat="45.36017" lon="5.64185">
        <ele>534</ele>
        <time>2018-10-20T17:12:35Z</time>
      </trkpt>
      <trkpt lat="45.36035" lon="5.6421">
        <ele>531</ele>
        <time>2018-10-20T17:12:40Z</time>
      </trkpt>
      <trkpt lat="45.36058" lon="5.64239">
        <ele>529</ele>
        <time>2018-10-20T17:12:46Z</time>
      </trkpt>
      <trkpt lat="45.36098" lon="5.64268">
        <ele>527</ele>
        <time>2018-10-20T17:12:54Z</time>
      </trkpt>
      <trkpt lat="45.36125" lon="5.64278">
        <ele>525</ele>
        <time>2018-10-20T17:12:59Z</time>
      </trkpt>
      <trkpt lat="45.36143" lon="5.64291">
        <ele>523</ele>
        <time>2018-10-20T17:13:02Z</time>
      </trkpt>
      <trkpt lat="45.36155" lon="5.64298">
        <ele>523</ele>
        <time>2018-10-20T17:13:04Z</time>
      </trkpt>
      <trkpt lat="45.36164" lon="5.64307">
        <ele>523</ele>
        <time>2018-10-20T17:13:06Z</time>
      </trkpt>
      <trkpt lat="45.36199" lon="5.64336">
        <ele>523</ele>
        <time>2018-10-20T17:13:14Z</time>
      </trkpt>
      <trkpt lat="45.36222" lon="5.64359">
        <ele>523</ele>
        <time>2018-10-20T17:13:21Z</time>
      </trkpt>
      <trkpt lat="45.36231" lon="5.64361">
        <ele>523</ele>
        <time>2018-10-20T17:13:24Z</time>
      </trkpt>
      <trkpt lat="45.36268" lon="5.64393">
        <ele>523</ele>
        <time>2018-10-20T17:13:35Z</time>
      </trkpt>
      <trkpt lat="45.36292" lon="5.64413">
        <ele>523</ele>
        <time>2018-10-20T17:13:42Z</time>
      </trkpt>
      <trkpt lat="45.36318" lon="5.64443">
        <ele>521</ele>
        <time>2018-10-20T17:13:51Z</time>
      </trkpt>
      <trkpt lat="45.3636" lon="5.64488">
        <ele>520</ele>
        <time>2018-10-20T17:14:02Z</time>
      </trkpt>
      <trkpt lat="45.36392" lon="5.64545">
        <ele>520</ele>
        <time>2018-10-20T17:14:11Z</time>
      </trkpt>
      <trkpt lat="45.36429" lon="5.64588">
        <ele>521</ele>
        <time>2018-10-20T17:14:21Z</time>
      </trkpt>
      <trkpt lat="45.3646" lon="5.64619">
        <ele>522</ele>
        <time>2018-10-20T17:14:31Z</time>
      </trkpt>
      <trkpt lat="45.36482" lon="5.64662">
        <ele>525</ele>
        <time>2018-10-20T17:14:43Z</time>
      </trkpt>
      <trkpt lat="45.36507" lon="5.6469">
        <ele>526</ele>
        <time>2018-10-20T17:14:55Z</time>
      </trkpt>
      <trkpt lat="45.36534" lon="5.64726">
        <ele>528</ele>
        <time>2018-10-20T17:15:08Z</time>
      </trkpt>
      <trkpt lat="45.36567" lon="5.64763">
        <ele>527</ele>
        <time>2018-10-20T17:15:19Z</time>
      </trkpt>
      <trkpt lat="45.3658" lon="5.64784">
        <ele>526</ele>
        <time>2018-10-20T17:15:24Z</time>
      </trkpt>
      <trkpt lat="45.36612" lon="5.64808">
        <ele>527</ele>
        <time>2018-10-20T17:15:34Z</time>
      </trkpt>
      <trkpt lat="45.36632" lon="5.6483">
        <ele>527</ele>
        <time>2018-10-20T17:15:40Z</time>
      </trkpt>
      <trkpt lat="45.36645" lon="5.64843">
        <ele>524</ele>
        <time>2018-10-20T17:15:43Z</time>
      </trkpt>
      <trkpt lat="45.36669" lon="5.6486">
        <ele>519</ele>
        <time>2018-10-20T17:15:47Z</time>
      </trkpt>
      <trkpt lat="45.36693" lon="5.64867">
        <ele>514</ele>
        <time>2018-10-20T17:15:50Z</time>
      </trkpt>
      <trkpt lat="45.36712" lon="5.64876">
        <ele>511</ele>
        <time>2018-10-20T17:15:53Z</time>
      </trkpt>
      <trkpt lat="45.36719" lon="5.64879">
        <ele>510</ele>
        <time>2018-10-20T17:15:54Z</time>
      </trkpt>
      <trkpt lat="45.36733" lon="5.64883">
        <ele>509</ele>
        <time>2018-10-20T17:15:56Z</time>
      </trkpt>
      <trkpt lat="45.36744" lon="5.64889">
        <ele>509</ele>
        <time>2018-10-20T17:15:58Z</time>
      </trkpt>
      <trkpt lat="45.36769" lon="5.64899">
        <ele>508</ele>
        <time>2018-10-20T17:16:03Z</time>
      </trkpt>
      <trkpt lat="45.36785" lon="5.64911">
        <ele>503</ele>
        <time>2018-10-20T17:16:07Z</time>
      </trkpt>
      <trkpt lat="45.36799" lon="5.64924">
        <ele>499</ele>
        <time>2018-10-20T17:16:10Z</time>
      </trkpt>
      <trkpt lat="45.36804" lon="5.64928">
        <ele>497</ele>
        <time>2018-10-20T17:16:11Z</time>
      </trkpt>
      <trkpt lat="45.36813" lon="5.64935">
        <ele>495</ele>
        <time>2018-10-20T17:16:13Z</time>
      </trkpt>
      <trkpt lat="45.36832" lon="5.64955">
        <ele>490</ele>
        <time>2018-10-20T17:16:17Z</time>
      </trkpt>
      <trkpt lat="45.36847" lon="5.64969">
        <ele>486</ele>
        <time>2018-10-20T17:16:20Z</time>
      </trkpt>
      <trkpt lat="45.36853" lon="5.64973">
        <ele>486</ele>
        <time>2018-10-20T17:16:21Z</time>
      </trkpt>
      <trkpt lat="45.36868" lon="5.64989">
        <ele>483</ele>
        <time>2018-10-20T17:16:24Z</time>
      </trkpt>
      <trkpt lat="45.36879" lon="5.64999">
        <ele>481</ele>
        <time>2018-10-20T17:16:26Z</time>
      </trkpt>
      <trkpt lat="45.36899" lon="5.65024">
        <ele>475</ele>
        <time>2018-10-20T17:16:33Z</time>
      </trkpt>
      <trkpt lat="45.36903" lon="5.6503">
        <ele>474</ele>
        <time>2018-10-20T17:16:49Z</time>
      </trkpt>
      <trkpt lat="45.36904" lon="5.65038">
        <ele>474</ele>
        <time>2018-10-20T17:16:54Z</time>
      </trkpt>
      <trkpt lat="45.36907" lon="5.65055">
        <ele>478</ele>
        <time>2018-10-20T17:17:02Z</time>
      </trkpt>
      <trkpt lat="45.36912" lon="5.65072">
        <ele>481</ele>
        <time>2018-10-20T17:17:10Z</time>
      </trkpt>
      <trkpt lat="45.36921" lon="5.65116">
        <ele>483</ele>
        <time>2018-10-20T17:17:25Z</time>
      </trkpt>
      <trkpt lat="45.36943" lon="5.65151">
        <ele>482</ele>
        <time>2018-10-20T17:17:38Z</time>
      </trkpt>
      <trkpt lat="45.36972" lon="5.65171">
        <ele>479</ele>
        <time>2018-10-20T17:17:46Z</time>
      </trkpt>
      <trkpt lat="45.36989" lon="5.65181">
        <ele>477</ele>
        <time>2018-10-20T17:17:49Z</time>
      </trkpt>
      <trkpt lat="45.37026" lon="5.6522">
        <ele>473</ele>
        <time>2018-10-20T17:17:58Z</time>
      </trkpt>
      <trkpt lat="45.37035" lon="5.65224">
        <ele>471</ele>
        <time>2018-10-20T17:18:01Z</time>
      </trkpt>
      <trkpt lat="45.3705" lon="5.65216">
        <ele>468</ele>
        <time>2018-10-20T17:18:10Z</time>
      </trkpt>
      <trkpt lat="45.37075" lon="5.65184">
        <ele>466</ele>
        <time>2018-10-20T17:18:20Z</time>
      </trkpt>
      <trkpt lat="45.37089" lon="5.65162">
        <ele>463</ele>
        <time>2018-10-20T17:18:25Z</time>
      </trkpt>
      <trkpt lat="45.37097" lon="5.65156">
        <ele>461</ele>
        <time>2018-10-20T17:18:27Z</time>
      </trkpt>
      <trkpt lat="45.37119" lon="5.65146">
        <ele>456</ele>
        <time>2018-10-20T17:18:32Z</time>
      </trkpt>
      <trkpt lat="45.37137" lon="5.65129">
        <ele>452</ele>
        <time>2018-10-20T17:18:36Z</time>
      </trkpt>
      <trkpt lat="45.37146" lon="5.65122">
        <ele>450</ele>
        <time>2018-10-20T17:18:38Z</time>
      </trkpt>
      <trkpt lat="45.37155" lon="5.65115">
        <ele>446</ele>
        <time>2018-10-20T17:18:40Z</time>
      </trkpt>
      <trkpt lat="45.37165" lon="5.65102">
        <ele>443</ele>
        <time>2018-10-20T17:18:43Z</time>
      </trkpt>
      <trkpt lat="45.37173" lon="5.65095">
        <ele>441</ele>
        <time>2018-10-20T17:18:45Z</time>
      </trkpt>
      <trkpt lat="45.37202" lon="5.65077">
        <ele>437</ele>
        <time>2018-10-20T17:18:50Z</time>
      </trkpt>
      <trkpt lat="45.37224" lon="5.65057">
        <ele>434</ele>
        <time>2018-10-20T17:18:55Z</time>
      </trkpt>
      <trkpt lat="45.37232" lon="5.65054">
        <ele>433</ele>
        <time>2018-10-20T17:18:57Z</time>
      </trkpt>
      <trkpt lat="45.37235" lon="5.65056">
        <ele>433</ele>
        <time>2018-10-20T17:18:58Z</time>
      </trkpt>
      <trkpt lat="45.37238" lon="5.65059">
        <ele>432</ele>
        <time>2018-10-20T17:18:59Z</time>
      </trkpt>
      <trkpt lat="45.37241" lon="5.65062">
        <ele>432</ele>
        <time>2018-10-20T17:19:00Z</time>
      </trkpt>
      <trkpt lat="45.37244" lon="5.65065">
        <ele>432</ele>
        <time>2018-10-20T17:19:01Z</time>
      </trkpt>
      <trkpt lat="45.37256" lon="5.65097">
        <ele>431</ele>
        <time>2018-10-20T17:19:12Z</time>
      </trkpt>
      <trkpt lat="45.37268" lon="5.65145">
        <ele>431</ele>
        <time>2018-10-20T17:19:25Z</time>
      </trkpt>
      <trkpt lat="45.37285" lon="5.6522">
        <ele>431</ele>
        <time>2018-10-20T17:19:39Z</time>
      </trkpt>
      <trkpt lat="45.37316" lon="5.65326">
        <ele>431</ele>
        <time>2018-10-20T17:19:59Z</time>
      </trkpt>
      <trkpt lat="45.37328" lon="5.65393">
        <ele>431</ele>
        <time>2018-10-20T17:20:12Z</time>
      </trkpt>
      <trkpt lat="45.37335" lon="5.65432">
        <ele>429</ele>
        <time>2018-10-20T17:20:17Z</time>
      </trkpt>
      <trkpt lat="45.37343" lon="5.65503">
        <ele>425</ele>
        <time>2018-10-20T17:20:23Z</time>
      </trkpt>
      <trkpt lat="45.37348" lon="5.65547">
        <ele>422</ele>
        <time>2018-10-20T17:20:26Z</time>
      </trkpt>
      <trkpt lat="45.37358" lon="5.65593">
        <ele>419</ele>
        <time>2018-10-20T17:20:29Z</time>
      </trkpt>
      <trkpt lat="45.37366" lon="5.65622">
        <ele>416</ele>
        <time>2018-10-20T17:20:31Z</time>
      </trkpt>
      <trkpt lat="45.37377" lon="5.65671">
        <ele>414</ele>
        <time>2018-10-20T17:20:35Z</time>
      </trkpt>
      <trkpt lat="45.3738" lon="5.65688">
        <ele>414</ele>
        <time>2018-10-20T17:20:37Z</time>
      </trkpt>
      <trkpt lat="45.37383" lon="5.65695">
        <ele>414</ele>
        <time>2018-10-20T17:20:38Z</time>
      </trkpt>
      <trkpt lat="45.37385" lon="5.65701">
        <ele>414</ele>
        <time>2018-10-20T17:20:39Z</time>
      </trkpt>
      <trkpt lat="45.37388" lon="5.65706">
        <ele>414</ele>
        <time>2018-10-20T17:20:40Z</time>
      </trkpt>
      <trkpt lat="45.3739" lon="5.6571">
        <ele>415</ele>
        <time>2018-10-20T17:20:41Z</time>
      </trkpt>
      <trkpt lat="45.37392" lon="5.65713">
        <ele>415</ele>
        <time>2018-10-20T17:20:42Z</time>
      </trkpt>
      <trkpt lat="45.37393" lon="5.65716">
        <ele>416</ele>
        <time>2018-10-20T17:20:43Z</time>
      </trkpt>
      <trkpt lat="45.37394" lon="5.65719">
        <ele>416</ele>
        <time>2018-10-20T17:20:44Z</time>
      </trkpt>
      <trkpt lat="45.37394" lon="5.65721">
        <ele>416</ele>
        <time>2018-10-20T17:20:45Z</time>
      </trkpt>
      <trkpt lat="45.37394" lon="5.65724">
        <ele>416</ele>
        <time>2018-10-20T17:20:46Z</time>
      </trkpt>
      <trkpt lat="45.37393" lon="5.65726">
        <ele>417</ele>
        <time>2018-10-20T17:20:47Z</time>
      </trkpt>
      <trkpt lat="45.37392" lon="5.65729">
        <ele>417</ele>
        <time>2018-10-20T17:20:48Z</time>
      </trkpt>
      <trkpt lat="45.37391" lon="5.65731">
        <ele>417</ele>
        <time>2018-10-20T17:20:49Z</time>
      </trkpt>
      <trkpt lat="45.37389" lon="5.65733">
        <ele>417</ele>
        <time>2018-10-20T17:20:50Z</time>
      </trkpt>
      <trkpt lat="45.37388" lon="5.65736">
        <ele>417</ele>
        <time>2018-10-20T17:20:51Z</time>
      </trkpt>
      <trkpt lat="45.37387" lon="5.65739">
        <ele>417</ele>
        <time>2018-10-20T17:20:52Z</time>
      </trkpt>
      <trkpt lat="45.37467" lon="5.65688">
        <ele>432</ele>
        <time>2018-10-20T17:21:08Z</time>
      </trkpt>
      <trkpt lat="45.37559" lon="5.65617">
        <ele>437</ele>
        <time>2018-10-20T17:21:20Z</time>
      </trkpt>
      <trkpt lat="45.37712" lon="5.65466">
        <ele>451</ele>
        <time>2018-10-20T17:21:36Z</time>
      </trkpt>
      <trkpt lat="45.37765" lon="5.65201">
        <ele>445</ele>
        <time>2018-10-20T17:21:50Z</time>
      </trkpt>
      <trkpt lat="45.37796" lon="5.65222">
        <ele>448</ele>
        <time>2018-10-20T17:22:05Z</time>
      </trkpt>
      <trkpt lat="45.37784" lon="5.65464">
        <ele>459</ele>
        <time>2018-10-20T17:22:17Z</time>
      </trkpt>
      <trkpt lat="45.37648" lon="5.65673">
        <ele>474</ele>
        <time>2018-10-20T17:22:32Z</time>
      </trkpt>
      <trkpt lat="45.37538" lon="5.65865">
        <ele>477</ele>
        <time>2018-10-20T17:22:45Z</time>
      </trkpt>
      <trkpt lat="45.3751" lon="5.65908">
        <ele>486</ele>
        <time>2018-10-20T17:22:58Z</time>
      </trkpt>
      <trkpt lat="45.37461" lon="5.65886">
        <ele>481</ele>
        <time>2018-10-20T17:23:14Z</time>
      </trkpt>
      <trkpt lat="45.37436" lon="5.65974">
        <ele>508</ele>
        <time>2018-10-20T17:23:27Z</time>
      </trkpt>
      <trkpt lat="45.37334" lon="5.66063">
        <ele>523</ele>
        <time>2018-10-20T17:23:44Z</time>
      </trkpt>
      <trkpt lat="45.37215" lon="5.66152">
        <ele>519</ele>
        <time>2018-10-20T17:24:00Z</time>
      </trkpt>
      <trkpt lat="45.37194" lon="5.66234">
        <ele>534</ele>
        <time>2018-10-20T17:24:13Z</time>
      </trkpt>
      <trkpt lat="45.37152" lon="5.66282">
        <ele>542</ele>
        <time>2018-10-20T17:24:16Z</time>
      </trkpt>
      <trkpt lat="45.37129" lon="5.66294">
        <ele>539</ele>
        <time>2018-10-20T17:24:17Z</time>
      </trkpt>
      <trkpt lat="45.37101" lon="5.66343">
        <ele>538</ele>
        <time>2018-10-20T17:24:18Z</time>
      </trkpt>
      <trkpt lat="45.37036" lon="5.6639">
        <ele>506</ele>
        <time>2018-10-20T17:24:19Z</time>
      </trkpt>
      <trkpt lat="45.37016" lon="5.66459">
        <ele>513</ele>
        <time>2018-10-20T17:24:20Z</time>
      </trkpt>
      <trkpt lat="45.36997" lon="5.66503">
        <ele>496</ele>
        <time>2018-10-20T17:24:30Z</time>
      </trkpt>
      <trkpt lat="45.37023" lon="5.66598">
        <ele>496</ele>
        <time>2018-10-20T17:32:14Z</time>
      </trkpt>
      <trkpt lat="45.37048" lon="5.66604">
        <ele>497</ele>
        <time>2018-10-20T17:32:24Z</time>
      </trkpt>
      <trkpt lat="45.37058" lon="5.66607">
        <ele>497</ele>
        <time>2018-10-20T17:32:28Z</time>
      </trkpt>
      <trkpt lat="45.37062" lon="5.66609">
        <ele>497</ele>
        <time>2018-10-20T17:32:32Z</time>
      </trkpt>
      <trkpt lat="45.37079" lon="5.66618">
        <ele>497</ele>
        <time>2018-10-20T17:32:40Z</time>
      </trkpt>
      <trkpt lat="45.37086" lon="5.66622">
        <ele>498</ele>
        <time>2018-10-20T17:32:43Z</time>
      </trkpt>
      <trkpt lat="45.37098" lon="5.66633">
        <ele>498</ele>
        <time>2018-10-20T17:32:49Z</time>
      </trkpt>
      <trkpt lat="45.37114" lon="5.66652">
        <ele>499</ele>
        <time>2018-10-20T17:32:57Z</time>
      </trkpt>
      <trkpt lat="45.3712" lon="5.66663">
        <ele>499</ele>
        <time>2018-10-20T17:33:02Z</time>
      </trkpt>
      <trkpt lat="45.37129" lon="5.6667">
        <ele>500</ele>
        <time>2018-10-20T17:33:08Z</time>
      </trkpt>
      <trkpt lat="45.37141" lon="5.66691">
        <ele>502</ele>
        <time>2018-10-20T17:33:20Z</time>
      </trkpt>
      <trkpt lat="45.37143" lon="5.66695">
        <ele>502</ele>
        <time>2018-10-20T17:33:23Z</time>
      </trkpt>
      <trkpt lat="45.37144" lon="5.66699">
        <ele>502</ele>
        <time>2018-10-20T17:33:25Z</time>
      </trkpt>
      <trkpt lat="45.37155" lon="5.66711">
        <ele>504</ele>
        <time>2018-10-20T17:33:33Z</time>
      </trkpt>
      <trkpt lat="45.3716" lon="5.66722">
        <ele>506</ele>
        <time>2018-10-20T17:33:46Z</time>
      </trkpt>
      <trkpt lat="45.37165" lon="5.66733">
        <ele>507</ele>
        <time>2018-10-20T17:33:57Z</time>
      </trkpt>
      <trkpt lat="45.37172" lon="5.66739">
        <ele>508</ele>
        <time>2018-10-20T17:34:08Z</time>
      </trkpt>
      <trkpt lat="45.37183" lon="5.66754">
        <ele>509</ele>
        <time>2018-10-20T17:34:19Z</time>
      </trkpt>
      <trkpt lat="45.37202" lon="5.66771">
        <ele>509</ele>
        <time>2018-10-20T17:34:30Z</time>
      </trkpt>
      <trkpt lat="45.37204" lon="5.66773">
        <ele>509</ele>
        <time>2018-10-20T17:34:31Z</time>
      </trkpt>
      <trkpt lat="45.37211" lon="5.66781">
        <ele>509</ele>
        <time>2018-10-20T17:34:35Z</time>
      </trkpt>
      <trkpt lat="45.37227" lon="5.66804">
        <ele>510</ele>
        <time>2018-10-20T17:34:46Z</time>
      </trkpt>
      <trkpt lat="45.37229" lon="5.66808">
        <ele>510</ele>
        <time>2018-10-20T17:34:48Z</time>
      </trkpt>
      <trkpt lat="45.37243" lon="5.66829">
        <ele>511</ele>
        <time>2018-10-20T17:35:04Z</time>
      </trkpt>
      <trkpt lat="45.37244" lon="5.66837">
        <ele>511</ele>
        <time>2018-10-20T17:35:19Z</time>
      </trkpt>
      <trkpt lat="45.37246" lon="5.66851">
        <ele>513</ele>
        <time>2018-10-20T17:35:33Z</time>
      </trkpt>
      <trkpt lat="45.37241" lon="5.66871">
        <ele>515</ele>
        <time>2018-10-20T17:35:50Z</time>
      </trkpt>
      <trkpt lat="45.37238" lon="5.66884">
        <ele>517</ele>
        <time>2018-10-20T17:36:05Z</time>
      </trkpt>
      <trkpt lat="45.37236" lon="5.66897">
        <ele>520</ele>
        <time>2018-10-20T17:36:18Z</time>
      </trkpt>
      <trkpt lat="45.37236" lon="5.66908">
        <ele>522</ele>
        <time>2018-10-20T17:36:31Z</time>
      </trkpt>
      <trkpt lat="45.37236" lon="5.66926">
        <ele>525</ele>
        <time>2018-10-20T17:36:49Z</time>
      </trkpt>
      <trkpt lat="45.37234" lon="5.66938">
        <ele>527</ele>
        <time>2018-10-20T17:37:10Z</time>
      </trkpt>
      <trkpt lat="45.37234" lon="5.66942">
        <ele>528</ele>
        <time>2018-10-20T17:37:48Z</time>
      </trkpt>
      <trkpt lat="45.37244" lon="5.66971">
        <ele>528</ele>
        <time>2018-10-20T17:38:01Z</time>
      </trkpt>
      <trkpt lat="45.37247" lon="5.66987">
        <ele>528</ele>
        <time>2018-10-20T17:38:06Z</time>
      </trkpt>
      <trkpt lat="45.37252" lon="5.6701">
        <ele>529</ele>
        <time>2018-10-20T17:38:14Z</time>
      </trkpt>
      <trkpt lat="45.37262" lon="5.67036">
        <ele>529</ele>
        <time>2018-10-20T17:38:23Z</time>
      </trkpt>
      <trkpt lat="45.37263" lon="5.67056">
        <ele>529</ele>
        <time>2018-10-20T17:38:28Z</time>
      </trkpt>
      <trkpt lat="45.37266" lon="5.67093">
        <ele>530</ele>
        <time>2018-10-20T17:38:38Z</time>
      </trkpt>
      <trkpt lat="45.37263" lon="5.67101">
        <ele>530</ele>
        <time>2018-10-20T17:38:41Z</time>
      </trkpt>
      <trkpt lat="45.37261" lon="5.67109">
        <ele>530</ele>
        <time>2018-10-20T17:38:44Z</time>
      </trkpt>
      <trkpt lat="45.37258" lon="5.67135">
        <ele>532</ele>
        <time>2018-10-20T17:38:53Z</time>
      </trkpt>
      <trkpt lat="45.37251" lon="5.67176">
        <ele>534</ele>
        <time>2018-10-20T17:39:06Z</time>
      </trkpt>
      <trkpt lat="45.37243" lon="5.67205">
        <ele>535</ele>
        <time>2018-10-20T17:39:15Z</time>
      </trkpt>
      <trkpt lat="45.37231" lon="5.67229">
        <ele>536</ele>
        <time>2018-10-20T17:39:23Z</time>
      </trkpt>
      <trkpt lat="45.37237" lon="5.6726">
        <ele>536</ele>
        <time>2018-10-20T17:39:31Z</time>
      </trkpt>
      <trkpt lat="45.37243" lon="5.67275">
        <ele>536</ele>
        <time>2018-10-20T17:39:35Z</time>
      </trkpt>
      <trkpt lat="45.37253" lon="5.67288">
        <ele>536</ele>
        <time>2018-10-20T17:39:39Z</time>
      </trkpt>
      <trkpt lat="45.37289" lon="5.67329">
        <ele>535</ele>
        <time>2018-10-20T17:39:51Z</time>
      </trkpt>
      <trkpt lat="45.37305" lon="5.67356">
        <ele>535</ele>
        <time>2018-10-20T17:39:58Z</time>
      </trkpt>
      <trkpt lat="45.3732" lon="5.67367">
        <ele>534</ele>
        <time>2018-10-20T17:40:01Z</time>
      </trkpt>
      <trkpt lat="45.37356" lon="5.67379">
        <ele>533</ele>
        <time>2018-10-20T17:40:11Z</time>
      </trkpt>
      <trkpt lat="45.37393" lon="5.67374">
        <ele>535</ele>
        <time>2018-10-20T17:40:24Z</time>
      </trkpt>
      <trkpt lat="45.37426" lon="5.67364">
        <ele>536</ele>
        <time>2018-10-20T17:40:37Z</time>
      </trkpt>
      <trkpt lat="45.37453" lon="5.67352">
        <ele>538</ele>
        <time>2018-10-20T17:40:48Z</time>
      </trkpt>
      <trkpt lat="45.37494" lon="5.6736">
        <ele>538</ele>
        <time>2018-10-20T17:41:02Z</time>
      </trkpt>
      <trkpt lat="45.37532" lon="5.67374">
        <ele>539</ele>
        <time>2018-10-20T17:41:14Z</time>
      </trkpt>
      <trkpt lat="45.37558" lon="5.67391">
        <ele>540</ele>
        <time>2018-10-20T17:41:25Z</time>
      </trkpt>
      <trkpt lat="45.37585" lon="5.67423">
        <ele>541</ele>
        <time>2018-10-20T17:41:38Z</time>
      </trkpt>
      <trkpt lat="45.37619" lon="5.67448">
        <ele>538</ele>
        <time>2018-10-20T17:41:49Z</time>
      </trkpt>
      <trkpt lat="45.37633" lon="5.67434">
        <ele>540</ele>
        <time>2018-10-20T17:42:02Z</time>
      </trkpt>
      <trkpt lat="45.37634" lon="5.67434">
        <ele>540</ele>
        <time>2018-10-20T17:42:03Z</time>
      </trkpt>
      <trkpt lat="45.37649" lon="5.67437">
        <ele>544</ele>
        <time>2018-10-20T17:42:15Z</time>
      </trkpt>
      <trkpt lat="45.3765" lon="5.67438">
        <ele>544</ele>
        <time>2018-10-20T17:42:16Z</time>
      </trkpt>
      <trkpt lat="45.37663" lon="5.67452">
        <ele>547</ele>
        <time>2018-10-20T17:42:29Z</time>
      </trkpt>
      <trkpt lat="45.37689" lon="5.6745">
        <ele>550</ele>
        <time>2018-10-20T17:42:46Z</time>
      </trkpt>
      <trkpt lat="45.37719" lon="5.67453">
        <ele>552</ele>
        <time>2018-10-20T17:43:04Z</time>
      </trkpt>
      <trkpt lat="45.37749" lon="5.67459">
        <ele>553</ele>
        <time>2018-10-20T17:43:17Z</time>
      </trkpt>
      <trkpt lat="45.37779" lon="5.6747">
        <ele>554</ele>
        <time>2018-10-20T17:43:29Z</time>
      </trkpt>
      <trkpt lat="45.37815" lon="5.67483">
        <ele>554</ele>
        <time>2018-10-20T17:43:42Z</time>
      </trkpt>
      <trkpt lat="45.37823" lon="5.67487">
        <ele>554</ele>
        <time>2018-10-20T17:43:46Z</time>
      </trkpt>
      <trkpt lat="45.37852" lon="5.67497">
        <ele>556</ele>
        <time>2018-10-20T17:44:00Z</time>
      </trkpt>
      <trkpt lat="45.37874" lon="5.67513">
        <ele>558</ele>
        <time>2018-10-20T17:44:13Z</time>
      </trkpt>
      <trkpt lat="45.37909" lon="5.67524">
        <ele>558</ele>
        <time>2018-10-20T17:44:27Z</time>
      </trkpt>
      <trkpt lat="45.37935" lon="5.6753">
        <ele>557</ele>
        <time>2018-10-20T17:44:34Z</time>
      </trkpt>
      <trkpt lat="45.37961" lon="5.67514">
        <ele>558</ele>
        <time>2018-10-20T17:44:44Z</time>
      </trkpt>
      <trkpt lat="45.37995" lon="5.67517">
        <ele>558</ele>
        <time>2018-10-20T17:44:55Z</time>
      </trkpt>
      <trkpt lat="45.3803" lon="5.67519">
        <ele>559</ele>
        <time>2018-10-20T17:45:07Z</time>
      </trkpt>
      <trkpt lat="45.38056" lon="5.67541">
        <ele>559</ele>
        <time>2018-10-20T17:45:20Z</time>
      </trkpt>
      <trkpt lat="45.38075" lon="5.67543">
        <ele>561</ele>
        <time>2018-10-20T17:45:34Z</time>
      </trkpt>
      <trkpt lat="45.38094" lon="5.67539">
        <ele>564</ele>
        <time>2018-10-20T17:45:48Z</time>
      </trkpt>
      <trkpt lat="45.38109" lon="5.67546">
        <ele>567</ele>
        <time>2018-10-20T17:45:59Z</time>
      </trkpt>
      <trkpt lat="45.38125" lon="5.67552">
        <ele>570</ele>
        <time>2018-10-20T17:46:11Z</time>
      </trkpt>
      <trkpt lat="45.38133" lon="5.67561">
        <ele>572</ele>
        <time>2018-10-20T17:46:18Z</time>
      </trkpt>
      <trkpt lat="45.38139" lon="5.67566">
        <ele>573</ele>
        <time>2018-10-20T17:46:22Z</time>
      </trkpt>
      <trkpt lat="45.38147" lon="5.67577">
        <ele>574</ele>
        <time>2018-10-20T17:46:29Z</time>
      </trkpt>
      <trkpt lat="45.38168" lon="5.67581">
        <ele>575</ele>
        <time>2018-10-20T17:46:44Z</time>
      </trkpt>
      <trkpt lat="45.38184" lon="5.67577">
        <ele>578</ele>
        <time>2018-10-20T17:46:57Z</time>
      </trkpt>
      <trkpt lat="45.38204" lon="5.67567">
        <ele>581</ele>
        <time>2018-10-20T17:47:11Z</time>
      </trkpt>
      <trkpt lat="45.38214" lon="5.6756">
        <ele>582</ele>
        <time>2018-10-20T17:47:19Z</time>
      </trkpt>
      <trkpt lat="45.38226" lon="5.67556">
        <ele>584</ele>
        <time>2018-10-20T17:47:27Z</time>
      </trkpt>
      <trkpt lat="45.38236" lon="5.67541">
        <ele>586</ele>
        <time>2018-10-20T17:47:38Z</time>
      </trkpt>
      <trkpt lat="45.38242" lon="5.67522">
        <ele>587</ele>
        <time>2018-10-20T17:47:51Z</time>
      </trkpt>
      <trkpt lat="45.38243" lon="5.67518">
        <ele>587</ele>
        <time>2018-10-20T17:47:54Z</time>
      </trkpt>
      <trkpt lat="45.38241" lon="5.67495">
        <ele>589</ele>
        <time>2018-10-20T17:48:08Z</time>
      </trkpt>
      <trkpt lat="45.38241" lon="5.67484">
        <ele>590</ele>
        <time>2018-10-20T17:48:13Z</time>
      </trkpt>
      <trkpt lat="45.38234" lon="5.67464">
        <ele>592</ele>
        <time>2018-10-20T17:48:26Z</time>
      </trkpt>
      <trkpt lat="45.38229" lon="5.67451">
        <ele>594</ele>
        <time>2018-10-20T17:48:34Z</time>
      </trkpt>
      <trkpt lat="45.38225" lon="5.67445">
        <ele>595</ele>
        <time>2018-10-20T17:48:38Z</time>
      </trkpt>
      <trkpt lat="45.38221" lon="5.67422">
        <ele>598</ele>
        <time>2018-10-20T17:48:52Z</time>
      </trkpt>
      <trkpt lat="45.3822" lon="5.67402">
        <ele>601</ele>
        <time>2018-10-20T17:49:03Z</time>
      </trkpt>
      <trkpt lat="45.38214" lon="5.67383">
        <ele>604</ele>
        <time>2018-10-20T17:49:15Z</time>
      </trkpt>
      <trkpt lat="45.38196" lon="5.67362">
        <ele>604</ele>
        <time>2018-10-20T17:49:27Z</time>
      </trkpt>
      <trkpt lat="45.38175" lon="5.67341">
        <ele>605</ele>
        <time>2018-10-20T17:49:39Z</time>
      </trkpt>
      <trkpt lat="45.38147" lon="5.67333">
        <ele>604</ele>
        <time>2018-10-20T17:49:52Z</time>
      </trkpt>
      <trkpt lat="45.38146" lon="5.67333">
        <ele>604</ele>
        <time>2018-10-20T17:49:53Z</time>
      </trkpt>
      <trkpt lat="45.38133" lon="5.6733">
        <ele>604</ele>
        <time>2018-10-20T17:49:59Z</time>
      </trkpt>
      <trkpt lat="45.38114" lon="5.67315">
        <ele>605</ele>
        <time>2018-10-20T17:50:12Z</time>
      </trkpt>
      <trkpt lat="45.38115" lon="5.67314">
        <ele>606</ele>
        <time>2018-10-20T17:50:13Z</time>
      </trkpt>
      <trkpt lat="45.38126" lon="5.67307">
        <ele>607</ele>
        <time>2018-10-20T17:50:25Z</time>
      </trkpt>
      <trkpt lat="45.38128" lon="5.67306">
        <ele>607</ele>
        <time>2018-10-20T17:50:28Z</time>
      </trkpt>
      <trkpt lat="45.38138" lon="5.67294">
        <ele>609</ele>
        <time>2018-10-20T17:50:40Z</time>
      </trkpt>
      <trkpt lat="45.38143" lon="5.67281">
        <ele>612</ele>
        <time>2018-10-20T17:50:55Z</time>
      </trkpt>
      <trkpt lat="45.38148" lon="5.67276">
        <ele>612</ele>
        <time>2018-10-20T17:51:00Z</time>
      </trkpt>
      <trkpt lat="45.38153" lon="5.67268">
        <ele>613</ele>
        <time>2018-10-20T17:51:05Z</time>
      </trkpt>
      <trkpt lat="45.38165" lon="5.6724">
        <ele>615</ele>
        <time>2018-10-20T17:51:22Z</time>
      </trkpt>
      <trkpt lat="45.38167" lon="5.67233">
        <ele>615</ele>
        <time>2018-10-20T17:51:27Z</time>
      </trkpt>
      <trkpt lat="45.38167" lon="5.67211">
        <ele>619</ele>
        <time>2018-10-20T17:51:41Z</time>
      </trkpt>
      <trkpt lat="45.38166" lon="5.67201">
        <ele>621</ele>
        <time>2018-10-20T17:52:00Z</time>
      </trkpt>
      <trkpt lat="45.38161" lon="5.67179">
        <ele>623</ele>
        <time>2018-10-20T17:52:15Z</time>
      </trkpt>
      <trkpt lat="45.38156" lon="5.67156">
        <ele>626</ele>
        <time>2018-10-20T17:52:30Z</time>
      </trkpt>
      <trkpt lat="45.38147" lon="5.67128">
        <ele>629</ele>
        <time>2018-10-20T17:52:48Z</time>
      </trkpt>
      <trkpt lat="45.38142" lon="5.67105">
        <ele>633</ele>
        <time>2018-10-20T17:53:03Z</time>
      </trkpt>
      <trkpt lat="45.38139" lon="5.67102">
        <ele>633</ele>
        <time>2018-10-20T17:53:05Z</time>
      </trkpt>
      <trkpt lat="45.3813" lon="5.67099">
        <ele>636</ele>
        <time>2018-10-20T17:53:25Z</time>
      </trkpt>
      <trkpt lat="45.38129" lon="5.67099">
        <ele>637</ele>
        <time>2018-10-20T17:53:48Z</time>
      </trkpt>
      <trkpt lat="45.38122" lon="5.67094">
        <ele>639</ele>
        <time>2018-10-20T17:54:07Z</time>
      </trkpt>
      <trkpt lat="45.38118" lon="5.67093">
        <ele>640</ele>
        <time>2018-10-20T17:54:23Z</time>
      </trkpt>
      <trkpt lat="45.38115" lon="5.6709">
        <ele>640</ele>
        <time>2018-10-20T17:55:14Z</time>
      </trkpt>
      <trkpt lat="45.38112" lon="5.6709">
        <ele>640</ele>
        <time>2018-10-20T17:55:31Z</time>
      </trkpt>
      <trkpt lat="45.38111" lon="5.67082">
        <ele>642</ele>
        <time>2018-10-20T17:55:56Z</time>
      </trkpt>
      <trkpt lat="45.38111" lon="5.6707">
        <ele>644</ele>
        <time>2018-10-20T17:56:09Z</time>
      </trkpt>
      <trkpt lat="45.38111" lon="5.67064">
        <ele>644</ele>
        <time>2018-10-20T17:56:13Z</time>
      </trkpt>
      <trkpt lat="45.3811" lon="5.67047">
        <ele>646</ele>
        <time>2018-10-20T17:56:22Z</time>
      </trkpt>
      <trkpt lat="45.38108" lon="5.67044">
        <ele>646</ele>
        <time>2018-10-20T17:56:24Z</time>
      </trkpt>
      <trkpt lat="45.38103" lon="5.67026">
        <ele>648</ele>
        <time>2018-10-20T17:56:34Z</time>
      </trkpt>
      <trkpt lat="45.381" lon="5.67018">
        <ele>648</ele>
        <time>2018-10-20T17:56:38Z</time>
      </trkpt>
      <trkpt lat="45.38092" lon="5.66987">
        <ele>651</ele>
        <time>2018-10-20T17:56:53Z</time>
      </trkpt>
      <trkpt lat="45.38092" lon="5.66985">
        <ele>651</ele>
        <time>2018-10-20T17:56:54Z</time>
      </trkpt>
      <trkpt lat="45.38091" lon="5.6698">
        <ele>652</ele>
        <time>2018-10-20T17:56:57Z</time>
      </trkpt>
      <trkpt lat="45.38083" lon="5.66962">
        <ele>655</ele>
        <time>2018-10-20T17:57:08Z</time>
      </trkpt>
      <trkpt lat="45.38083" lon="5.66958">
        <ele>656</ele>
        <time>2018-10-20T17:57:10Z</time>
      </trkpt>
      <trkpt lat="45.38076" lon="5.66936">
        <ele>659</ele>
        <time>2018-10-20T17:57:23Z</time>
      </trkpt>
      <trkpt lat="45.38072" lon="5.66918">
        <ele>663</ele>
        <time>2018-10-20T17:57:36Z</time>
      </trkpt>
      <trkpt lat="45.38069" lon="5.66908">
        <ele>664</ele>
        <time>2018-10-20T17:57:42Z</time>
      </trkpt>
      <trkpt lat="45.38066" lon="5.66902">
        <ele>665</ele>
        <time>2018-10-20T17:57:46Z</time>
      </trkpt>
      <trkpt lat="45.38057" lon="5.66875">
        <ele>668</ele>
        <time>2018-10-20T17:58:03Z</time>
      </trkpt>
      <trkpt lat="45.38052" lon="5.66849">
        <ele>670</ele>
        <time>2018-10-20T17:58:19Z</time>
      </trkpt>
      <trkpt lat="45.3805" lon="5.66817">
        <ele>672</ele>
        <time>2018-10-20T17:58:34Z</time>
      </trkpt>
      <trkpt lat="45.38058" lon="5.66801">
        <ele>670</ele>
        <time>2018-10-20T17:58:50Z</time>
      </trkpt>
      <trkpt lat="45.3806" lon="5.66801">
        <ele>670</ele>
        <time>2018-10-20T17:59:38Z</time>
      </trkpt>
      <trkpt lat="45.38064" lon="5.66801">
        <ele>670</ele>
        <time>2018-10-20T18:00:53Z</time>
      </trkpt>
      <trkpt lat="45.38085" lon="5.66809">
        <ele>672</ele>
        <time>2018-10-20T18:01:07Z</time>
      </trkpt>
      <trkpt lat="45.38089" lon="5.66818">
        <ele>672</ele>
        <time>2018-10-20T18:01:10Z</time>
      </trkpt>
      <trkpt lat="45.381" lon="5.66838">
        <ele>670</ele>
        <time>2018-10-20T18:01:16Z</time>
      </trkpt>
      <trkpt lat="45.38105" lon="5.66846">
        <ele>670</ele>
        <time>2018-10-20T18:01:19Z</time>
      </trkpt>
      <trkpt lat="45.38131" lon="5.66859">
        <ele>670</ele>
        <time>2018-10-20T18:01:31Z</time>
      </trkpt>
      <trkpt lat="45.38151" lon="5.66858">
        <ele>673</ele>
        <time>2018-10-20T18:01:43Z</time>
      </trkpt>
      <trkpt lat="45.38166" lon="5.66855">
        <ele>673</ele>
        <time>2018-10-20T18:01:48Z</time>
      </trkpt>
      <trkpt lat="45.38172" lon="5.66855">
        <ele>673</ele>
        <time>2018-10-20T18:01:50Z</time>
      </trkpt>
      <trkpt lat="45.38201" lon="5.66844">
        <ele>673</ele>
        <time>2018-10-20T18:02:00Z</time>
      </trkpt>
      <trkpt lat="45.38222" lon="5.66841">
        <ele>671</ele>
        <time>2018-10-20T18:02:05Z</time>
      </trkpt>
      <trkpt lat="45.38244" lon="5.66849">
        <ele>669</ele>
        <time>2018-10-20T18:02:09Z</time>
      </trkpt>
      <trkpt lat="45.38271" lon="5.66867">
        <ele>667</ele>
        <time>2018-10-20T18:02:13Z</time>
      </trkpt>
      <trkpt lat="45.38298" lon="5.66888">
        <ele>666</ele>
        <time>2018-10-20T18:02:18Z</time>
      </trkpt>
      <trkpt lat="45.38353" lon="5.66926">
        <ele>666</ele>
        <time>2018-10-20T18:02:30Z</time>
      </trkpt>
      <trkpt lat="45.38387" lon="5.66971">
        <ele>664</ele>
        <time>2018-10-20T18:02:40Z</time>
      </trkpt>
      <trkpt lat="45.38404" lon="5.66996">
        <ele>662</ele>
        <time>2018-10-20T18:02:45Z</time>
      </trkpt>
      <trkpt lat="45.38412" lon="5.67007">
        <ele>661</ele>
        <time>2018-10-20T18:02:48Z</time>
      </trkpt>
      <trkpt lat="45.38419" lon="5.67022">
        <ele>661</ele>
        <time>2018-10-20T18:03:03Z</time>
      </trkpt>
      <trkpt lat="45.38428" lon="5.67049">
        <ele>660</ele>
        <time>2018-10-20T18:03:18Z</time>
      </trkpt>
      <trkpt lat="45.3843" lon="5.67052">
        <ele>660</ele>
        <time>2018-10-20T18:03:19Z</time>
      </trkpt>
      <trkpt lat="45.38446" lon="5.6706">
        <ele>659</ele>
        <time>2018-10-20T18:03:25Z</time>
      </trkpt>
      <trkpt lat="45.3848" lon="5.67081">
        <ele>660</ele>
        <time>2018-10-20T18:03:37Z</time>
      </trkpt>
      <trkpt lat="45.38505" lon="5.67109">
        <ele>661</ele>
        <time>2018-10-20T18:03:49Z</time>
      </trkpt>
      <trkpt lat="45.38509" lon="5.67122">
        <ele>661</ele>
        <time>2018-10-20T18:03:53Z</time>
      </trkpt>
      <trkpt lat="45.38511" lon="5.67132">
        <ele>662</ele>
        <time>2018-10-20T18:04:07Z</time>
      </trkpt>
      <trkpt lat="45.38514" lon="5.67131">
        <ele>662</ele>
        <time>2018-10-20T18:04:11Z</time>
      </trkpt>
      <trkpt lat="45.38533" lon="5.67116">
        <ele>662</ele>
        <time>2018-10-20T18:04:23Z</time>
      </trkpt>
      <trkpt lat="45.38558" lon="5.6711">
        <ele>663</ele>
        <time>2018-10-20T18:04:35Z</time>
      </trkpt>
      <trkpt lat="45.38565" lon="5.67111">
        <ele>664</ele>
        <time>2018-10-20T18:04:39Z</time>
      </trkpt>
      <trkpt lat="45.38591" lon="5.67121">
        <ele>666</ele>
        <time>2018-10-20T18:04:51Z</time>
      </trkpt>
      <trkpt lat="45.38621" lon="5.67123">
        <ele>665</ele>
        <time>2018-10-20T18:05:01Z</time>
      </trkpt>
      <trkpt lat="45.38634" lon="5.6713">
        <ele>665</ele>
        <time>2018-10-20T18:05:04Z</time>
      </trkpt>
      <trkpt lat="45.38668" lon="5.67168">
        <ele>663</ele>
        <time>2018-10-20T18:05:14Z</time>
      </trkpt>
      <trkpt lat="45.38674" lon="5.67175">
        <ele>663</ele>
        <time>2018-10-20T18:05:16Z</time>
      </trkpt>
      <trkpt lat="45.38704" lon="5.67179">
        <ele>660</ele>
        <time>2018-10-20T18:05:23Z</time>
      </trkpt>
      <trkpt lat="45.38736" lon="5.67184">
        <ele>654</ele>
        <time>2018-10-20T18:05:30Z</time>
      </trkpt>
      <trkpt lat="45.38751" lon="5.67204">
        <ele>654</ele>
        <time>2018-10-20T18:05:40Z</time>
      </trkpt>
      <trkpt lat="45.38759" lon="5.67221">
        <ele>657</ele>
        <time>2018-10-20T18:05:50Z</time>
      </trkpt>
      <trkpt lat="45.3876" lon="5.67225">
        <ele>658</ele>
        <time>2018-10-20T18:05:52Z</time>
      </trkpt>
      <trkpt lat="45.38753" lon="5.6725">
        <ele>661</ele>
        <time>2018-10-20T18:06:06Z</time>
      </trkpt>
      <trkpt lat="45.38755" lon="5.67276">
        <ele>663</ele>
        <time>2018-10-20T18:06:20Z</time>
      </trkpt>
      <trkpt lat="45.38757" lon="5.67279">
        <ele>664</ele>
        <time>2018-10-20T18:06:22Z</time>
      </trkpt>
      <trkpt lat="45.38774" lon="5.67282">
        <ele>667</ele>
        <time>2018-10-20T18:06:37Z</time>
      </trkpt>
      <trkpt lat="45.38795" lon="5.67291">
        <ele>669</ele>
        <time>2018-10-20T18:06:53Z</time>
      </trkpt>
      <trkpt lat="45.38797" lon="5.67292">
        <ele>670</ele>
        <time>2018-10-20T18:07:10Z</time>
      </trkpt>
      <trkpt lat="45.38809" lon="5.67299">
        <ele>669</ele>
        <time>2018-10-20T18:07:26Z</time>
      </trkpt>
      <trkpt lat="45.38829" lon="5.67348">
        <ele>667</ele>
        <time>2018-10-20T18:07:37Z</time>
      </trkpt>
      <trkpt lat="45.38833" lon="5.67366">
        <ele>667</ele>
        <time>2018-10-20T18:07:41Z</time>
      </trkpt>
      <trkpt lat="45.38845" lon="5.67388">
        <ele>669</ele>
        <time>2018-10-20T18:07:50Z</time>
      </trkpt>
      <trkpt lat="45.38861" lon="5.67424">
        <ele>670</ele>
        <time>2018-10-20T18:08:03Z</time>
      </trkpt>
      <trkpt lat="45.38864" lon="5.67429">
        <ele>670</ele>
        <time>2018-10-20T18:08:05Z</time>
      </trkpt>
      <trkpt lat="45.38875" lon="5.67443">
        <ele>669</ele>
        <time>2018-10-20T18:08:10Z</time>
      </trkpt>
      <trkpt lat="45.38911" lon="5.67478">
        <ele>668</ele>
        <time>2018-10-20T18:08:21Z</time>
      </trkpt>
      <trkpt lat="45.38955" lon="5.67502">
        <ele>668</ele>
        <time>2018-10-20T18:08:33Z</time>
      </trkpt>
      <trkpt lat="45.38979" lon="5.67517">
        <ele>666</ele>
        <time>2018-10-20T18:08:39Z</time>
      </trkpt>
      <trkpt lat="45.39002" lon="5.67538">
        <ele>662</ele>
        <time>2018-10-20T18:08:45Z</time>
      </trkpt>
      <trkpt lat="45.39016" lon="5.67555">
        <ele>661</ele>
        <time>2018-10-20T18:08:49Z</time>
      </trkpt>
      <trkpt lat="45.3903" lon="5.67564">
        <ele>659</ele>
        <time>2018-10-20T18:08:52Z</time>
      </trkpt>
      <trkpt lat="45.39043" lon="5.67565">
        <ele>659</ele>
        <time>2018-10-20T18:09:09Z</time>
      </trkpt>
      <trkpt lat="45.39063" lon="5.67542">
        <ele>657</ele>
        <time>2018-10-20T18:09:19Z</time>
      </trkpt>
      <trkpt lat="45.3907" lon="5.67539">
        <ele>656</ele>
        <time>2018-10-20T18:09:22Z</time>
      </trkpt>
      <trkpt lat="45.39083" lon="5.67535">
        <ele>654</ele>
        <time>2018-10-20T18:09:34Z</time>
      </trkpt>
      <trkpt lat="45.3909" lon="5.67536">
        <ele>654</ele>
        <time>2018-10-20T18:09:39Z</time>
      </trkpt>
      <trkpt lat="45.39096" lon="5.67539">
        <ele>654</ele>
        <time>2018-10-20T18:09:42Z</time>
      </trkpt>
      <trkpt lat="45.39107" lon="5.67544">
        <ele>654</ele>
        <time>2018-10-20T18:09:47Z</time>
      </trkpt>
      <trkpt lat="45.39122" lon="5.67559">
        <ele>653</ele>
        <time>2018-10-20T18:09:55Z</time>
      </trkpt>
      <trkpt lat="45.39127" lon="5.6757">
        <ele>651</ele>
        <time>2018-10-20T18:09:59Z</time>
      </trkpt>
      <trkpt lat="45.39139" lon="5.67615">
        <ele>648</ele>
        <time>2018-10-20T18:10:11Z</time>
      </trkpt>
      <trkpt lat="45.39141" lon="5.67624">
        <ele>648</ele>
        <time>2018-10-20T18:10:13Z</time>
      </trkpt>
      <trkpt lat="45.39159" lon="5.67651">
        <ele>647</ele>
        <time>2018-10-20T18:10:21Z</time>
      </trkpt>
      <trkpt lat="45.39175" lon="5.6766">
        <ele>647</ele>
        <time>2018-10-20T18:10:27Z</time>
      </trkpt>
      <trkpt lat="45.39195" lon="5.67688">
        <ele>649</ele>
        <time>2018-10-20T18:10:37Z</time>
      </trkpt>
      <trkpt lat="45.39207" lon="5.67717">
        <ele>651</ele>
        <time>2018-10-20T18:10:47Z</time>
      </trkpt>
      <trkpt lat="45.39209" lon="5.67722">
        <ele>651</ele>
        <time>2018-10-20T18:10:49Z</time>
      </trkpt>
      <trkpt lat="45.39216" lon="5.67762">
        <ele>649</ele>
        <time>2018-10-20T18:10:59Z</time>
      </trkpt>
      <trkpt lat="45.39222" lon="5.67774">
        <ele>647</ele>
        <time>2018-10-20T18:11:02Z</time>
      </trkpt>
      <trkpt lat="45.39234" lon="5.67792">
        <ele>644</ele>
        <time>2018-10-20T18:11:06Z</time>
      </trkpt>
      <trkpt lat="45.39253" lon="5.6784">
        <ele>641</ele>
        <time>2018-10-20T18:11:15Z</time>
      </trkpt>
      <trkpt lat="45.39256" lon="5.67847">
        <ele>640</ele>
        <time>2018-10-20T18:11:18Z</time>
      </trkpt>
      <trkpt lat="45.39277" lon="5.67887">
        <ele>637</ele>
        <time>2018-10-20T18:11:27Z</time>
      </trkpt>
      <trkpt lat="45.39297" lon="5.67921">
        <ele>636</ele>
        <time>2018-10-20T18:11:35Z</time>
      </trkpt>
      <trkpt lat="45.39314" lon="5.67947">
        <ele>635</ele>
        <time>2018-10-20T18:11:43Z</time>
      </trkpt>
      <trkpt lat="45.39335" lon="5.67959">
        <ele>633</ele>
        <time>2018-10-20T18:11:50Z</time>
      </trkpt>
      <trkpt lat="45.39354" lon="5.67956">
        <ele>629</ele>
        <time>2018-10-20T18:11:57Z</time>
      </trkpt>
      <trkpt lat="45.39362" lon="5.67951">
        <ele>629</ele>
        <time>2018-10-20T18:12:19Z</time>
      </trkpt>
      <trkpt lat="45.3938" lon="5.67957">
        <ele>628</ele>
        <time>2018-10-20T18:12:27Z</time>
      </trkpt>
      <trkpt lat="45.39393" lon="5.67975">
        <ele>627</ele>
        <time>2018-10-20T18:12:33Z</time>
      </trkpt>
      <trkpt lat="45.39421" lon="5.67998">
        <ele>626</ele>
        <time>2018-10-20T18:12:42Z</time>
      </trkpt>
      <trkpt lat="45.39453" lon="5.68024">
        <ele>626</ele>
        <time>2018-10-20T18:12:52Z</time>
      </trkpt>
      <trkpt lat="45.3947" lon="5.68036">
        <ele>624</ele>
        <time>2018-10-20T18:12:57Z</time>
      </trkpt>
      <trkpt lat="45.39482" lon="5.68035">
        <ele>622</ele>
        <time>2018-10-20T18:13:01Z</time>
      </trkpt>
      <trkpt lat="45.39497" lon="5.68037">
        <ele>620</ele>
        <time>2018-10-20T18:13:06Z</time>
      </trkpt>
      <trkpt lat="45.39503" lon="5.68041">
        <ele>619</ele>
        <time>2018-10-20T18:13:08Z</time>
      </trkpt>
      <trkpt lat="45.39519" lon="5.68056">
        <ele>618</ele>
        <time>2018-10-20T18:13:13Z</time>
      </trkpt>
      <trkpt lat="45.39546" lon="5.68061">
        <ele>618</ele>
        <time>2018-10-20T18:13:24Z</time>
      </trkpt>
      <trkpt lat="45.39558" lon="5.6806">
        <ele>618</ele>
        <time>2018-10-20T18:13:44Z</time>
      </trkpt>
      <trkpt lat="45.39567" lon="5.68057">
        <ele>618</ele>
        <time>2018-10-20T18:14:10Z</time>
      </trkpt>
      <trkpt lat="45.39571" lon="5.68051">
        <ele>618</ele>
        <time>2018-10-20T18:14:28Z</time>
      </trkpt>
      <trkpt lat="45.39569" lon="5.68041">
        <ele>618</ele>
        <time>2018-10-20T18:14:32Z</time>
      </trkpt>
      <trkpt lat="45.39566" lon="5.68028">
        <ele>619</ele>
        <time>2018-10-20T18:14:37Z</time>
      </trkpt>
      <trkpt lat="45.39547" lon="5.68001">
        <ele>620</ele>
        <time>2018-10-20T18:14:50Z</time>
      </trkpt>
      <trkpt lat="45.39532" lon="5.67957">
        <ele>621</ele>
        <time>2018-10-20T18:15:04Z</time>
      </trkpt>
      <trkpt lat="45.3953" lon="5.67951">
        <ele>621</ele>
        <time>2018-10-20T18:15:06Z</time>
      </trkpt>
      <trkpt lat="45.39526" lon="5.67926">
        <ele>621</ele>
        <time>2018-10-20T18:15:12Z</time>
      </trkpt>
      <trkpt lat="45.39537" lon="5.67875">
        <ele>621</ele>
        <time>2018-10-20T18:15:24Z</time>
      </trkpt>
      <trkpt lat="45.39537" lon="5.67862">
        <ele>621</ele>
        <time>2018-10-20T18:15:26Z</time>
      </trkpt>
      <trkpt lat="45.39531" lon="5.67835">
        <ele>620</ele>
        <time>2018-10-20T18:15:31Z</time>
      </trkpt>
      <trkpt lat="45.3952" lon="5.67781">
        <ele>620</ele>
        <time>2018-10-20T18:15:42Z</time>
      </trkpt>
      <trkpt lat="45.39517" lon="5.67715">
        <ele>617</ele>
        <time>2018-10-20T18:15:52Z</time>
      </trkpt>
      <trkpt lat="45.39516" lon="5.67705">
        <ele>616</ele>
        <time>2018-10-20T18:15:54Z</time>
      </trkpt>
      <trkpt lat="45.39527" lon="5.67705">
        <ele>612</ele>
        <time>2018-10-20T18:16:00Z</time>
      </trkpt>
      <trkpt lat="45.39535" lon="5.67732">
        <ele>608</ele>
        <time>2018-10-20T18:16:07Z</time>
      </trkpt>
      <trkpt lat="45.39543" lon="5.67757">
        <ele>605</ele>
        <time>2018-10-20T18:16:12Z</time>
      </trkpt>
      <trkpt lat="45.39553" lon="5.67779">
        <ele>602</ele>
        <time>2018-10-20T18:16:17Z</time>
      </trkpt>
      <trkpt lat="45.39557" lon="5.6779">
        <ele>600</ele>
        <time>2018-10-20T18:16:20Z</time>
      </trkpt>
      <trkpt lat="45.39563" lon="5.67786">
        <ele>597</ele>
        <time>2018-10-20T18:16:24Z</time>
      </trkpt>
      <trkpt lat="45.39563" lon="5.67775">
        <ele>595</ele>
        <time>2018-10-20T18:16:27Z</time>
      </trkpt>
      <trkpt lat="45.39564" lon="5.67742">
        <ele>591</ele>
        <time>2018-10-20T18:16:34Z</time>
      </trkpt>
      <trkpt lat="45.39565" lon="5.67706">
        <ele>587</ele>
        <time>2018-10-20T18:16:40Z</time>
      </trkpt>
      <trkpt lat="45.39566" lon="5.67695">
        <ele>586</ele>
        <time>2018-10-20T18:16:42Z</time>
      </trkpt>
      <trkpt lat="45.39564" lon="5.67684">
        <ele>584</ele>
        <time>2018-10-20T18:16:44Z</time>
      </trkpt>
      <trkpt lat="45.39558" lon="5.67669">
        <ele>581</ele>
        <time>2018-10-20T18:16:47Z</time>
      </trkpt>
      <trkpt lat="45.39556" lon="5.67665">
        <ele>581</ele>
        <time>2018-10-20T18:16:48Z</time>
      </trkpt>
      <trkpt lat="45.39543" lon="5.67628">
        <ele>576</ele>
        <time>2018-10-20T18:16:54Z</time>
      </trkpt>
      <trkpt lat="45.39539" lon="5.67623">
        <ele>576</ele>
        <time>2018-10-20T18:16:55Z</time>
      </trkpt>
      <trkpt lat="45.39497" lon="5.6757">
        <ele>576</ele>
        <time>2018-10-20T18:17:07Z</time>
      </trkpt>
      <trkpt lat="45.39489" lon="5.67552">
        <ele>576</ele>
        <time>2018-10-20T18:17:11Z</time>
      </trkpt>
      <trkpt lat="45.39497" lon="5.67513">
        <ele>575</ele>
        <time>2018-10-20T18:17:18Z</time>
      </trkpt>
      <trkpt lat="45.39506" lon="5.67496">
        <ele>575</ele>
        <time>2018-10-20T18:17:21Z</time>
      </trkpt>
      <trkpt lat="45.39534" lon="5.67457">
        <ele>576</ele>
        <time>2018-10-20T18:17:32Z</time>
      </trkpt>
      <trkpt lat="45.39538" lon="5.67449">
        <ele>577</ele>
        <time>2018-10-20T18:17:35Z</time>
      </trkpt>
      <trkpt lat="45.39543" lon="5.67446">
        <ele>577</ele>
        <time>2018-10-20T18:17:37Z</time>
      </trkpt>
      <trkpt lat="45.39553" lon="5.67449">
        <ele>576</ele>
        <time>2018-10-20T18:17:42Z</time>
      </trkpt>
      <trkpt lat="45.39571" lon="5.67456">
        <ele>573</ele>
        <time>2018-10-20T18:17:52Z</time>
      </trkpt>
      <trkpt lat="45.39578" lon="5.67458">
        <ele>573</ele>
        <time>2018-10-20T18:18:18Z</time>
      </trkpt>
      <trkpt lat="45.39595" lon="5.67477">
        <ele>572</ele>
        <time>2018-10-20T18:18:25Z</time>
      </trkpt>
      <trkpt lat="45.39602" lon="5.67471">
        <ele>569</ele>
        <time>2018-10-20T18:18:31Z</time>
      </trkpt>
      <trkpt lat="45.39602" lon="5.67472">
        <ele>568</ele>
        <time>2018-10-20T18:18:48Z</time>
      </trkpt>
      <trkpt lat="45.39601" lon="5.67473">
        <ele>568</ele>
        <time>2018-10-20T18:19:17Z</time>
      </trkpt>
      <trkpt lat="45.39601" lon="5.67474">
        <ele>568</ele>
        <time>2018-10-20T18:19:38Z</time>
      </trkpt>
      <trkpt lat="45.39602" lon="5.67473">
        <ele>567</ele>
        <time>2018-10-20T18:19:45Z</time>
      </trkpt>
      <trkpt lat="45.39601" lon="5.6746">
        <ele>567</ele>
        <time>2018-10-20T18:19:49Z</time>
      </trkpt>
      <trkpt lat="45.39589" lon="5.6743">
        <ele>564</ele>
        <time>2018-10-20T18:19:56Z</time>
      </trkpt>
      <trkpt lat="45.39577" lon="5.67416">
        <ele>561</ele>
        <time>2018-10-20T18:20:00Z</time>
      </trkpt>
      <trkpt lat="45.39565" lon="5.67402">
        <ele>558</ele>
        <time>2018-10-20T18:20:04Z</time>
      </trkpt>
      <trkpt lat="45.3956" lon="5.67394">
        <ele>556</ele>
        <time>2018-10-20T18:20:06Z</time>
      </trkpt>
      <trkpt lat="45.39557" lon="5.67383">
        <ele>554</ele>
        <time>2018-10-20T18:20:08Z</time>
      </trkpt>
      <trkpt lat="45.39544" lon="5.67358">
        <ele>549</ele>
        <time>2018-10-20T18:20:12Z</time>
      </trkpt>
      <trkpt lat="45.39538" lon="5.67354">
        <ele>548</ele>
        <time>2018-10-20T18:20:13Z</time>
      </trkpt>
      <trkpt lat="45.39505" lon="5.67319">
        <ele>543</ele>
        <time>2018-10-20T18:20:19Z</time>
      </trkpt>
      <trkpt lat="45.39486" lon="5.67294">
        <ele>539</ele>
        <time>2018-10-20T18:20:23Z</time>
      </trkpt>
      <trkpt lat="45.39471" lon="5.67273">
        <ele>536</ele>
        <time>2018-10-20T18:20:27Z</time>
      </trkpt>
      <trkpt lat="45.39452" lon="5.67249">
        <ele>532</ele>
        <time>2018-10-20T18:20:31Z</time>
      </trkpt>
      <trkpt lat="45.39447" lon="5.67242">
        <ele>531</ele>
        <time>2018-10-20T18:20:32Z</time>
      </trkpt>
      <trkpt lat="45.39436" lon="5.67221">
        <ele>528</ele>
        <time>2018-10-20T18:20:35Z</time>
      </trkpt>
      <trkpt lat="45.39418" lon="5.67204">
        <ele>523</ele>
        <time>2018-10-20T18:20:40Z</time>
      </trkpt>
      <trkpt lat="45.3942" lon="5.67186">
        <ele>520</ele>
        <time>2018-10-20T18:20:45Z</time>
      </trkpt>
      <trkpt lat="45.39428" lon="5.67186">
        <ele>519</ele>
        <time>2018-10-20T18:20:47Z</time>
      </trkpt>
      <trkpt lat="45.39439" lon="5.67189">
        <ele>518</ele>
        <time>2018-10-20T18:20:49Z</time>
      </trkpt>
      <trkpt lat="45.39472" lon="5.67192">
        <ele>513</ele>
        <time>2018-10-20T18:20:54Z</time>
      </trkpt>
      <trkpt lat="45.39497" lon="5.67191">
        <ele>509</ele>
        <time>2018-10-20T18:20:58Z</time>
      </trkpt>
      <trkpt lat="45.39515" lon="5.67191">
        <ele>506</ele>
        <time>2018-10-20T18:21:01Z</time>
      </trkpt>
      <trkpt lat="45.39533" lon="5.67193">
        <ele>503</ele>
        <time>2018-10-20T18:21:06Z</time>
      </trkpt>
      <trkpt lat="45.39535" lon="5.67193">
        <ele>502</ele>
        <time>2018-10-20T18:21:07Z</time>
      </trkpt>
      <trkpt lat="45.39539" lon="5.67181">
        <ele>500</ele>
        <time>2018-10-20T18:21:12Z</time>
      </trkpt>
      <trkpt lat="45.39538" lon="5.67167">
        <ele>497</ele>
        <time>2018-10-20T18:21:23Z</time>
      </trkpt>
      <trkpt lat="45.39529" lon="5.67153">
        <ele>496</ele>
        <time>2018-10-20T18:21:30Z</time>
      </trkpt>
      <trkpt lat="45.39512" lon="5.67145">
        <ele>493</ele>
        <time>2018-10-20T18:21:43Z</time>
      </trkpt>
      <trkpt lat="45.39509" lon="5.67139">
        <ele>493</ele>
        <time>2018-10-20T18:21:52Z</time>
      </trkpt>
      <trkpt lat="45.39492" lon="5.67114">
        <ele>490</ele>
        <time>2018-10-20T18:22:02Z</time>
      </trkpt>
      <trkpt lat="45.39463" lon="5.67092">
        <ele>488</ele>
        <time>2018-10-20T18:22:12Z</time>
      </trkpt>
      <trkpt lat="45.39457" lon="5.67068">
        <ele>485</ele>
        <time>2018-10-20T18:22:18Z</time>
      </trkpt>
      <trkpt lat="45.39449" lon="5.67048">
        <ele>482</ele>
        <time>2018-10-20T18:22:22Z</time>
      </trkpt>
      <trkpt lat="45.39435" lon="5.67027">
        <ele>477</ele>
        <time>2018-10-20T18:22:27Z</time>
      </trkpt>
      <trkpt lat="45.39414" lon="5.67002">
        <ele>473</ele>
        <time>2018-10-20T18:22:33Z</time>
      </trkpt>
      <trkpt lat="45.39402" lon="5.66983">
        <ele>470</ele>
        <time>2018-10-20T18:22:37Z</time>
      </trkpt>
      <trkpt lat="45.3939" lon="5.66964">
        <ele>466</ele>
        <time>2018-10-20T18:22:41Z</time>
      </trkpt>
      <trkpt lat="45.39377" lon="5.66954">
        <ele>464</ele>
        <time>2018-10-20T18:22:44Z</time>
      </trkpt>
      <trkpt lat="45.39361" lon="5.66933">
        <ele>461</ele>
        <time>2018-10-20T18:22:48Z</time>
      </trkpt>
      <trkpt lat="45.39357" lon="5.66923">
        <ele>460</ele>
        <time>2018-10-20T18:22:50Z</time>
      </trkpt>
      <trkpt lat="45.39355" lon="5.66909">
        <ele>457</ele>
        <time>2018-10-20T18:22:54Z</time>
      </trkpt>
      <trkpt lat="45.39355" lon="5.66907">
        <ele>455</ele>
        <time>2018-10-20T18:22:58Z</time>
      </trkpt>
      <trkpt lat="45.39354" lon="5.669">
        <ele>454</ele>
        <time>2018-10-20T18:23:21Z</time>
      </trkpt>
      <trkpt lat="45.39351" lon="5.66897">
        <ele>454</ele>
        <time>2018-10-20T18:23:24Z</time>
      </trkpt>
      <trkpt lat="45.39344" lon="5.66891">
        <ele>454</ele>
        <time>2018-10-20T18:23:28Z</time>
      </trkpt>
      <trkpt lat="45.39342" lon="5.6689">
        <ele>454</ele>
        <time>2018-10-20T18:23:29Z</time>
      </trkpt>
      <trkpt lat="45.3934" lon="5.66889">
        <ele>454</ele>
        <time>2018-10-20T18:23:30Z</time>
      </trkpt>
      <trkpt lat="45.39338" lon="5.66888">
        <ele>454</ele>
        <time>2018-10-20T18:23:31Z</time>
      </trkpt>
      <trkpt lat="45.39336" lon="5.66886">
        <ele>454</ele>
        <time>2018-10-20T18:23:32Z</time>
      </trkpt>
      <trkpt lat="45.39333" lon="5.66885">
        <ele>454</ele>
        <time>2018-10-20T18:23:33Z</time>
      </trkpt>
      <trkpt lat="45.39305" lon="5.66859">
        <ele>454</ele>
        <time>2018-10-20T18:23:45Z</time>
      </trkpt>
      <trkpt lat="45.39284" lon="5.66831">
        <ele>455</ele>
        <time>2018-10-20T18:23:54Z</time>
      </trkpt>
      <trkpt lat="45.39248" lon="5.66792">
        <ele>454</ele>
        <time>2018-10-20T18:24:05Z</time>
      </trkpt>
      <trkpt lat="45.39217" lon="5.66784">
        <ele>457</ele>
        <time>2018-10-20T18:24:15Z</time>
      </trkpt>
      <trkpt lat="45.3918" lon="5.66766">
        <ele>459</ele>
        <time>2018-10-20T18:24:28Z</time>
      </trkpt>
      <trkpt lat="45.39153" lon="5.66748">
        <ele>459</ele>
        <time>2018-10-20T18:24:38Z</time>
      </trkpt>
      <trkpt lat="45.39129" lon="5.66729">
        <ele>461</ele>
        <time>2018-10-20T18:24:49Z</time>
      </trkpt>
      <trkpt lat="45.39117" lon="5.66719">
        <ele>461</ele>
        <time>2018-10-20T18:24:55Z</time>
      </trkpt>
      <trkpt lat="45.39094" lon="5.66702">
        <ele>463</ele>
        <time>2018-10-20T18:25:06Z</time>
      </trkpt>
      <trkpt lat="45.39068" lon="5.66686">
        <ele>464</ele>
        <time>2018-10-20T18:25:17Z</time>
      </trkpt>
      <trkpt lat="45.39041" lon="5.66671">
        <ele>466</ele>
        <time>2018-10-20T18:25:29Z</time>
      </trkpt>
      <trkpt lat="45.39013" lon="5.66659">
        <ele>467</ele>
        <time>2018-10-20T18:25:40Z</time>
      </trkpt>
      <trkpt lat="45.3898" lon="5.66628">
        <ele>465</ele>
        <time>2018-10-20T18:25:51Z</time>
      </trkpt>
      <trkpt lat="45.38957" lon="5.66617">
        <ele>465</ele>
        <time>2018-10-20T18:25:59Z</time>
      </trkpt>
      <trkpt lat="45.38951" lon="5.66612">
        <ele>465</ele>
        <time>2018-10-20T18:26:02Z</time>
      </trkpt>
      <trkpt lat="45.38943" lon="5.66609">
        <ele>466</ele>
        <time>2018-10-20T18:26:05Z</time>
      </trkpt>
      <trkpt lat="45.3892" lon="5.66601">
        <ele>467</ele>
        <time>2018-10-20T18:26:14Z</time>
      </trkpt>
      <trkpt lat="45.38911" lon="5.66593">
        <ele>467</ele>
        <time>2018-10-20T18:26:17Z</time>
      </trkpt>
      <trkpt lat="45.38897" lon="5.66579">
        <ele>466</ele>
        <time>2018-10-20T18:26:21Z</time>
      </trkpt>
      <trkpt lat="45.38891" lon="5.66572">
        <ele>466</ele>
        <time>2018-10-20T18:26:23Z</time>
      </trkpt>
      <trkpt lat="45.3887" lon="5.66556">
        <ele>462</ele>
        <time>2018-10-20T18:26:28Z</time>
      </trkpt>
      <trkpt lat="45.38853" lon="5.66536">
        <ele>461</ele>
        <time>2018-10-20T18:26:32Z</time>
      </trkpt>
      <trkpt lat="45.38816" lon="5.66512">
        <ele>461</ele>
        <time>2018-10-20T18:26:42Z</time>
      </trkpt>
      <trkpt lat="45.38781" lon="5.66497">
        <ele>462</ele>
        <time>2018-10-20T18:26:53Z</time>
      </trkpt>
      <trkpt lat="45.38748" lon="5.66493">
        <ele>465</ele>
        <time>2018-10-20T18:27:06Z</time>
      </trkpt>
      <trkpt lat="45.38746" lon="5.66492">
        <ele>465</ele>
        <time>2018-10-20T18:27:07Z</time>
      </trkpt>
      <trkpt lat="45.38725" lon="5.66482">
        <ele>466</ele>
        <time>2018-10-20T18:27:17Z</time>
      </trkpt>
      <trkpt lat="45.38703" lon="5.66491">
        <ele>468</ele>
        <time>2018-10-20T18:27:30Z</time>
      </trkpt>
      <trkpt lat="45.38687" lon="5.66496">
        <ele>469</ele>
        <time>2018-10-20T18:27:38Z</time>
      </trkpt>
      <trkpt lat="45.38677" lon="5.66491">
        <ele>470</ele>
        <time>2018-10-20T18:27:43Z</time>
      </trkpt>
      <trkpt lat="45.38641" lon="5.66471">
        <ele>470</ele>
        <time>2018-10-20T18:27:56Z</time>
      </trkpt>
      <trkpt lat="45.38626" lon="5.66456">
        <ele>474</ele>
        <time>2018-10-20T18:28:05Z</time>
      </trkpt>
      <trkpt lat="45.38603" lon="5.66438">
        <ele>476</ele>
        <time>2018-10-20T18:28:19Z</time>
      </trkpt>
      <trkpt lat="45.3858" lon="5.66433">
        <ele>479</ele>
        <time>2018-10-20T18:28:33Z</time>
      </trkpt>
      <trkpt lat="45.38548" lon="5.66418">
        <ele>480</ele>
        <time>2018-10-20T18:28:47Z</time>
      </trkpt>
      <trkpt lat="45.38513" lon="5.66395">
        <ele>480</ele>
        <time>2018-10-20T18:28:57Z</time>
      </trkpt>
      <trkpt lat="45.38499" lon="5.66385">
        <ele>479</ele>
        <time>2018-10-20T18:29:01Z</time>
      </trkpt>
      <trkpt lat="45.38487" lon="5.66373">
        <ele>478</ele>
        <time>2018-10-20T18:29:05Z</time>
      </trkpt>
      <trkpt lat="45.38482" lon="5.66362">
        <ele>477</ele>
        <time>2018-10-20T18:29:07Z</time>
      </trkpt>
      <trkpt lat="45.38482" lon="5.66332">
        <ele>473</ele>
        <time>2018-10-20T18:29:13Z</time>
      </trkpt>
      <trkpt lat="45.38484" lon="5.66329">
        <ele>472</ele>
        <time>2018-10-20T18:29:14Z</time>
      </trkpt>
      <trkpt lat="45.38484" lon="5.66326">
        <ele>471</ele>
        <time>2018-10-20T18:29:15Z</time>
      </trkpt>
      <trkpt lat="45.38484" lon="5.66323">
        <ele>468</ele>
        <time>2018-10-20T18:29:24Z</time>
      </trkpt>
      <trkpt lat="45.38481" lon="5.66318">
        <ele>462</ele>
        <time>2018-10-20T18:30:22Z</time>
      </trkpt>
      <trkpt lat="45.38481" lon="5.66317">
        <ele>465</ele>
        <time>2018-10-20T18:30:23Z</time>
      </trkpt>
      <trkpt lat="45.38482" lon="5.66316">
        <ele>467</ele>
        <time>2018-10-20T18:30:26Z</time>
      </trkpt>
      <trkpt lat="45.38483" lon="5.66315">
        <ele>467</ele>
        <time>2018-10-20T18:30:27Z</time>
      </trkpt>
      <trkpt lat="45.38485" lon="5.66314">
        <ele>468</ele>
        <time>2018-10-20T18:30:28Z</time>
      </trkpt>
      <trkpt lat="45.38487" lon="5.66311">
        <ele>468</ele>
        <time>2018-10-20T18:30:29Z</time>
      </trkpt>
      <trkpt lat="45.3849" lon="5.66308">
        <ele>468</ele>
        <time>2018-10-20T18:30:30Z</time>
      </trkpt>
      <trkpt lat="45.38493" lon="5.66304">
        <ele>467</ele>
        <time>2018-10-20T18:30:31Z</time>
      </trkpt>
      <trkpt lat="45.38497" lon="5.663">
        <ele>467</ele>
        <time>2018-10-20T18:30:32Z</time>
      </trkpt>
      <trkpt lat="45.38505" lon="5.66289">
        <ele>467</ele>
        <time>2018-10-20T18:30:34Z</time>
      </trkpt>
      <trkpt lat="45.38527" lon="5.66258">
        <ele>463</ele>
        <time>2018-10-20T18:30:38Z</time>
      </trkpt>
      <trkpt lat="45.38546" lon="5.66226">
        <ele>460</ele>
        <time>2018-10-20T18:30:42Z</time>
      </trkpt>
      <trkpt lat="45.38549" lon="5.66218">
        <ele>459</ele>
        <time>2018-10-20T18:30:43Z</time>
      </trkpt>
      <trkpt lat="45.38551" lon="5.66209">
        <ele>458</ele>
        <time>2018-10-20T18:30:44Z</time>
      </trkpt>
      <trkpt lat="45.38551" lon="5.66199">
        <ele>458</ele>
        <time>2018-10-20T18:30:45Z</time>
      </trkpt>
      <trkpt lat="45.38551" lon="5.66189">
        <ele>457</ele>
        <time>2018-10-20T18:30:46Z</time>
      </trkpt>
      <trkpt lat="45.38551" lon="5.66148">
        <ele>455</ele>
        <time>2018-10-20T18:30:50Z</time>
      </trkpt>
      <trkpt lat="45.38553" lon="5.66138">
        <ele>454</ele>
        <time>2018-10-20T18:30:51Z</time>
      </trkpt>
      <trkpt lat="45.38557" lon="5.6613">
        <ele>453</ele>
        <time>2018-10-20T18:30:52Z</time>
      </trkpt>
      <trkpt lat="45.38561" lon="5.66121">
        <ele>453</ele>
        <time>2018-10-20T18:30:53Z</time>
      </trkpt>
      <trkpt lat="45.38566" lon="5.66113">
        <ele>452</ele>
        <time>2018-10-20T18:30:54Z</time>
      </trkpt>
      <trkpt lat="45.38575" lon="5.66097">
        <ele>451</ele>
        <time>2018-10-20T18:30:56Z</time>
      </trkpt>
      <trkpt lat="45.38578" lon="5.66089">
        <ele>450</ele>
        <time>2018-10-20T18:30:57Z</time>
      </trkpt>
      <trkpt lat="45.38579" lon="5.66081">
        <ele>450</ele>
        <time>2018-10-20T18:30:58Z</time>
      </trkpt>
      <trkpt lat="45.3858" lon="5.66073">
        <ele>449</ele>
        <time>2018-10-20T18:30:59Z</time>
      </trkpt>
      <trkpt lat="45.3858" lon="5.66066">
        <ele>449</ele>
        <time>2018-10-20T18:31:00Z</time>
      </trkpt>
      <trkpt lat="45.38579" lon="5.66059">
        <ele>448</ele>
        <time>2018-10-20T18:31:01Z</time>
      </trkpt>
      <trkpt lat="45.38576" lon="5.66053">
        <ele>448</ele>
        <time>2018-10-20T18:31:02Z</time>
      </trkpt>
      <trkpt lat="45.38573" lon="5.66046">
        <ele>448</ele>
        <time>2018-10-20T18:31:03Z</time>
      </trkpt>
      <trkpt lat="45.38536" lon="5.65943">
        <ele>447</ele>
        <time>2018-10-20T18:31:18Z</time>
      </trkpt>
      <trkpt lat="45.385" lon="5.65818">
        <ele>446</ele>
        <time>2018-10-20T18:31:36Z</time>
      </trkpt>
      <trkpt lat="45.38492" lon="5.65801">
        <ele>447</ele>
        <time>2018-10-20T18:31:39Z</time>
      </trkpt>
      <trkpt lat="45.38484" lon="5.65789">
        <ele>441.702515</ele>
      </trkpt>
      <trkpt lat="45.38456" lon="5.65741">
        <ele>447</ele>
        <time>2018-10-20T18:31:51Z</time>
      </trkpt>
      <trkpt lat="45.3842" lon="5.65672">
        <ele>447</ele>
        <time>2018-10-20T18:34:58Z</time>
      </trkpt>
      <trkpt lat="45.38375" lon="5.6559">
        <ele>447</ele>
        <time>2018-10-20T18:35:17Z</time>
      </trkpt>
      <trkpt lat="45.38366" lon="5.65577">
        <ele>446</ele>
        <time>2018-10-20T18:35:21Z</time>
      </trkpt>
      <trkpt lat="45.38307" lon="5.65293">
        <ele>447</ele>
        <time>2018-10-20T18:36:50Z</time>
      </trkpt>
      <trkpt lat="45.37942" lon="5.64856">
        <ele>447</ele>
        <time>2018-10-20T18:37:12Z</time>
      </trkpt>
      <trkpt lat="45.3796" lon="5.64617">
        <ele>446</ele>
      </trkpt>
      <trkpt lat="45.37917" lon="5.64583">
        <ele>447.64212</ele>
      </trkpt>
      <trkpt lat="45.37884" lon="5.64392">
        <ele>445.99292</ele>
      </trkpt>
      <trkpt lat="45.37907" lon="5.64288">
        <ele>445.082367</ele>
      </trkpt>
      <trkpt lat="45.38009" lon="5.64192">
        <ele>443</ele>
      </trkpt>
      <trkpt lat="45.3808" lon="5.64235">
        <ele>442.631134</ele>
      </trkpt>
      <trkpt lat="45.38154" lon="5.64303">
        <ele>442</ele>
      </trkpt>
      <trkpt lat="45.38302" lon="5.64519">
        <ele>443</ele>
        <time>2018-10-20T18:42:30Z</time>
      </trkpt>
      <trkpt lat="45.38322" lon="5.64526">
        <ele>443</ele>
        <time>2018-10-20T18:42:34Z</time>
      </trkpt>
      <trkpt lat="45.3839" lon="5.64544">
        <ele>436</ele>
        <time>2018-10-20T18:42:50Z</time>
      </trkpt>
      <trkpt lat="45.3851" lon="5.64556">
        <ele>439</ele>
        <time>2018-10-20T18:43:05Z</time>
      </trkpt>
      <trkpt lat="45.38516" lon="5.6456">
        <ele>438</ele>
        <time>2018-10-20T18:43:06Z</time>
      </trkpt>
      <trkpt lat="45.38523" lon="5.64566">
        <ele>438</ele>
        <time>2018-10-20T18:43:07Z</time>
      </trkpt>
      <trkpt lat="45.38528" lon="5.64573">
        <ele>438</ele>
        <time>2018-10-20T18:43:08Z</time>
      </trkpt>
      <trkpt lat="45.38533" lon="5.64582">
        <ele>437</ele>
        <time>2018-10-20T18:43:09Z</time>
      </trkpt>
      <trkpt lat="45.38538" lon="5.64591">
        <ele>437</ele>
        <time>2018-10-20T18:43:10Z</time>
      </trkpt>
      <trkpt lat="45.38542" lon="5.646">
        <ele>436</ele>
        <time>2018-10-20T18:43:11Z</time>
      </trkpt>
      <trkpt lat="45.3859" lon="5.64729">
        <ele>435</ele>
        <time>2018-10-20T18:43:27Z</time>
      </trkpt>
      <trkpt lat="45.38593" lon="5.64741">
        <ele>436</ele>
        <time>2018-10-20T18:43:29Z</time>
      </trkpt>
      <trkpt lat="45.38592" lon="5.64747">
        <ele>436</ele>
        <time>2018-10-20T18:43:30Z</time>
      </trkpt>
      <trkpt lat="45.38578" lon="5.64772">
        <ele>435</ele>
        <time>2018-10-20T18:43:35Z</time>
      </trkpt>
      <trkpt lat="45.38558" lon="5.64793">
        <ele>435</ele>
        <time>2018-10-20T18:43:42Z</time>
      </trkpt>
      <trkpt lat="45.38562" lon="5.6481">
        <ele>435</ele>
        <time>2018-10-20T18:43:47Z</time>
      </trkpt>
      <trkpt lat="45.3858" lon="5.64868">
        <ele>435</ele>
        <time>2018-10-20T18:44:00Z</time>
      </trkpt>
      <trkpt lat="45.38592" lon="5.64923">
        <ele>435</ele>
        <time>2018-10-20T18:44:11Z</time>
      </trkpt>
      <trkpt lat="45.38595" lon="5.64941">
        <ele>435</ele>
        <time>2018-10-20T18:44:15Z</time>
      </trkpt>
      <trkpt lat="45.38598" lon="5.64978">
        <ele>435</ele>
        <time>2018-10-20T18:44:24Z</time>
      </trkpt>
      <trkpt lat="45.38601" lon="5.64992">
        <ele>436</ele>
        <time>2018-10-20T18:44:28Z</time>
      </trkpt>
      <trkpt lat="45.38606" lon="5.65032">
        <ele>437</ele>
        <time>2018-10-20T18:44:40Z</time>
      </trkpt>
      <trkpt lat="45.38606" lon="5.65061">
        <ele>437</ele>
        <time>2018-10-20T18:44:50Z</time>
      </trkpt>
      <trkpt lat="45.38611" lon="5.65065">
        <ele>437</ele>
        <time>2018-10-20T18:44:53Z</time>
      </trkpt>
      <trkpt lat="45.38613" lon="5.65104">
        <ele>437</ele>
        <time>2018-10-20T18:45:06Z</time>
      </trkpt>
      <trkpt lat="45.38613" lon="5.65108">
        <ele>437</ele>
        <time>2018-10-20T18:45:07Z</time>
      </trkpt>
      <trkpt lat="45.38623" lon="5.65143">
        <ele>437</ele>
        <time>2018-10-20T18:45:16Z</time>
      </trkpt>
      <trkpt lat="45.3864" lon="5.6515">
        <ele>438</ele>
        <time>2018-10-20T18:45:23Z</time>
      </trkpt>
      <trkpt lat="45.38685" lon="5.65139">
        <ele>440</ele>
        <time>2018-10-20T18:45:42Z</time>
      </trkpt>
      <trkpt lat="45.38746" lon="5.6512">
        <ele>442</ele>
        <time>2018-10-20T18:46:05Z</time>
      </trkpt>
      <trkpt lat="45.38804" lon="5.65101">
        <ele>445</ele>
        <time>2018-10-20T18:46:29Z</time>
      </trkpt>
      <trkpt lat="45.3886" lon="5.65085">
        <ele>447</ele>
        <time>2018-10-20T18:46:50Z</time>
      </trkpt>
      <trkpt lat="45.38917" lon="5.65069">
        <ele>449</ele>
        <time>2018-10-20T18:47:10Z</time>
      </trkpt>
      <trkpt lat="45.38974" lon="5.65053">
        <ele>450</ele>
        <time>2018-10-20T18:47:30Z</time>
      </trkpt>
      <trkpt lat="45.39032" lon="5.65035">
        <ele>453</ele>
        <time>2018-10-20T18:47:50Z</time>
      </trkpt>
      <trkpt lat="45.39055" lon="5.65029">
        <ele>453</ele>
        <time>2018-10-20T18:47:58Z</time>
      </trkpt>
      <trkpt lat="45.39065" lon="5.6507">
        <ele>454</ele>
        <time>2018-10-20T18:48:08Z</time>
      </trkpt>
      <trkpt lat="45.39067" lon="5.6509">
        <ele>453</ele>
        <time>2018-10-20T18:48:12Z</time>
      </trkpt>
      <trkpt lat="45.39081" lon="5.65086">
        <ele>453</ele>
        <time>2018-10-20T18:48:18Z</time>
      </trkpt>
      <trkpt lat="45.39112" lon="5.6505">
        <ele>455</ele>
        <time>2018-10-20T18:48:33Z</time>
      </trkpt>
      <trkpt lat="45.39145" lon="5.65023">
        <ele>457</ele>
        <time>2018-10-20T18:48:48Z</time>
      </trkpt>
      <trkpt lat="45.39197" lon="5.64998">
        <ele>458</ele>
        <time>2018-10-20T18:49:03Z</time>
      </trkpt>
      <trkpt lat="45.39216" lon="5.64993">
        <ele>458</ele>
        <time>2018-10-20T18:49:15Z</time>
      </trkpt>
      <trkpt lat="45.39218" lon="5.64993">
        <ele>458</ele>
        <time>2018-10-20T18:49:21Z</time>
      </trkpt>
      <trkpt lat="45.3922" lon="5.64993">
        <ele>458</ele>
        <time>2018-10-20T18:49:22Z</time>
      </trkpt>
      <trkpt lat="45.39222" lon="5.64992">
        <ele>458</ele>
        <time>2018-10-20T18:49:23Z</time>
      </trkpt>
      <trkpt lat="45.39225" lon="5.64992">
        <ele>458</ele>
        <time>2018-10-20T18:49:24Z</time>
      </trkpt>
      <trkpt lat="45.39228" lon="5.64991">
        <ele>458</ele>
        <time>2018-10-20T18:49:25Z</time>
      </trkpt>
      <trkpt lat="45.39231" lon="5.6499">
        <ele>458</ele>
        <time>2018-10-20T18:49:26Z</time>
      </trkpt>
      <trkpt lat="45.39234" lon="5.6499">
        <ele>458</ele>
        <time>2018-10-20T18:49:27Z</time>
      </trkpt>
      <trkpt lat="45.39296" lon="5.64978">
        <ele>460</ele>
        <time>2018-10-20T18:49:46Z</time>
      </trkpt>
      <trkpt lat="45.39363" lon="5.64963">
        <ele>462</ele>
        <time>2018-10-20T18:50:07Z</time>
      </trkpt>
      <trkpt lat="45.39417" lon="5.64942">
        <ele>464</ele>
        <time>2018-10-20T18:50:26Z</time>
      </trkpt>
      <trkpt lat="45.39441" lon="5.6493">
        <ele>467</ele>
        <time>2018-10-20T18:50:40Z</time>
      </trkpt>
      <trkpt lat="45.39461" lon="5.64935">
        <ele>471</ele>
        <time>2018-10-20T18:50:54Z</time>
      </trkpt>
      <trkpt lat="45.39485" lon="5.6494">
        <ele>474</ele>
        <time>2018-10-20T18:51:10Z</time>
      </trkpt>
      <trkpt lat="45.39503" lon="5.64942">
        <ele>477</ele>
        <time>2018-10-20T18:51:23Z</time>
      </trkpt>
      <trkpt lat="45.39521" lon="5.64943">
        <ele>480</ele>
        <time>2018-10-20T18:51:36Z</time>
      </trkpt>
      <trkpt lat="45.39549" lon="5.64947">
        <ele>483</ele>
        <time>2018-10-20T18:51:54Z</time>
      </trkpt>
      <trkpt lat="45.39582" lon="5.64946">
        <ele>485</ele>
        <time>2018-10-20T18:52:10Z</time>
      </trkpt>
      <trkpt lat="45.39599" lon="5.64966">
        <ele>487</ele>
        <time>2018-10-20T18:52:22Z</time>
      </trkpt>
      <trkpt lat="45.39609" lon="5.64998">
        <ele>490</ele>
        <time>2018-10-20T18:52:38Z</time>
      </trkpt>
      <trkpt lat="45.3963" lon="5.65">
        <ele>493</ele>
        <time>2018-10-20T18:52:53Z</time>
      </trkpt>
      <trkpt lat="45.39651" lon="5.64996">
        <ele>496</ele>
        <time>2018-10-20T18:53:08Z</time>
      </trkpt>
      <trkpt lat="45.39669" lon="5.64997">
        <ele>499</ele>
        <time>2018-10-20T18:53:21Z</time>
      </trkpt>
      <trkpt lat="45.39689" lon="5.65">
        <ele>502</ele>
        <time>2018-10-20T18:53:36Z</time>
      </trkpt>
      <trkpt lat="45.39709" lon="5.65004">
        <ele>505</ele>
        <time>2018-10-20T18:53:50Z</time>
      </trkpt>
      <trkpt lat="45.39717" lon="5.65006">
        <ele>506</ele>
        <time>2018-10-20T18:53:57Z</time>
      </trkpt>
      <trkpt lat="45.3974" lon="5.65021">
        <ele>510</ele>
        <time>2018-10-20T18:54:16Z</time>
      </trkpt>
      <trkpt lat="45.39762" lon="5.65025">
        <ele>513</ele>
        <time>2018-10-20T18:54:32Z</time>
      </trkpt>
      <trkpt lat="45.39795" lon="5.6503">
        <ele>516</ele>
        <time>2018-10-20T18:54:53Z</time>
      </trkpt>
      <trkpt lat="45.39817" lon="5.65008">
        <ele>519</ele>
        <time>2018-10-20T18:55:10Z</time>
      </trkpt>
      <trkpt lat="45.39829" lon="5.64973">
        <ele>522</ele>
        <time>2018-10-20T18:55:27Z</time>
      </trkpt>
      <trkpt lat="45.39839" lon="5.64952">
        <ele>525</ele>
        <time>2018-10-20T18:55:40Z</time>
      </trkpt>
      <trkpt lat="45.39846" lon="5.6494">
        <ele>527</ele>
        <time>2018-10-20T18:55:48Z</time>
      </trkpt>
      <trkpt lat="45.39851" lon="5.64939">
        <ele>528</ele>
        <time>2018-10-20T18:55:51Z</time>
      </trkpt>
      <trkpt lat="45.39853" lon="5.6494">
        <ele>528</ele>
        <time>2018-10-20T18:55:52Z</time>
      </trkpt>
      <trkpt lat="45.39855" lon="5.6494">
        <ele>528</ele>
        <time>2018-10-20T18:55:53Z</time>
      </trkpt>
      <trkpt lat="45.39898" lon="5.64955">
        <ele>529</ele>
        <time>2018-10-20T18:56:09Z</time>
      </trkpt>
      <trkpt lat="45.39944" lon="5.64971">
        <ele>530</ele>
        <time>2018-10-20T18:56:27Z</time>
      </trkpt>
      <trkpt lat="45.3998" lon="5.64985">
        <ele>533</ele>
        <time>2018-10-20T18:56:43Z</time>
      </trkpt>
      <trkpt lat="45.4001" lon="5.65002">
        <ele>536</ele>
        <time>2018-10-20T18:56:59Z</time>
      </trkpt>
      <trkpt lat="45.40042" lon="5.6502">
        <ele>540</ele>
        <time>2018-10-20T18:57:16Z</time>
      </trkpt>
      <trkpt lat="45.40071" lon="5.65033">
        <ele>543</ele>
        <time>2018-10-20T18:57:32Z</time>
      </trkpt>
      <trkpt lat="45.401" lon="5.65041">
        <ele>545</ele>
        <time>2018-10-20T18:57:48Z</time>
      </trkpt>
      <trkpt lat="45.40139" lon="5.65049">
        <ele>548</ele>
        <time>2018-10-20T18:58:07Z</time>
      </trkpt>
      <trkpt lat="45.40171" lon="5.6506">
        <ele>549</ele>
        <time>2018-10-20T18:58:22Z</time>
      </trkpt>
      <trkpt lat="45.40219" lon="5.65079">
        <ele>549</ele>
        <time>2018-10-20T18:58:38Z</time>
      </trkpt>
      <trkpt lat="45.40278" lon="5.65111">
        <ele>549</ele>
        <time>2018-10-20T18:58:56Z</time>
      </trkpt>
      <trkpt lat="45.40324" lon="5.65159">
        <ele>549</ele>
        <time>2018-10-20T18:59:14Z</time>
      </trkpt>
      <trkpt lat="45.40335" lon="5.65173">
        <ele>549</ele>
        <time>2018-10-20T18:59:27Z</time>
      </trkpt>
      <trkpt lat="45.40337" lon="5.65176">
        <ele>549</ele>
        <time>2018-10-20T18:59:56Z</time>
      </trkpt>
      <trkpt lat="45.40337" lon="5.65173">
        <ele>549</ele>
        <time>2018-10-20T19:00:37Z</time>
      </trkpt>
      <trkpt lat="45.40336" lon="5.65174">
        <ele>549</ele>
        <time>2018-10-20T19:01:35Z</time>
      </trkpt>
      <trkpt lat="45.40339" lon="5.65173">
        <ele>549</ele>
        <time>2018-10-20T19:01:53Z</time>
      </trkpt>
      <trkpt lat="45.4034" lon="5.65174">
        <ele>549</ele>
        <time>2018-10-20T19:01:54Z</time>
      </trkpt>
      <trkpt lat="45.40342" lon="5.65176">
        <ele>549</ele>
        <time>2018-10-20T19:01:55Z</time>
      </trkpt>
      <trkpt lat="45.40343" lon="5.65179">
        <ele>549</ele>
        <time>2018-10-20T19:01:56Z</time>
      </trkpt>
      <trkpt lat="45.40346" lon="5.65182">
        <ele>549</ele>
        <time>2018-10-20T19:01:57Z</time>
      </trkpt>
      <trkpt lat="45.40348" lon="5.65185">
        <ele>549</ele>
        <time>2018-10-20T19:01:58Z</time>
      </trkpt>
      <trkpt lat="45.40351" lon="5.65189">
        <ele>548</ele>
        <time>2018-10-20T19:01:59Z</time>
      </trkpt>
      <trkpt lat="45.40406" lon="5.6526">
        <ele>546</ele>
        <time>2018-10-20T19:02:15Z</time>
      </trkpt>
      <trkpt lat="45.40457" lon="5.65316">
        <ele>547</ele>
        <time>2018-10-20T19:02:31Z</time>
      </trkpt>
      <trkpt lat="45.40497" lon="5.65376">
        <ele>547</ele>
        <time>2018-10-20T19:02:46Z</time>
      </trkpt>
      <trkpt lat="45.40497" lon="5.65382">
        <ele>547</ele>
        <time>2018-10-20T19:02:47Z</time>
      </trkpt>
      <trkpt lat="45.40494" lon="5.65389">
        <ele>547</ele>
        <time>2018-10-20T19:02:48Z</time>
      </trkpt>
      <trkpt lat="45.40489" lon="5.65398">
        <ele>547</ele>
        <time>2018-10-20T19:02:49Z</time>
      </trkpt>
      <trkpt lat="45.40484" lon="5.65407">
        <ele>547</ele>
        <time>2018-10-20T19:02:50Z</time>
      </trkpt>
      <trkpt lat="45.40459" lon="5.65447">
        <ele>543</ele>
        <time>2018-10-20T19:02:54Z</time>
      </trkpt>
      <trkpt lat="45.40453" lon="5.65457">
        <ele>542</ele>
        <time>2018-10-20T19:02:55Z</time>
      </trkpt>
      <trkpt lat="45.40448" lon="5.65468">
        <ele>542</ele>
        <time>2018-10-20T19:02:56Z</time>
      </trkpt>
      <trkpt lat="45.40445" lon="5.65479">
        <ele>541</ele>
        <time>2018-10-20T19:02:57Z</time>
      </trkpt>
      <trkpt lat="45.4044" lon="5.655">
        <ele>540</ele>
        <time>2018-10-20T19:02:59Z</time>
      </trkpt>
      <trkpt lat="45.40429" lon="5.65576">
        <ele>540</ele>
        <time>2018-10-20T19:03:09Z</time>
      </trkpt>
      <trkpt lat="45.40432" lon="5.65607">
        <ele>543</ele>
        <time>2018-10-20T19:03:20Z</time>
      </trkpt>
      <trkpt lat="45.40434" lon="5.65613">
        <ele>544</ele>
        <time>2018-10-20T19:03:23Z</time>
      </trkpt>
      <trkpt lat="45.40454" lon="5.65627">
        <ele>546</ele>
        <time>2018-10-20T19:03:37Z</time>
      </trkpt>
      <trkpt lat="45.40477" lon="5.65651">
        <ele>549</ele>
        <time>2018-10-20T19:03:55Z</time>
      </trkpt>
      <trkpt lat="45.40494" lon="5.65678">
        <ele>551</ele>
        <time>2018-10-20T19:04:11Z</time>
      </trkpt>
      <trkpt lat="45.40509" lon="5.65705">
        <ele>555</ele>
        <time>2018-10-20T19:04:29Z</time>
      </trkpt>
      <trkpt lat="45.40522" lon="5.65721">
        <ele>558</ele>
        <time>2018-10-20T19:04:44Z</time>
      </trkpt>
      <trkpt lat="45.40535" lon="5.65733">
        <ele>561</ele>
        <time>2018-10-20T19:04:57Z</time>
      </trkpt>
      <trkpt lat="45.40545" lon="5.65738">
        <ele>563</ele>
        <time>2018-10-20T19:05:08Z</time>
      </trkpt>
      <trkpt lat="45.40551" lon="5.6574">
        <ele>564</ele>
        <time>2018-10-20T19:05:12Z</time>
      </trkpt>
      <trkpt lat="45.40556" lon="5.65744">
        <ele>565</ele>
        <time>2018-10-20T19:05:17Z</time>
      </trkpt>
      <trkpt lat="45.40557" lon="5.65755">
        <ele>566</ele>
        <time>2018-10-20T19:05:23Z</time>
      </trkpt>
      <trkpt lat="45.4056" lon="5.65782">
        <ele>570</ele>
        <time>2018-10-20T19:05:39Z</time>
      </trkpt>
      <trkpt lat="45.40562" lon="5.65789">
        <ele>571</ele>
        <time>2018-10-20T19:05:44Z</time>
      </trkpt>
      <trkpt lat="45.40566" lon="5.65794">
        <ele>571</ele>
        <time>2018-10-20T19:05:49Z</time>
      </trkpt>
      <trkpt lat="45.40563" lon="5.65823">
        <ele>574</ele>
        <time>2018-10-20T19:06:04Z</time>
      </trkpt>
      <trkpt lat="45.40519" lon="5.65836">
        <ele>574</ele>
        <time>2018-10-20T19:06:17Z</time>
      </trkpt>
      <trkpt lat="45.40486" lon="5.65837">
        <ele>575</ele>
        <time>2018-10-20T19:06:32Z</time>
      </trkpt>
      <trkpt lat="45.4044" lon="5.65835">
        <ele>576</ele>
        <time>2018-10-20T19:06:49Z</time>
      </trkpt>
      <trkpt lat="45.40407" lon="5.65841">
        <ele>579</ele>
        <time>2018-10-20T19:07:05Z</time>
      </trkpt>
      <trkpt lat="45.40389" lon="5.65863">
        <ele>580</ele>
        <time>2018-10-20T19:07:18Z</time>
      </trkpt>
      <trkpt lat="45.40383" lon="5.65869">
        <ele>582</ele>
        <time>2018-10-20T19:07:32Z</time>
      </trkpt>
      <trkpt lat="45.40381" lon="5.65873">
        <ele>582</ele>
        <time>2018-10-20T19:08:08Z</time>
      </trkpt>
      <trkpt lat="45.40376" lon="5.65879">
        <ele>582</ele>
        <time>2018-10-20T19:08:33Z</time>
      </trkpt>
      <trkpt lat="45.40374" lon="5.65877">
        <ele>582</ele>
        <time>2018-10-20T19:09:11Z</time>
      </trkpt>
      <trkpt lat="45.40362" lon="5.6589">
        <ele>582</ele>
        <time>2018-10-20T19:09:33Z</time>
      </trkpt>
      <trkpt lat="45.40339" lon="5.65895">
        <ele>583</ele>
        <time>2018-10-20T19:09:45Z</time>
      </trkpt>
      <trkpt lat="45.40321" lon="5.65891">
        <ele>586</ele>
        <time>2018-10-20T19:09:58Z</time>
      </trkpt>
      <trkpt lat="45.40296" lon="5.65898">
        <ele>587</ele>
        <time>2018-10-20T19:10:10Z</time>
      </trkpt>
      <trkpt lat="45.40287" lon="5.65905">
        <ele>587</ele>
        <time>2018-10-20T19:10:16Z</time>
      </trkpt>
      <trkpt lat="45.40277" lon="5.65912">
        <ele>587</ele>
        <time>2018-10-20T19:10:20Z</time>
      </trkpt>
      <trkpt lat="45.40236" lon="5.65932">
        <ele>587</ele>
        <time>2018-10-20T19:10:31Z</time>
      </trkpt>
      <trkpt lat="45.40219" lon="5.65939">
        <ele>587</ele>
        <time>2018-10-20T19:10:36Z</time>
      </trkpt>
      <trkpt lat="45.4022" lon="5.65956">
        <ele>587</ele>
        <time>2018-10-20T19:10:42Z</time>
      </trkpt>
      <trkpt lat="45.40237" lon="5.65973">
        <ele>590</ele>
        <time>2018-10-20T19:10:59Z</time>
      </trkpt>
      <trkpt lat="45.40251" lon="5.65978">
        <ele>592</ele>
        <time>2018-10-20T19:11:13Z</time>
      </trkpt>
      <trkpt lat="45.40269" lon="5.6598">
        <ele>595</ele>
        <time>2018-10-20T19:11:28Z</time>
      </trkpt>
      <trkpt lat="45.40283" lon="5.65984">
        <ele>598</ele>
        <time>2018-10-20T19:11:40Z</time>
      </trkpt>
      <trkpt lat="45.40304" lon="5.65993">
        <ele>600</ele>
        <time>2018-10-20T19:11:55Z</time>
      </trkpt>
      <trkpt lat="45.40322" lon="5.66003">
        <ele>603</ele>
        <time>2018-10-20T19:12:08Z</time>
      </trkpt>
      <trkpt lat="45.40326" lon="5.66005">
        <ele>603</ele>
        <time>2018-10-20T19:12:10Z</time>
      </trkpt>
      <trkpt lat="45.40351" lon="5.66025">
        <ele>605</ele>
        <time>2018-10-20T19:12:27Z</time>
      </trkpt>
      <trkpt lat="45.40371" lon="5.66045">
        <ele>607</ele>
        <time>2018-10-20T19:12:42Z</time>
      </trkpt>
      <trkpt lat="45.40387" lon="5.66056">
        <ele>610</ele>
        <time>2018-10-20T19:12:55Z</time>
      </trkpt>
      <trkpt lat="45.40407" lon="5.6607">
        <ele>612</ele>
        <time>2018-10-20T19:13:10Z</time>
      </trkpt>
      <trkpt lat="45.40424" lon="5.66078">
        <ele>615</ele>
        <time>2018-10-20T19:13:24Z</time>
      </trkpt>
      <trkpt lat="45.40438" lon="5.66079">
        <ele>618</ele>
        <time>2018-10-20T19:13:37Z</time>
      </trkpt>
      <trkpt lat="45.40453" lon="5.66084">
        <ele>621</ele>
        <time>2018-10-20T19:13:50Z</time>
      </trkpt>
      <trkpt lat="45.40465" lon="5.66088">
        <ele>624</ele>
        <time>2018-10-20T19:14:02Z</time>
      </trkpt>
      <trkpt lat="45.40477" lon="5.66095">
        <ele>627</ele>
        <time>2018-10-20T19:14:15Z</time>
      </trkpt>
      <trkpt lat="45.40492" lon="5.66106">
        <ele>630</ele>
        <time>2018-10-20T19:14:30Z</time>
      </trkpt>
      <trkpt lat="45.40498" lon="5.66111">
        <ele>631</ele>
        <time>2018-10-20T19:14:36Z</time>
      </trkpt>
      <trkpt lat="45.40505" lon="5.66117">
        <ele>632</ele>
        <time>2018-10-20T19:14:43Z</time>
      </trkpt>
      <trkpt lat="45.4052" lon="5.66129">
        <ele>634</ele>
        <time>2018-10-20T19:14:54Z</time>
      </trkpt>
      <trkpt lat="45.40546" lon="5.66135">
        <ele>634</ele>
        <time>2018-10-20T19:15:05Z</time>
      </trkpt>
      <trkpt lat="45.40548" lon="5.66137">
        <ele>634</ele>
        <time>2018-10-20T19:15:06Z</time>
      </trkpt>
      <trkpt lat="45.40558" lon="5.66145">
        <ele>634</ele>
        <time>2018-10-20T19:15:11Z</time>
      </trkpt>
      <trkpt lat="45.40572" lon="5.66155">
        <ele>635</ele>
        <time>2018-10-20T19:15:19Z</time>
      </trkpt>
      <trkpt lat="45.40588" lon="5.66165">
        <ele>636</ele>
        <time>2018-10-20T19:15:27Z</time>
      </trkpt>
      <trkpt lat="45.40613" lon="5.66183">
        <ele>638</ele>
        <time>2018-10-20T19:15:40Z</time>
      </trkpt>
      <trkpt lat="45.40636" lon="5.66194">
        <ele>640</ele>
        <time>2018-10-20T19:15:52Z</time>
      </trkpt>
      <trkpt lat="45.40659" lon="5.66197">
        <ele>642</ele>
        <time>2018-10-20T19:16:05Z</time>
      </trkpt>
      <trkpt lat="45.40665" lon="5.662">
        <ele>643</ele>
        <time>2018-10-20T19:16:09Z</time>
      </trkpt>
      <trkpt lat="45.40682" lon="5.66204">
        <ele>644</ele>
        <time>2018-10-20T19:16:20Z</time>
      </trkpt>
      <trkpt lat="45.40697" lon="5.6621">
        <ele>646</ele>
        <time>2018-10-20T19:16:34Z</time>
      </trkpt>
      <trkpt lat="45.40701" lon="5.66212">
        <ele>646</ele>
        <time>2018-10-20T19:16:56Z</time>
      </trkpt>
      <trkpt lat="45.40719" lon="5.66226">
        <ele>649</ele>
        <time>2018-10-20T19:17:11Z</time>
      </trkpt>
      <trkpt lat="45.40724" lon="5.6623">
        <ele>651</ele>
        <time>2018-10-20T19:17:16Z</time>
      </trkpt>
      <trkpt lat="45.40733" lon="5.66239">
        <ele>654</ele>
        <time>2018-10-20T19:17:26Z</time>
      </trkpt>
      <trkpt lat="45.40744" lon="5.66246">
        <ele>657</ele>
        <time>2018-10-20T19:17:38Z</time>
      </trkpt>
      <trkpt lat="45.40764" lon="5.66259">
        <ele>659</ele>
        <time>2018-10-20T19:17:52Z</time>
      </trkpt>
      <trkpt lat="45.40767" lon="5.66259">
        <ele>659</ele>
        <time>2018-10-20T19:17:54Z</time>
      </trkpt>
      <trkpt lat="45.40793" lon="5.6627">
        <ele>661</ele>
        <time>2018-10-20T19:18:09Z</time>
      </trkpt>
      <trkpt lat="45.40813" lon="5.66275">
        <ele>662</ele>
        <time>2018-10-20T19:18:22Z</time>
      </trkpt>
      <trkpt lat="45.40833" lon="5.66276">
        <ele>665</ele>
        <time>2018-10-20T19:18:37Z</time>
      </trkpt>
      <trkpt lat="45.40848" lon="5.66281">
        <ele>668</ele>
        <time>2018-10-20T19:18:51Z</time>
      </trkpt>
      <trkpt lat="45.40866" lon="5.66288">
        <ele>671</ele>
        <time>2018-10-20T19:19:07Z</time>
      </trkpt>
      <trkpt lat="45.40881" lon="5.66295">
        <ele>674</ele>
        <time>2018-10-20T19:19:21Z</time>
      </trkpt>
      <trkpt lat="45.40894" lon="5.66293">
        <ele>677</ele>
        <time>2018-10-20T19:19:34Z</time>
      </trkpt>
      <trkpt lat="45.40907" lon="5.66294">
        <ele>680</ele>
        <time>2018-10-20T19:19:48Z</time>
      </trkpt>
      <trkpt lat="45.40922" lon="5.66296">
        <ele>683</ele>
        <time>2018-10-20T19:20:01Z</time>
      </trkpt>
      <trkpt lat="45.4094" lon="5.66292">
        <ele>685</ele>
        <time>2018-10-20T19:20:18Z</time>
      </trkpt>
      <trkpt lat="45.40954" lon="5.66278">
        <ele>688</ele>
        <time>2018-10-20T19:20:32Z</time>
      </trkpt>
      <trkpt lat="45.40957" lon="5.66276">
        <ele>688</ele>
        <time>2018-10-20T19:20:34Z</time>
      </trkpt>
      <trkpt lat="45.40964" lon="5.66272">
        <ele>689</ele>
        <time>2018-10-20T19:20:39Z</time>
      </trkpt>
      <trkpt lat="45.40981" lon="5.66255">
        <ele>690</ele>
        <time>2018-10-20T19:20:49Z</time>
      </trkpt>
      <trkpt lat="45.40999" lon="5.66247">
        <ele>692</ele>
        <time>2018-10-20T19:21:02Z</time>
      </trkpt>
      <trkpt lat="45.41009" lon="5.66251">
        <ele>694</ele>
        <time>2018-10-20T19:21:12Z</time>
      </trkpt>
      <trkpt lat="45.41022" lon="5.66257">
        <ele>696</ele>
        <time>2018-10-20T19:21:22Z</time>
      </trkpt>
      <trkpt lat="45.41028" lon="5.66263">
        <ele>698</ele>
        <time>2018-10-20T19:21:28Z</time>
      </trkpt>
      <trkpt lat="45.41032" lon="5.66267">
        <ele>698</ele>
        <time>2018-10-20T19:21:32Z</time>
      </trkpt>
      <trkpt lat="45.41053" lon="5.66275">
        <ele>700</ele>
        <time>2018-10-20T19:21:46Z</time>
      </trkpt>
      <trkpt lat="45.41075" lon="5.66279">
        <ele>701</ele>
        <time>2018-10-20T19:21:59Z</time>
      </trkpt>
      <trkpt lat="45.41101" lon="5.66278">
        <ele>702</ele>
        <time>2018-10-20T19:22:13Z</time>
      </trkpt>
      <trkpt lat="45.41126" lon="5.66267">
        <ele>704</ele>
        <time>2018-10-20T19:22:31Z</time>
      </trkpt>
      <trkpt lat="45.41143" lon="5.66249">
        <ele>708</ele>
        <time>2018-10-20T19:22:47Z</time>
      </trkpt>
      <trkpt lat="45.4116" lon="5.66234">
        <ele>710</ele>
        <time>2018-10-20T19:23:03Z</time>
      </trkpt>
      <trkpt lat="45.41171" lon="5.66225">
        <ele>712</ele>
        <time>2018-10-20T19:23:15Z</time>
      </trkpt>
      <trkpt lat="45.41175" lon="5.66222">
        <ele>713</ele>
        <time>2018-10-20T19:23:18Z</time>
      </trkpt>
      <trkpt lat="45.41179" lon="5.66195">
        <ele>715</ele>
        <time>2018-10-20T19:23:33Z</time>
      </trkpt>
      <trkpt lat="45.41182" lon="5.66164">
        <ele>718</ele>
        <time>2018-10-20T19:23:51Z</time>
      </trkpt>
      <trkpt lat="45.41188" lon="5.6614">
        <ele>721</ele>
        <time>2018-10-20T19:24:06Z</time>
      </trkpt>
      <trkpt lat="45.41192" lon="5.66119">
        <ele>725</ele>
        <time>2018-10-20T19:24:19Z</time>
      </trkpt>
      <trkpt lat="45.41198" lon="5.66102">
        <ele>728</ele>
        <time>2018-10-20T19:24:31Z</time>
      </trkpt>
      <trkpt lat="45.41208" lon="5.66086">
        <ele>730</ele>
        <time>2018-10-20T19:24:45Z</time>
      </trkpt>
      <trkpt lat="45.41223" lon="5.66067">
        <ele>734</ele>
        <time>2018-10-20T19:25:04Z</time>
      </trkpt>
      <trkpt lat="45.41232" lon="5.66061">
        <ele>735</ele>
        <time>2018-10-20T19:25:13Z</time>
      </trkpt>
      <trkpt lat="45.41237" lon="5.66058">
        <ele>736</ele>
        <time>2018-10-20T19:25:18Z</time>
      </trkpt>
      <trkpt lat="45.41259" lon="5.66045">
        <ele>739</ele>
        <time>2018-10-20T19:25:39Z</time>
      </trkpt>
      <trkpt lat="45.41275" lon="5.66038">
        <ele>742</ele>
        <time>2018-10-20T19:25:55Z</time>
      </trkpt>
      <trkpt lat="45.41294" lon="5.66035">
        <ele>745</ele>
        <time>2018-10-20T19:26:13Z</time>
      </trkpt>
      <trkpt lat="45.41293" lon="5.66036">
        <ele>745</ele>
        <time>2018-10-20T19:26:50Z</time>
      </trkpt>
      <trkpt lat="45.41291" lon="5.66036">
        <ele>745</ele>
        <time>2018-10-20T19:27:46Z</time>
      </trkpt>
      <trkpt lat="45.4129" lon="5.66036">
        <ele>745</ele>
        <time>2018-10-20T19:29:11Z</time>
      </trkpt>
      <trkpt lat="45.41291" lon="5.66038">
        <ele>745</ele>
        <time>2018-10-20T19:29:59Z</time>
      </trkpt>
      <trkpt lat="45.41292" lon="5.6604">
        <ele>745</ele>
        <time>2018-10-20T19:31:08Z</time>
      </trkpt>
      <trkpt lat="45.41292" lon="5.6604">
        <ele>745</ele>
        <time>2018-10-20T19:32:31Z</time>
      </trkpt>
      <trkpt lat="45.41292" lon="5.66038">
        <ele>745</ele>
        <time>2018-10-20T19:33:14Z</time>
      </trkpt>
      <trkpt lat="45.41294" lon="5.66031">
        <ele>745</ele>
        <time>2018-10-20T19:33:28Z</time>
      </trkpt>
      <trkpt lat="45.41298" lon="5.66031">
        <ele>745</ele>
        <time>2018-10-20T19:33:34Z</time>
      </trkpt>
      <trkpt lat="45.41318" lon="5.66021">
        <ele>748</ele>
        <time>2018-10-20T19:33:49Z</time>
      </trkpt>
      <trkpt lat="45.41339" lon="5.6601">
        <ele>750</ele>
        <time>2018-10-20T19:34:01Z</time>
      </trkpt>
      <trkpt lat="45.41366" lon="5.65991">
        <ele>752</ele>
        <time>2018-10-20T19:34:16Z</time>
      </trkpt>
      <trkpt lat="45.41389" lon="5.65976">
        <ele>753</ele>
        <time>2018-10-20T19:34:29Z</time>
      </trkpt>
      <trkpt lat="45.41391" lon="5.65975">
        <ele>754</ele>
        <time>2018-10-20T19:34:30Z</time>
      </trkpt>
      <trkpt lat="45.41398" lon="5.65969">
        <ele>754</ele>
        <time>2018-10-20T19:34:34Z</time>
      </trkpt>
      <trkpt lat="45.414" lon="5.65968">
        <ele>754</ele>
        <time>2018-10-20T19:34:35Z</time>
      </trkpt>
      <trkpt lat="45.41402" lon="5.65967">
        <ele>755</ele>
        <time>2018-10-20T19:34:36Z</time>
      </trkpt>
      <trkpt lat="45.41404" lon="5.65966">
        <ele>755</ele>
        <time>2018-10-20T19:34:37Z</time>
      </trkpt>
      <trkpt lat="45.41406" lon="5.65964">
        <ele>755</ele>
        <time>2018-10-20T19:34:38Z</time>
      </trkpt>
      <trkpt lat="45.41408" lon="5.65962">
        <ele>755</ele>
        <time>2018-10-20T19:34:39Z</time>
      </trkpt>
      <trkpt lat="45.41434" lon="5.65929">
        <ele>756</ele>
        <time>2018-10-20T19:34:52Z</time>
      </trkpt>
      <trkpt lat="45.4144" lon="5.65906">
        <ele>756</ele>
        <time>2018-10-20T19:35:02Z</time>
      </trkpt>
      <trkpt lat="45.4144" lon="5.65903">
        <ele>756</ele>
        <time>2018-10-20T19:35:06Z</time>
      </trkpt>
      <trkpt lat="45.41441" lon="5.65901">
        <ele>756</ele>
        <time>2018-10-20T19:35:07Z</time>
      </trkpt>
      <trkpt lat="45.4145" lon="5.6586">
        <ele>758</ele>
        <time>2018-10-20T19:35:21Z</time>
      </trkpt>
      <trkpt lat="45.41468" lon="5.65837">
        <ele>761</ele>
        <time>2018-10-20T19:35:34Z</time>
      </trkpt>
      <trkpt lat="45.41501" lon="5.65818">
        <ele>764</ele>
        <time>2018-10-20T19:35:51Z</time>
      </trkpt>
      <trkpt lat="45.4153" lon="5.65828">
        <ele>765</ele>
        <time>2018-10-20T19:36:05Z</time>
      </trkpt>
      <trkpt lat="45.41566" lon="5.65852">
        <ele>767</ele>
        <time>2018-10-20T19:36:24Z</time>
      </trkpt>
      <trkpt lat="45.41599" lon="5.65851">
        <ele>770</ele>
        <time>2018-10-20T19:36:39Z</time>
      </trkpt>
      <trkpt lat="45.41637" lon="5.65853">
        <ele>772</ele>
        <time>2018-10-20T19:36:56Z</time>
      </trkpt>
      <trkpt lat="45.41666" lon="5.65865">
        <ele>773</ele>
        <time>2018-10-20T19:37:10Z</time>
      </trkpt>
      <trkpt lat="45.41704" lon="5.65857">
        <ele>776</ele>
        <time>2018-10-20T19:37:27Z</time>
      </trkpt>
      <trkpt lat="45.41729" lon="5.65839">
        <ele>779</ele>
        <time>2018-10-20T19:37:42Z</time>
      </trkpt>
      <trkpt lat="45.41747" lon="5.65827">
        <ele>782</ele>
        <time>2018-10-20T19:37:56Z</time>
      </trkpt>
      <trkpt lat="45.41759" lon="5.65801">
        <ele>786</ele>
        <time>2018-10-20T19:38:11Z</time>
      </trkpt>
      <trkpt lat="45.41772" lon="5.6578">
        <ele>789</ele>
        <time>2018-10-20T19:38:26Z</time>
      </trkpt>
      <trkpt lat="45.41791" lon="5.6578">
        <ele>792</ele>
        <time>2018-10-20T19:38:41Z</time>
      </trkpt>
      <trkpt lat="45.41808" lon="5.65784">
        <ele>795</ele>
        <time>2018-10-20T19:38:53Z</time>
      </trkpt>
      <trkpt lat="45.41829" lon="5.65795">
        <ele>798</ele>
        <time>2018-10-20T19:39:11Z</time>
      </trkpt>
      <trkpt lat="45.41851" lon="5.65787">
        <ele>801</ele>
        <time>2018-10-20T19:39:28Z</time>
      </trkpt>
      <trkpt lat="45.41872" lon="5.65767">
        <ele>803</ele>
        <time>2018-10-20T19:39:46Z</time>
      </trkpt>
      <trkpt lat="45.41889" lon="5.65755">
        <ele>806</ele>
        <time>2018-10-20T19:40:00Z</time>
      </trkpt>
      <trkpt lat="45.41907" lon="5.65751">
        <ele>808</ele>
        <time>2018-10-20T19:40:14Z</time>
      </trkpt>
      <trkpt lat="45.41928" lon="5.65745">
        <ele>810</ele>
        <time>2018-10-20T19:40:29Z</time>
      </trkpt>
      <trkpt lat="45.41951" lon="5.65741">
        <ele>812</ele>
        <time>2018-10-20T19:40:46Z</time>
      </trkpt>
      <trkpt lat="45.41968" lon="5.65743">
        <ele>815</ele>
        <time>2018-10-20T19:40:59Z</time>
      </trkpt>
      <trkpt lat="45.41979" lon="5.65755">
        <ele>819</ele>
        <time>2018-10-20T19:41:14Z</time>
      </trkpt>
      <trkpt lat="45.41994" lon="5.65768">
        <ele>822</ele>
        <time>2018-10-20T19:41:27Z</time>
      </trkpt>
      <trkpt lat="45.42001" lon="5.65773">
        <ele>824</ele>
        <time>2018-10-20T19:41:40Z</time>
      </trkpt>
      <trkpt lat="45.42016" lon="5.65783">
        <ele>827</ele>
        <time>2018-10-20T19:42:00Z</time>
      </trkpt>
      <trkpt lat="45.42025" lon="5.65792">
        <ele>829</ele>
        <time>2018-10-20T19:42:17Z</time>
      </trkpt>
      <trkpt lat="45.42026" lon="5.65793">
        <ele>829</ele>
        <time>2018-10-20T19:42:20Z</time>
      </trkpt>
      <trkpt lat="45.42034" lon="5.65806">
        <ele>830</ele>
        <time>2018-10-20T19:42:30Z</time>
      </trkpt>
      <trkpt lat="45.42054" lon="5.65845">
        <ele>832</ele>
        <time>2018-10-20T19:42:52Z</time>
      </trkpt>
      <trkpt lat="45.42083" lon="5.65879">
        <ele>835</ele>
        <time>2018-10-20T19:43:15Z</time>
      </trkpt>
      <trkpt lat="45.42113" lon="5.659">
        <ele>837</ele>
        <time>2018-10-20T19:43:34Z</time>
      </trkpt>
      <trkpt lat="45.42135" lon="5.65913">
        <ele>839</ele>
        <time>2018-10-20T19:43:48Z</time>
      </trkpt>
      <trkpt lat="45.42163" lon="5.65926">
        <ele>842</ele>
        <time>2018-10-20T19:44:07Z</time>
      </trkpt>
      <trkpt lat="45.42183" lon="5.65945">
        <ele>844</ele>
        <time>2018-10-20T19:44:24Z</time>
      </trkpt>
      <trkpt lat="45.42185" lon="5.65945">
        <ele>844</ele>
        <time>2018-10-20T19:44:50Z</time>
      </trkpt>
      <trkpt lat="45.42186" lon="5.65947">
        <ele>844</ele>
        <time>2018-10-20T19:45:44Z</time>
      </trkpt>
      <trkpt lat="45.42185" lon="5.65944">
        <ele>844</ele>
        <time>2018-10-20T19:47:17Z</time>
      </trkpt>
      <trkpt lat="45.42185" lon="5.65945">
        <ele>844</ele>
        <time>2018-10-20T19:47:25Z</time>
      </trkpt>
      <trkpt lat="45.42186" lon="5.65947">
        <ele>844</ele>
        <time>2018-10-20T19:47:27Z</time>
      </trkpt>
      <trkpt lat="45.42197" lon="5.65962">
        <ele>844</ele>
        <time>2018-10-20T19:47:35Z</time>
      </trkpt>
      <trkpt lat="45.42204" lon="5.65972">
        <ele>844</ele>
        <time>2018-10-20T19:47:40Z</time>
      </trkpt>
      <trkpt lat="45.42211" lon="5.65979">
        <ele>845</ele>
        <time>2018-10-20T19:47:44Z</time>
      </trkpt>
      <trkpt lat="45.42237" lon="5.66002">
        <ele>846</ele>
        <time>2018-10-20T19:47:59Z</time>
      </trkpt>
      <trkpt lat="45.42256" lon="5.66018">
        <ele>847</ele>
        <time>2018-10-20T19:48:11Z</time>
      </trkpt>
      <trkpt lat="45.42276" lon="5.66036">
        <ele>849</ele>
        <time>2018-10-20T19:48:23Z</time>
      </trkpt>
      <trkpt lat="45.42291" lon="5.66054">
        <ele>851</ele>
        <time>2018-10-20T19:48:35Z</time>
      </trkpt>
      <trkpt lat="45.42311" lon="5.66071">
        <ele>853</ele>
        <time>2018-10-20T19:48:48Z</time>
      </trkpt>
      <trkpt lat="45.42313" lon="5.66073">
        <ele>853</ele>
        <time>2018-10-20T19:48:49Z</time>
      </trkpt>
      <trkpt lat="45.42329" lon="5.66094">
        <ele>854</ele>
        <time>2018-10-20T19:49:01Z</time>
      </trkpt>
      <trkpt lat="45.42331" lon="5.66097">
        <ele>854</ele>
        <time>2018-10-20T19:49:02Z</time>
      </trkpt>
      <trkpt lat="45.4235" lon="5.66115">
        <ele>855</ele>
        <time>2018-10-20T19:49:14Z</time>
      </trkpt>
      <trkpt lat="45.4238" lon="5.66133">
        <ele>856</ele>
        <time>2018-10-20T19:49:27Z</time>
      </trkpt>
      <trkpt lat="45.4241" lon="5.66147">
        <ele>857</ele>
        <time>2018-10-20T19:49:41Z</time>
      </trkpt>
      <trkpt lat="45.42437" lon="5.66162">
        <ele>858</ele>
        <time>2018-10-20T19:49:53Z</time>
      </trkpt>
      <trkpt lat="45.4245" lon="5.66173">
        <ele>858</ele>
        <time>2018-10-20T19:49:59Z</time>
      </trkpt>
      <trkpt lat="45.42478" lon="5.66204">
        <ele>859</ele>
        <time>2018-10-20T19:50:13Z</time>
      </trkpt>
      <trkpt lat="45.4249" lon="5.6622">
        <ele>859</ele>
        <time>2018-10-20T19:50:20Z</time>
      </trkpt>
      <trkpt lat="45.4251" lon="5.66252">
        <ele>861</ele>
        <time>2018-10-20T19:50:34Z</time>
      </trkpt>
      <trkpt lat="45.42522" lon="5.6628">
        <ele>863</ele>
        <time>2018-10-20T19:50:47Z</time>
      </trkpt>
      <trkpt lat="45.42531" lon="5.66319">
        <ele>865</ele>
        <time>2018-10-20T19:51:02Z</time>
      </trkpt>
      <trkpt lat="45.42536" lon="5.6634">
        <ele>867</ele>
        <time>2018-10-20T19:51:13Z</time>
      </trkpt>
      <trkpt lat="45.42543" lon="5.66332">
        <ele>868</ele>
        <time>2018-10-20T19:51:19Z</time>
      </trkpt>
      <trkpt lat="45.42558" lon="5.66308">
        <ele>869</ele>
        <time>2018-10-20T19:51:34Z</time>
      </trkpt>
      <trkpt lat="45.42565" lon="5.663">
        <ele>871</ele>
        <time>2018-10-20T19:51:44Z</time>
      </trkpt>
      <trkpt lat="45.42575" lon="5.66301">
        <ele>872</ele>
        <time>2018-10-20T19:51:59Z</time>
      </trkpt>
      <trkpt lat="45.42582" lon="5.66298">
        <ele>872</ele>
        <time>2018-10-20T19:52:24Z</time>
      </trkpt>
      <trkpt lat="45.42585" lon="5.66294">
        <ele>872</ele>
        <time>2018-10-20T19:53:00Z</time>
      </trkpt>
      <trkpt lat="45.42591" lon="5.6629">
        <ele>872</ele>
        <time>2018-10-20T19:53:28Z</time>
      </trkpt>
      <trkpt lat="45.42588" lon="5.66289">
        <ele>872</ele>
        <time>2018-10-20T19:53:58Z</time>
      </trkpt>
      <trkpt lat="45.42584" lon="5.66291">
        <ele>872</ele>
        <time>2018-10-20T19:54:27Z</time>
      </trkpt>
      <trkpt lat="45.42581" lon="5.66291">
        <ele>872</ele>
        <time>2018-10-20T19:55:13Z</time>
      </trkpt>
      <trkpt lat="45.4258" lon="5.66295">
        <ele>872</ele>
        <time>2018-10-20T19:55:41Z</time>
      </trkpt>
      <trkpt lat="45.4258" lon="5.66295">
        <ele>872</ele>
        <time>2018-10-20T19:56:18Z</time>
      </trkpt>
      <trkpt lat="45.4258" lon="5.66294">
        <ele>872</ele>
        <time>2018-10-20T19:56:39Z</time>
      </trkpt>
      <trkpt lat="45.42577" lon="5.66281">
        <ele>876</ele>
        <time>2018-10-20T19:56:49Z</time>
      </trkpt>
      <trkpt lat="45.42575" lon="5.66278">
        <ele>877</ele>
        <time>2018-10-20T19:56:52Z</time>
      </trkpt>
      <trkpt lat="45.42572" lon="5.66262">
        <ele>880</ele>
        <time>2018-10-20T19:57:03Z</time>
      </trkpt>
      <trkpt lat="45.42578" lon="5.66243">
        <ele>883</ele>
        <time>2018-10-20T19:57:16Z</time>
      </trkpt>
      <trkpt lat="45.4258" lon="5.66234">
        <ele>883</ele>
        <time>2018-10-20T19:57:22Z</time>
      </trkpt>
      <trkpt lat="45.42588" lon="5.66212">
        <ele>885</ele>
        <time>2018-10-20T19:57:34Z</time>
      </trkpt>
      <trkpt lat="45.42598" lon="5.66185">
        <ele>886</ele>
        <time>2018-10-20T19:57:48Z</time>
      </trkpt>
      <trkpt lat="45.42599" lon="5.66183">
        <ele>886</ele>
        <time>2018-10-20T19:57:49Z</time>
      </trkpt>
      <trkpt lat="45.42616" lon="5.6615">
        <ele>889</ele>
        <time>2018-10-20T19:58:05Z</time>
      </trkpt>
      <trkpt lat="45.42619" lon="5.66142">
        <ele>890</ele>
        <time>2018-10-20T19:58:09Z</time>
      </trkpt>
      <trkpt lat="45.42628" lon="5.66121">
        <ele>892</ele>
        <time>2018-10-20T19:58:20Z</time>
      </trkpt>
      <trkpt lat="45.42631" lon="5.66099">
        <ele>893</ele>
        <time>2018-10-20T19:58:28Z</time>
      </trkpt>
      <trkpt lat="45.42622" lon="5.66074">
        <ele>891</ele>
        <time>2018-10-20T19:58:35Z</time>
      </trkpt>
      <trkpt lat="45.42617" lon="5.66069">
        <ele>890</ele>
        <time>2018-10-20T19:58:37Z</time>
      </trkpt>
      <trkpt lat="45.4261" lon="5.66059">
        <ele>889</ele>
        <time>2018-10-20T19:58:41Z</time>
      </trkpt>
      <trkpt lat="45.42598" lon="5.66037">
        <ele>888</ele>
        <time>2018-10-20T19:58:48Z</time>
      </trkpt>
      <trkpt lat="45.42583" lon="5.66022">
        <ele>886</ele>
        <time>2018-10-20T19:58:55Z</time>
      </trkpt>
      <trkpt lat="45.42572" lon="5.66006">
        <ele>885</ele>
        <time>2018-10-20T19:59:02Z</time>
      </trkpt>
      <trkpt lat="45.42552" lon="5.65996">
        <ele>886</ele>
        <time>2018-10-20T19:59:12Z</time>
      </trkpt>
      <trkpt lat="45.42546" lon="5.65986">
        <ele>886</ele>
        <time>2018-10-20T19:59:17Z</time>
      </trkpt>
      <trkpt lat="45.42537" lon="5.65972">
        <ele>887</ele>
        <time>2018-10-20T19:59:23Z</time>
      </trkpt>
      <trkpt lat="45.42505" lon="5.65942">
        <ele>886</ele>
        <time>2018-10-20T19:59:34Z</time>
      </trkpt>
      <trkpt lat="45.42494" lon="5.65936">
        <ele>886</ele>
        <time>2018-10-20T19:59:38Z</time>
      </trkpt>
      <trkpt lat="45.42469" lon="5.65903">
        <ele>886</ele>
        <time>2018-10-20T19:59:50Z</time>
      </trkpt>
      <trkpt lat="45.42463" lon="5.65895">
        <ele>886</ele>
        <time>2018-10-20T19:59:52Z</time>
      </trkpt>
      <trkpt lat="45.42443" lon="5.65849">
        <ele>885</ele>
        <time>2018-10-20T20:00:02Z</time>
      </trkpt>
      <trkpt lat="45.42431" lon="5.65838">
        <ele>885</ele>
        <time>2018-10-20T20:00:06Z</time>
      </trkpt>
      <trkpt lat="45.42421" lon="5.65817">
        <ele>884</ele>
        <time>2018-10-20T20:00:12Z</time>
      </trkpt>
      <trkpt lat="45.42417" lon="5.65801">
        <ele>882</ele>
        <time>2018-10-20T20:00:15Z</time>
      </trkpt>
      <trkpt lat="45.42404" lon="5.65771">
        <ele>882</ele>
        <time>2018-10-20T20:00:24Z</time>
      </trkpt>
      <trkpt lat="45.424" lon="5.65769">
        <ele>882</ele>
        <time>2018-10-20T20:00:26Z</time>
      </trkpt>
      <trkpt lat="45.4238" lon="5.65772">
        <ele>881</ele>
        <time>2018-10-20T20:00:32Z</time>
      </trkpt>
      <trkpt lat="45.42362" lon="5.65772">
        <ele>877</ele>
        <time>2018-10-20T20:00:36Z</time>
      </trkpt>
      <trkpt lat="45.42347" lon="5.65754">
        <ele>873</ele>
        <time>2018-10-20T20:00:43Z</time>
      </trkpt>
      <trkpt lat="45.42342" lon="5.65744">
        <ele>871</ele>
        <time>2018-10-20T20:00:55Z</time>
      </trkpt>
      <trkpt lat="45.42339" lon="5.65744">
        <ele>871</ele>
        <time>2018-10-20T20:01:39Z</time>
      </trkpt>
      <trkpt lat="45.42334" lon="5.65728">
        <ele>871</ele>
        <time>2018-10-20T20:02:11Z</time>
      </trkpt>
      <trkpt lat="45.42322" lon="5.65706">
        <ele>870</ele>
        <time>2018-10-20T20:02:16Z</time>
      </trkpt>
      <trkpt lat="45.42305" lon="5.65678">
        <ele>866</ele>
        <time>2018-10-20T20:02:21Z</time>
      </trkpt>
      <trkpt lat="45.4229" lon="5.65662">
        <ele>862</ele>
        <time>2018-10-20T20:02:24Z</time>
      </trkpt>
      <trkpt lat="45.42285" lon="5.65656">
        <ele>861</ele>
        <time>2018-10-20T20:02:25Z</time>
      </trkpt>
      <trkpt lat="45.42256" lon="5.65637">
        <ele>857</ele>
        <time>2018-10-20T20:02:30Z</time>
      </trkpt>
      <trkpt lat="45.42239" lon="5.65622">
        <ele>854</ele>
        <time>2018-10-20T20:02:33Z</time>
      </trkpt>
      <trkpt lat="45.42218" lon="5.65611">
        <ele>852</ele>
        <time>2018-10-20T20:02:36Z</time>
      </trkpt>
      <trkpt lat="45.42184" lon="5.65579">
        <ele>848</ele>
        <time>2018-10-20T20:02:42Z</time>
      </trkpt>
      <trkpt lat="45.42173" lon="5.65558">
        <ele>847</ele>
        <time>2018-10-20T20:02:45Z</time>
      </trkpt>
      <trkpt lat="45.4217" lon="5.65533">
        <ele>846</ele>
        <time>2018-10-20T20:02:49Z</time>
      </trkpt>
      <trkpt lat="45.4217" lon="5.65509">
        <ele>847</ele>
        <time>2018-10-20T20:02:54Z</time>
      </trkpt>
      <trkpt lat="45.42183" lon="5.65457">
        <ele>843</ele>
        <time>2018-10-20T20:03:03Z</time>
      </trkpt>
      <trkpt lat="45.42187" lon="5.6544">
        <ele>840</ele>
        <time>2018-10-20T20:03:07Z</time>
      </trkpt>
      <trkpt lat="45.42186" lon="5.65426">
        <ele>838</ele>
        <time>2018-10-20T20:03:10Z</time>
      </trkpt>
      <trkpt lat="45.42183" lon="5.65402">
        <ele>835</ele>
        <time>2018-10-20T20:03:16Z</time>
      </trkpt>
      <trkpt lat="45.42041" lon="5.65227">
        <ele>827</ele>
      </trkpt>
      <trkpt lat="45.42004" lon="5.65136">
        <ele>828</ele>
      </trkpt>
      <trkpt lat="45.41915" lon="5.65098">
        <ele>823</ele>
      </trkpt>
      <trkpt lat="45.41837" lon="5.64972">
        <ele>795</ele>
      </trkpt>
      <trkpt lat="45.41996" lon="5.64943">
        <ele>830</ele>
      </trkpt>
      <trkpt lat="45.42197" lon="5.64756">
        <ele>842</ele>
        <time>2018-10-20T20:06:57Z</time>
      </trkpt>
      <trkpt lat="45.42208" lon="5.64732">
        <ele>841</ele>
        <time>2018-10-20T20:07:04Z</time>
      </trkpt>
      <trkpt lat="45.42217" lon="5.64679">
        <ele>838</ele>
        <time>2018-10-20T20:07:12Z</time>
      </trkpt>
      <trkpt lat="45.42232" lon="5.64627">
        <ele>834</ele>
        <time>2018-10-20T20:07:18Z</time>
      </trkpt>
      <trkpt lat="45.42234" lon="5.6462">
        <ele>833</ele>
        <time>2018-10-20T20:07:19Z</time>
      </trkpt>
      <trkpt lat="45.4224" lon="5.64597">
        <ele>830</ele>
        <time>2018-10-20T20:07:22Z</time>
      </trkpt>
      <trkpt lat="45.42243" lon="5.64588">
        <ele>830</ele>
        <time>2018-10-20T20:07:23Z</time>
      </trkpt>
      <trkpt lat="45.42245" lon="5.6458">
        <ele>829</ele>
        <time>2018-10-20T20:07:24Z</time>
      </trkpt>
      <trkpt lat="45.42247" lon="5.6457">
        <ele>828</ele>
        <time>2018-10-20T20:07:25Z</time>
      </trkpt>
      <trkpt lat="45.4225" lon="5.64562">
        <ele>827</ele>
        <time>2018-10-20T20:07:26Z</time>
      </trkpt>
      <trkpt lat="45.42254" lon="5.64554">
        <ele>825</ele>
        <time>2018-10-20T20:07:27Z</time>
      </trkpt>
      <trkpt lat="45.42259" lon="5.64547">
        <ele>825</ele>
        <time>2018-10-20T20:07:28Z</time>
      </trkpt>
      <trkpt lat="45.42262" lon="5.64538">
        <ele>824</ele>
        <time>2018-10-20T20:07:29Z</time>
      </trkpt>
      <trkpt lat="45.42265" lon="5.64527">
        <ele>824</ele>
        <time>2018-10-20T20:07:30Z</time>
      </trkpt>
      <trkpt lat="45.42272" lon="5.64498">
        <ele>823</ele>
        <time>2018-10-20T20:07:33Z</time>
      </trkpt>
      <trkpt lat="45.42272" lon="5.64489">
        <ele>822</ele>
        <time>2018-10-20T20:07:34Z</time>
      </trkpt>
      <trkpt lat="45.4227" lon="5.64462">
        <ele>821</ele>
        <time>2018-10-20T20:07:38Z</time>
      </trkpt>
      <trkpt lat="45.42265" lon="5.64453">
        <ele>821</ele>
        <time>2018-10-20T20:07:40Z</time>
      </trkpt>
      <trkpt lat="45.42259" lon="5.64445">
        <ele>821</ele>
        <time>2018-10-20T20:07:42Z</time>
      </trkpt>
      <trkpt lat="45.42225" lon="5.64429">
        <ele>824</ele>
        <time>2018-10-20T20:07:56Z</time>
      </trkpt>
      <trkpt lat="45.42209" lon="5.64439">
        <ele>827</ele>
        <time>2018-10-20T20:08:09Z</time>
      </trkpt>
      <trkpt lat="45.42195" lon="5.64453">
        <ele>830</ele>
        <time>2018-10-20T20:08:21Z</time>
      </trkpt>
      <trkpt lat="45.4218" lon="5.64463">
        <ele>832</ele>
        <time>2018-10-20T20:08:33Z</time>
      </trkpt>
      <trkpt lat="45.42159" lon="5.64463">
        <ele>833</ele>
        <time>2018-10-20T20:08:44Z</time>
      </trkpt>
      <trkpt lat="45.42147" lon="5.64439">
        <ele>833</ele>
        <time>2018-10-20T20:08:52Z</time>
      </trkpt>
      <trkpt lat="45.42139" lon="5.64426">
        <ele>833</ele>
        <time>2018-10-20T20:08:54Z</time>
      </trkpt>
      <trkpt lat="45.42119" lon="5.644">
        <ele>830</ele>
        <time>2018-10-20T20:08:58Z</time>
      </trkpt>
      <trkpt lat="45.42099" lon="5.64377">
        <ele>828</ele>
        <time>2018-10-20T20:09:02Z</time>
      </trkpt>
      <trkpt lat="45.42074" lon="5.64365">
        <ele>825</ele>
        <time>2018-10-20T20:09:06Z</time>
      </trkpt>
      <trkpt lat="45.42067" lon="5.64365">
        <ele>825</ele>
        <time>2018-10-20T20:09:07Z</time>
      </trkpt>
      <trkpt lat="45.42016" lon="5.64381">
        <ele>823</ele>
        <time>2018-10-20T20:09:17Z</time>
      </trkpt>
      <trkpt lat="45.41962" lon="5.64461">
        <ele>823</ele>
        <time>2018-10-20T20:09:32Z</time>
      </trkpt>
      <trkpt lat="45.41928" lon="5.64515">
        <ele>823</ele>
        <time>2018-10-20T20:09:44Z</time>
      </trkpt>
      <trkpt lat="45.41903" lon="5.64555">
        <ele>822</ele>
        <time>2018-10-20T20:09:52Z</time>
      </trkpt>
      <trkpt lat="45.41856" lon="5.64639">
        <ele>821</ele>
        <time>2018-10-20T20:10:07Z</time>
      </trkpt>
      <trkpt lat="45.4182" lon="5.64706">
        <ele>824</ele>
        <time>2018-10-20T20:10:22Z</time>
      </trkpt>
      <trkpt lat="45.4181" lon="5.64741">
        <ele>827</ele>
        <time>2018-10-20T20:10:33Z</time>
      </trkpt>
      <trkpt lat="45.41802" lon="5.6478">
        <ele>827</ele>
        <time>2018-10-20T20:10:46Z</time>
      </trkpt>
      <trkpt lat="45.41805" lon="5.64819">
        <ele>826</ele>
        <time>2018-10-20T20:11:01Z</time>
      </trkpt>
      <trkpt lat="45.4181" lon="5.64863">
        <ele>824</ele>
        <time>2018-10-20T20:11:12Z</time>
      </trkpt>
      <trkpt lat="45.41812" lon="5.64876">
        <ele>822</ele>
        <time>2018-10-20T20:11:14Z</time>
      </trkpt>
      <trkpt lat="45.41814" lon="5.64892">
        <ele>821</ele>
        <time>2018-10-20T20:11:16Z</time>
      </trkpt>
      <trkpt lat="45.41791" lon="5.64941">
        <ele>818</ele>
        <time>2018-10-20T20:11:23Z</time>
      </trkpt>
      <trkpt lat="45.41772" lon="5.64952">
        <ele>817</ele>
        <time>2018-10-20T20:11:26Z</time>
      </trkpt>
      <trkpt lat="45.41766" lon="5.64954">
        <ele>817</ele>
        <time>2018-10-20T20:11:27Z</time>
      </trkpt>
      <trkpt lat="45.4176" lon="5.64955">
        <ele>817</ele>
        <time>2018-10-20T20:11:28Z</time>
      </trkpt>
      <trkpt lat="45.41716" lon="5.64951">
        <ele>817</ele>
        <time>2018-10-20T20:11:38Z</time>
      </trkpt>
      <trkpt lat="45.41644" lon="5.6491">
        <ele>816</ele>
        <time>2018-10-20T20:11:55Z</time>
      </trkpt>
      <trkpt lat="45.41616" lon="5.64892">
        <ele>816</ele>
        <time>2018-10-20T20:12:01Z</time>
      </trkpt>
      <trkpt lat="45.41611" lon="5.64887">
        <ele>815</ele>
        <time>2018-10-20T20:12:02Z</time>
      </trkpt>
      <trkpt lat="45.4156" lon="5.6483">
        <ele>812</ele>
        <time>2018-10-20T20:12:12Z</time>
      </trkpt>
      <trkpt lat="45.41489" lon="5.64778">
        <ele>809</ele>
        <time>2018-10-20T20:12:25Z</time>
      </trkpt>
      <trkpt lat="45.41451" lon="5.64747">
        <ele>806</ele>
        <time>2018-10-20T20:12:31Z</time>
      </trkpt>
      <trkpt lat="45.41392" lon="5.64729">
        <ele>803</ele>
        <time>2018-10-20T20:12:40Z</time>
      </trkpt>
      <trkpt lat="45.41372" lon="5.64723">
        <ele>801</ele>
        <time>2018-10-20T20:12:43Z</time>
      </trkpt>
      <trkpt lat="45.41359" lon="5.64715">
        <ele>800</ele>
        <time>2018-10-20T20:12:45Z</time>
      </trkpt>
      <trkpt lat="45.41352" lon="5.64712">
        <ele>799</ele>
        <time>2018-10-20T20:12:46Z</time>
      </trkpt>
      <trkpt lat="45.41334" lon="5.64808">
        <ele>781</ele>
        <time>2018-10-20T20:12:50Z</time>
      </trkpt>
      <trkpt lat="45.41268" lon="5.64893">
        <ele>770</ele>
        <time>2018-10-20T20:12:54Z</time>
      </trkpt>
      <trkpt lat="45.41272" lon="5.64906">
        <ele>769</ele>
        <time>2018-10-20T20:12:55Z</time>
      </trkpt>
      <trkpt lat="45.412" lon="5.64902">
        <ele>764</ele>
        <time>2018-10-20T20:12:56Z</time>
      </trkpt>
      <trkpt lat="45.41314" lon="5.64858">
        <ele>776</ele>
        <time>2018-10-20T20:12:57Z</time>
      </trkpt>
      <trkpt lat="45.41192" lon="5.64882">
        <ele>766</ele>
        <time>2018-10-20T20:12:58Z</time>
      </trkpt>
      <trkpt lat="45.41171" lon="5.64811">
        <ele>773</ele>
        <time>2018-10-20T20:13:11Z</time>
      </trkpt>
      <trkpt lat="45.41118" lon="5.64789">
        <ele>772</ele>
        <time>2018-10-20T20:13:16Z</time>
      </trkpt>
      <trkpt lat="45.4114" lon="5.64796">
        <ele>772</ele>
        <time>2018-10-20T20:13:17Z</time>
      </trkpt>
      <trkpt lat="45.41156" lon="5.64731">
        <ele>793</ele>
        <time>2018-10-20T20:13:18Z</time>
      </trkpt>
      <trkpt lat="45.41152" lon="5.64736">
        <ele>792</ele>
        <time>2018-10-20T20:13:19Z</time>
      </trkpt>
      <trkpt lat="45.41148" lon="5.64742">
        <ele>792</ele>
        <time>2018-10-20T20:13:20Z</time>
      </trkpt>
      <trkpt lat="45.41144" lon="5.64747">
        <ele>792</ele>
        <time>2018-10-20T20:13:21Z</time>
      </trkpt>
      <trkpt lat="45.41142" lon="5.64752">
        <ele>791</ele>
        <time>2018-10-20T20:13:22Z</time>
      </trkpt>
      <trkpt lat="45.4114" lon="5.64758">
        <ele>791</ele>
        <time>2018-10-20T20:13:23Z</time>
      </trkpt>
      <trkpt lat="45.41139" lon="5.64764">
        <ele>791</ele>
        <time>2018-10-20T20:13:24Z</time>
      </trkpt>
      <trkpt lat="45.41138" lon="5.64771">
        <ele>790</ele>
        <time>2018-10-20T20:13:25Z</time>
      </trkpt>
      <trkpt lat="45.41137" lon="5.64777">
        <ele>790</ele>
        <time>2018-10-20T20:13:26Z</time>
      </trkpt>
      <trkpt lat="45.41135" lon="5.64783">
        <ele>789</ele>
        <time>2018-10-20T20:13:27Z</time>
      </trkpt>
      <trkpt lat="45.41131" lon="5.64787">
        <ele>789</ele>
        <time>2018-10-20T20:13:28Z</time>
      </trkpt>
      <trkpt lat="45.41127" lon="5.64791">
        <ele>789</ele>
        <time>2018-10-20T20:13:29Z</time>
      </trkpt>
      <trkpt lat="45.41123" lon="5.64792">
        <ele>788</ele>
        <time>2018-10-20T20:13:30Z</time>
      </trkpt>
      <trkpt lat="45.41118" lon="5.64793">
        <ele>788</ele>
        <time>2018-10-20T20:13:31Z</time>
      </trkpt>
      <trkpt lat="45.41113" lon="5.64794">
        <ele>787</ele>
        <time>2018-10-20T20:13:32Z</time>
      </trkpt>
      <trkpt lat="45.41085" lon="5.64802">
        <ele>787</ele>
        <time>2018-10-20T20:13:38Z</time>
      </trkpt>
      <trkpt lat="45.41077" lon="5.64803">
        <ele>787</ele>
        <time>2018-10-20T20:13:40Z</time>
      </trkpt>
      <trkpt lat="45.41041" lon="5.64797">
        <ele>789</ele>
        <time>2018-10-20T20:13:50Z</time>
      </trkpt>
      <trkpt lat="45.41037" lon="5.64795">
        <ele>789</ele>
        <time>2018-10-20T20:13:51Z</time>
      </trkpt>
      <trkpt lat="45.40997" lon="5.6475">
        <ele>788</ele>
        <time>2018-10-20T20:14:02Z</time>
      </trkpt>
      <trkpt lat="45.40962" lon="5.64705">
        <ele>786</ele>
        <time>2018-10-20T20:14:11Z</time>
      </trkpt>
      <trkpt lat="45.40952" lon="5.64473">
        <ele>800</ele>
        <time>2018-10-20T20:16:48Z</time>
      </trkpt>
      <trkpt lat="45.40898" lon="5.6424">
        <ele>806</ele>
        <time>2018-10-20T20:16:52Z</time>
      </trkpt>
      <trkpt lat="45.40945" lon="5.64172">
        <ele>816</ele>
        <time>2018-10-20T20:16:56Z</time>
      </trkpt>
      <trkpt lat="45.40997" lon="5.64092">
        <ele>814</ele>
        <time>2018-10-20T20:17:01Z</time>
      </trkpt>
      <trkpt lat="45.41024" lon="5.64027">
        <ele>806</ele>
        <time>2018-10-20T20:17:04Z</time>
      </trkpt>
      <trkpt lat="45.41053" lon="5.63958">
        <ele>805</ele>
        <time>2018-10-20T20:17:06Z</time>
      </trkpt>
      <trkpt lat="45.40993" lon="5.6399">
        <ele>784</ele>
        <time>2018-10-20T20:17:10Z</time>
      </trkpt>
      <trkpt lat="45.40943" lon="5.64019">
        <ele>775</ele>
        <time>2018-10-20T20:17:12Z</time>
      </trkpt>
      <trkpt lat="45.41001" lon="5.63939">
        <ele>778</ele>
        <time>2018-10-20T20:17:16Z</time>
      </trkpt>
      <trkpt lat="45.41024" lon="5.63864">
        <ele>769</ele>
        <time>2018-10-20T20:17:17Z</time>
      </trkpt>
      <trkpt lat="45.41037" lon="5.63794">
        <ele>760</ele>
        <time>2018-10-20T20:17:21Z</time>
      </trkpt>
      <trkpt lat="45.4105" lon="5.6375">
        <ele>757</ele>
        <time>2018-10-20T20:17:24Z</time>
      </trkpt>
      <trkpt lat="45.41015" lon="5.637">
        <ele>730</ele>
        <time>2018-10-20T20:17:25Z</time>
      </trkpt>
      <trkpt lat="45.41023" lon="5.63659">
        <ele>725</ele>
        <time>2018-10-20T20:17:28Z</time>
      </trkpt>
      <trkpt lat="45.41036" lon="5.63622">
        <ele>718</ele>
        <time>2018-10-20T20:17:29Z</time>
      </trkpt>
      <trkpt lat="45.40772" lon="5.63414">
        <ele>668</ele>
        <time>2018-10-20T20:17:31Z</time>
      </trkpt>
      <trkpt lat="45.40693" lon="5.63323">
        <ele>660</ele>
        <time>2018-10-20T20:17:33Z</time>
      </trkpt>
      <trkpt lat="45.40645" lon="5.63432">
        <ele>663</ele>
        <time>2018-10-20T20:17:35Z</time>
      </trkpt>
      <trkpt lat="45.40567" lon="5.63488">
        <ele>667</ele>
        <time>2018-10-20T20:17:39Z</time>
      </trkpt>
      <trkpt lat="45.40521" lon="5.6338">
        <ele>665</ele>
        <time>2018-10-20T20:17:43Z</time>
      </trkpt>
      <trkpt lat="45.40497" lon="5.63331">
        <ele>663</ele>
        <time>2018-10-20T20:17:49Z</time>
      </trkpt>
      <trkpt lat="45.4052" lon="5.63239">
        <ele>650</ele>
        <time>2018-10-20T20:19:12Z</time>
      </trkpt>
      <trkpt lat="45.40494" lon="5.63176">
        <ele>646</ele>
        <time>2018-10-20T20:19:20Z</time>
      </trkpt>
      <trkpt lat="45.40452" lon="5.63088">
        <ele>643</ele>
        <time>2018-10-20T20:19:32Z</time>
      </trkpt>
      <trkpt lat="45.4042" lon="5.63004">
        <ele>640</ele>
        <time>2018-10-20T20:19:43Z</time>
      </trkpt>
      <trkpt lat="45.40411" lon="5.62981">
        <ele>639</ele>
        <time>2018-10-20T20:19:46Z</time>
      </trkpt>
      <trkpt lat="45.40378" lon="5.62904">
        <ele>636</ele>
        <time>2018-10-20T20:19:56Z</time>
      </trkpt>
      <trkpt lat="45.40355" lon="5.62836">
        <ele>633</ele>
        <time>2018-10-20T20:20:05Z</time>
      </trkpt>
      <trkpt lat="45.40334" lon="5.62766">
        <ele>631</ele>
        <time>2018-10-20T20:20:14Z</time>
      </trkpt>
      <trkpt lat="45.40333" lon="5.62757">
        <ele>630</ele>
        <time>2018-10-20T20:20:15Z</time>
      </trkpt>
      <trkpt lat="45.40324" lon="5.62731">
        <ele>627</ele>
        <time>2018-10-20T20:20:18Z</time>
      </trkpt>
      <trkpt lat="45.40299" lon="5.62667">
        <ele>628</ele>
        <time>2018-10-20T20:20:29Z</time>
      </trkpt>
      <trkpt lat="45.40298" lon="5.6266">
        <ele>628</ele>
        <time>2018-10-20T20:20:30Z</time>
      </trkpt>
      <trkpt lat="45.40261" lon="5.6258">
        <ele>627</ele>
        <time>2018-10-20T20:20:41Z</time>
      </trkpt>
      <trkpt lat="45.40255" lon="5.62569">
        <ele>627</ele>
        <time>2018-10-20T20:20:43Z</time>
      </trkpt>
      <trkpt lat="45.40231" lon="5.62494">
        <ele>628</ele>
        <time>2018-10-20T20:20:55Z</time>
      </trkpt>
      <trkpt lat="45.40208" lon="5.62421">
        <ele>630</ele>
        <time>2018-10-20T20:21:11Z</time>
      </trkpt>
      <trkpt lat="45.40173" lon="5.62387">
        <ele>627</ele>
        <time>2018-10-20T20:21:21Z</time>
      </trkpt>
      <trkpt lat="45.40153" lon="5.62366">
        <ele>622</ele>
        <time>2018-10-20T20:21:25Z</time>
      </trkpt>
      <trkpt lat="45.40136" lon="5.62344">
        <ele>618</ele>
        <time>2018-10-20T20:21:28Z</time>
      </trkpt>
      <trkpt lat="45.40115" lon="5.62322">
        <ele>615</ele>
        <time>2018-10-20T20:21:31Z</time>
      </trkpt>
      <trkpt lat="45.40083" lon="5.62299">
        <ele>612</ele>
        <time>2018-10-20T20:21:35Z</time>
      </trkpt>
      <trkpt lat="45.40041" lon="5.6228">
        <ele>609</ele>
        <time>2018-10-20T20:21:40Z</time>
      </trkpt>
      <trkpt lat="45.39991" lon="5.62276">
        <ele>606</ele>
        <time>2018-10-20T20:21:45Z</time>
      </trkpt>
      <trkpt lat="45.3996" lon="5.62272">
        <ele>603</ele>
        <time>2018-10-20T20:21:48Z</time>
      </trkpt>
      <trkpt lat="45.3995" lon="5.62266">
        <ele>602</ele>
        <time>2018-10-20T20:21:49Z</time>
      </trkpt>
      <trkpt lat="45.39942" lon="5.62257">
        <ele>601</ele>
        <time>2018-10-20T20:21:50Z</time>
      </trkpt>
      <trkpt lat="45.39917" lon="5.62216">
        <ele>598</ele>
        <time>2018-10-20T20:21:54Z</time>
      </trkpt>
      <trkpt lat="45.39888" lon="5.62137">
        <ele>596</ele>
        <time>2018-10-20T20:22:02Z</time>
      </trkpt>
      <trkpt lat="45.39886" lon="5.62127">
        <ele>596</ele>
        <time>2018-10-20T20:22:03Z</time>
      </trkpt>
      <trkpt lat="45.39878" lon="5.62079">
        <ele>595</ele>
        <time>2018-10-20T20:22:08Z</time>
      </trkpt>
      <trkpt lat="45.39874" lon="5.62065">
        <ele>594</ele>
        <time>2018-10-20T20:22:10Z</time>
      </trkpt>
      <trkpt lat="45.39871" lon="5.62059">
        <ele>593</ele>
        <time>2018-10-20T20:22:11Z</time>
      </trkpt>
      <trkpt lat="45.39865" lon="5.62054">
        <ele>592</ele>
        <time>2018-10-20T20:22:12Z</time>
      </trkpt>
      <trkpt lat="45.39858" lon="5.62051">
        <ele>591</ele>
        <time>2018-10-20T20:22:13Z</time>
      </trkpt>
      <trkpt lat="45.39849" lon="5.62048">
        <ele>590</ele>
        <time>2018-10-20T20:22:14Z</time>
      </trkpt>
      <trkpt lat="45.39841" lon="5.62047">
        <ele>589</ele>
        <time>2018-10-20T20:22:15Z</time>
      </trkpt>
      <trkpt lat="45.39813" lon="5.62042">
        <ele>585</ele>
        <time>2018-10-20T20:22:18Z</time>
      </trkpt>
      <trkpt lat="45.39803" lon="5.62041">
        <ele>584</ele>
        <time>2018-10-20T20:22:19Z</time>
      </trkpt>
      <trkpt lat="45.39793" lon="5.62042">
        <ele>582</ele>
        <time>2018-10-20T20:22:20Z</time>
      </trkpt>
      <trkpt lat="45.39782" lon="5.62043">
        <ele>580</ele>
        <time>2018-10-20T20:22:21Z</time>
      </trkpt>
      <trkpt lat="45.39763" lon="5.62047">
        <ele>576</ele>
        <time>2018-10-20T20:22:23Z</time>
      </trkpt>
      <trkpt lat="45.39754" lon="5.62047">
        <ele>575</ele>
        <time>2018-10-20T20:22:24Z</time>
      </trkpt>
      <trkpt lat="45.39745" lon="5.62045">
        <ele>573</ele>
        <time>2018-10-20T20:22:25Z</time>
      </trkpt>
      <trkpt lat="45.39717" lon="5.62032">
        <ele>570</ele>
        <time>2018-10-20T20:22:28Z</time>
      </trkpt>
      <trkpt lat="45.39699" lon="5.62022">
        <ele>567</ele>
        <time>2018-10-20T20:22:30Z</time>
      </trkpt>
      <trkpt lat="45.39692" lon="5.62016">
        <ele>566</ele>
        <time>2018-10-20T20:22:31Z</time>
      </trkpt>
      <trkpt lat="45.39686" lon="5.62009">
        <ele>565</ele>
        <time>2018-10-20T20:22:32Z</time>
      </trkpt>
      <trkpt lat="45.39677" lon="5.61997">
        <ele>562</ele>
        <time>2018-10-20T20:22:34Z</time>
      </trkpt>
      <trkpt lat="45.39668" lon="5.6198">
        <ele>559</ele>
        <time>2018-10-20T20:22:39Z</time>
      </trkpt>
      <trkpt lat="45.39666" lon="5.6198">
        <ele>558</ele>
        <time>2018-10-20T20:22:40Z</time>
      </trkpt>
      <trkpt lat="45.39664" lon="5.61981">
        <ele>558</ele>
        <time>2018-10-20T20:22:41Z</time>
      </trkpt>
      <trkpt lat="45.39662" lon="5.61982">
        <ele>558</ele>
        <time>2018-10-20T20:22:42Z</time>
      </trkpt>
      <trkpt lat="45.3966" lon="5.61981">
        <ele>558</ele>
        <time>2018-10-20T20:22:43Z</time>
      </trkpt>
      <trkpt lat="45.39657" lon="5.6198">
        <ele>557</ele>
        <time>2018-10-20T20:22:44Z</time>
      </trkpt>
      <trkpt lat="45.39654" lon="5.61978">
        <ele>557</ele>
        <time>2018-10-20T20:22:45Z</time>
      </trkpt>
      <trkpt lat="45.39628" lon="5.61976">
        <ele>554</ele>
        <time>2018-10-20T20:22:51Z</time>
      </trkpt>
      <trkpt lat="45.39611" lon="5.61976">
        <ele>550</ele>
        <time>2018-10-20T20:22:55Z</time>
      </trkpt>
      <trkpt lat="45.39601" lon="5.61975">
        <ele>546</ele>
        <time>2018-10-20T20:22:58Z</time>
      </trkpt>
      <trkpt lat="45.39597" lon="5.61976">
        <ele>546</ele>
        <time>2018-10-20T20:22:59Z</time>
      </trkpt>
      <trkpt lat="45.39583" lon="5.61978">
        <ele>542</ele>
        <time>2018-10-20T20:23:03Z</time>
      </trkpt>
      <trkpt lat="45.39573" lon="5.61981">
        <ele>540</ele>
        <time>2018-10-20T20:23:06Z</time>
      </trkpt>
      <trkpt lat="45.39563" lon="5.61986">
        <ele>537</ele>
        <time>2018-10-20T20:23:09Z</time>
      </trkpt>
      <trkpt lat="45.39552" lon="5.61993">
        <ele>535</ele>
        <time>2018-10-20T20:23:12Z</time>
      </trkpt>
      <trkpt lat="45.39522" lon="5.62013">
        <ele>530</ele>
        <time>2018-10-20T20:23:18Z</time>
      </trkpt>
      <trkpt lat="45.39505" lon="5.62025">
        <ele>528</ele>
        <time>2018-10-20T20:23:21Z</time>
      </trkpt>
      <trkpt lat="45.39479" lon="5.62038">
        <ele>524</ele>
        <time>2018-10-20T20:23:26Z</time>
      </trkpt>
      <trkpt lat="45.39461" lon="5.6206">
        <ele>521</ele>
        <time>2018-10-20T20:23:31Z</time>
      </trkpt>
      <trkpt lat="45.39453" lon="5.62068">
        <ele>521</ele>
        <time>2018-10-20T20:23:33Z</time>
      </trkpt>
      <trkpt lat="45.39433" lon="5.62084">
        <ele>517</ele>
        <time>2018-10-20T20:23:39Z</time>
      </trkpt>
      <trkpt lat="45.39421" lon="5.62089">
        <ele>514</ele>
        <time>2018-10-20T20:23:44Z</time>
      </trkpt>
      <trkpt lat="45.39403" lon="5.62092">
        <ele>510</ele>
        <time>2018-10-20T20:23:51Z</time>
      </trkpt>
      <trkpt lat="45.39402" lon="5.62093">
        <ele>508</ele>
        <time>2018-10-20T20:23:59Z</time>
      </trkpt>
      <trkpt lat="45.39385" lon="5.62104">
        <ele>508</ele>
        <time>2018-10-20T20:24:04Z</time>
      </trkpt>
      <trkpt lat="45.39372" lon="5.62118">
        <ele>506</ele>
        <time>2018-10-20T20:24:07Z</time>
      </trkpt>
      <trkpt lat="45.39363" lon="5.62129">
        <ele>504</ele>
        <time>2018-10-20T20:24:09Z</time>
      </trkpt>
      <trkpt lat="45.39341" lon="5.62151">
        <ele>501</ele>
        <time>2018-10-20T20:24:14Z</time>
      </trkpt>
      <trkpt lat="45.39312" lon="5.62179">
        <ele>497</ele>
        <time>2018-10-20T20:24:20Z</time>
      </trkpt>
      <trkpt lat="45.39271" lon="5.62214">
        <ele>492</ele>
        <time>2018-10-20T20:24:27Z</time>
      </trkpt>
      <trkpt lat="45.39252" lon="5.62224">
        <ele>490</ele>
        <time>2018-10-20T20:24:30Z</time>
      </trkpt>
      <trkpt lat="45.39227" lon="5.6224">
        <ele>485</ele>
        <time>2018-10-20T20:24:35Z</time>
      </trkpt>
      <trkpt lat="45.39223" lon="5.62241">
        <ele>483</ele>
        <time>2018-10-20T20:24:39Z</time>
      </trkpt>
      <trkpt lat="45.39224" lon="5.6224">
        <ele>483</ele>
        <time>2018-10-20T20:25:16Z</time>
      </trkpt>
      <trkpt lat="45.39221" lon="5.62243">
        <ele>482</ele>
        <time>2018-10-20T20:25:38Z</time>
      </trkpt>
      <trkpt lat="45.39219" lon="5.62244">
        <ele>482</ele>
        <time>2018-10-20T20:25:42Z</time>
      </trkpt>
      <trkpt lat="45.39213" lon="5.62247">
        <ele>482</ele>
        <time>2018-10-20T20:25:44Z</time>
      </trkpt>
      <trkpt lat="45.3921" lon="5.62249">
        <ele>482</ele>
        <time>2018-10-20T20:25:45Z</time>
      </trkpt>
      <trkpt lat="45.39206" lon="5.6225">
        <ele>482</ele>
        <time>2018-10-20T20:25:46Z</time>
      </trkpt>
      <trkpt lat="45.39202" lon="5.6225">
        <ele>482</ele>
        <time>2018-10-20T20:25:47Z</time>
      </trkpt>
      <trkpt lat="45.39181" lon="5.62251">
        <ele>479</ele>
        <time>2018-10-20T20:25:52Z</time>
      </trkpt>
      <trkpt lat="45.39158" lon="5.62252">
        <ele>475</ele>
        <time>2018-10-20T20:25:57Z</time>
      </trkpt>
      <trkpt lat="45.39153" lon="5.62252">
        <ele>475</ele>
        <time>2018-10-20T20:25:58Z</time>
      </trkpt>
      <trkpt lat="45.39148" lon="5.62254">
        <ele>474</ele>
        <time>2018-10-20T20:25:59Z</time>
      </trkpt>
      <trkpt lat="45.39122" lon="5.62267">
        <ele>471</ele>
        <time>2018-10-20T20:26:04Z</time>
      </trkpt>
      <trkpt lat="45.39103" lon="5.62275">
        <ele>468</ele>
        <time>2018-10-20T20:26:08Z</time>
      </trkpt>
      <trkpt lat="45.39099" lon="5.62275">
        <ele>467</ele>
        <time>2018-10-20T20:26:09Z</time>
      </trkpt>
      <trkpt lat="45.39095" lon="5.62273">
        <ele>466</ele>
        <time>2018-10-20T20:26:10Z</time>
      </trkpt>
      <trkpt lat="45.39092" lon="5.62269">
        <ele>465</ele>
        <time>2018-10-20T20:26:11Z</time>
      </trkpt>
      <trkpt lat="45.39091" lon="5.62263">
        <ele>465</ele>
        <time>2018-10-20T20:26:12Z</time>
      </trkpt>
      <trkpt lat="45.3909" lon="5.62256">
        <ele>464</ele>
        <time>2018-10-20T20:26:13Z</time>
      </trkpt>
      <trkpt lat="45.39091" lon="5.62248">
        <ele>463</ele>
        <time>2018-10-20T20:26:14Z</time>
      </trkpt>
      <trkpt lat="45.39091" lon="5.62223">
        <ele>461</ele>
        <time>2018-10-20T20:26:17Z</time>
      </trkpt>
      <trkpt lat="45.39092" lon="5.62214">
        <ele>461</ele>
        <time>2018-10-20T20:26:18Z</time>
      </trkpt>
      <trkpt lat="45.39109" lon="5.6215">
        <ele>457</ele>
        <time>2018-10-20T20:26:25Z</time>
      </trkpt>
      <trkpt lat="45.39112" lon="5.62142">
        <ele>457</ele>
        <time>2018-10-20T20:26:26Z</time>
      </trkpt>
      <trkpt lat="45.39117" lon="5.62134">
        <ele>457</ele>
        <time>2018-10-20T20:26:27Z</time>
      </trkpt>
      <trkpt lat="45.39142" lon="5.62087">
        <ele>455</ele>
        <time>2018-10-20T20:26:36Z</time>
      </trkpt>
      <trkpt lat="45.39142" lon="5.62083">
        <ele>454</ele>
        <time>2018-10-20T20:26:37Z</time>
      </trkpt>
      <trkpt lat="45.39143" lon="5.62067">
        <ele>454</ele>
        <time>2018-10-20T20:26:40Z</time>
      </trkpt>
      <trkpt lat="45.39145" lon="5.62053">
        <ele>454</ele>
        <time>2018-10-20T20:26:42Z</time>
      </trkpt>
      <trkpt lat="45.39146" lon="5.62046">
        <ele>454</ele>
        <time>2018-10-20T20:26:43Z</time>
      </trkpt>
      <trkpt lat="45.39134" lon="5.6202">
        <ele>452</ele>
        <time>2018-10-20T20:26:47Z</time>
      </trkpt>
      <trkpt lat="45.39129" lon="5.62015">
        <ele>451</ele>
        <time>2018-10-20T20:26:48Z</time>
      </trkpt>
      <trkpt lat="45.39115" lon="5.62">
        <ele>450</ele>
        <time>2018-10-20T20:26:51Z</time>
      </trkpt>
      <trkpt lat="45.39081" lon="5.61957">
        <ele>449</ele>
        <time>2018-10-20T20:27:00Z</time>
      </trkpt>
      <trkpt lat="45.39058" lon="5.61929">
        <ele>448</ele>
        <time>2018-10-20T20:27:05Z</time>
      </trkpt>
      <trkpt lat="45.39042" lon="5.61909">
        <ele>447</ele>
        <time>2018-10-20T20:27:09Z</time>
      </trkpt>
      <trkpt lat="45.39005" lon="5.61912">
        <ele>446</ele>
        <time>2018-10-20T20:27:16Z</time>
      </trkpt>
      <trkpt lat="45.39001" lon="5.61913">
        <ele>446</ele>
        <time>2018-10-20T20:27:17Z</time>
      </trkpt>
      <trkpt lat="45.38986" lon="5.61912">
        <ele>446</ele>
        <time>2018-10-20T20:27:20Z</time>
      </trkpt>
      <trkpt lat="45.38948" lon="5.61926">
        <ele>445</ele>
        <time>2018-10-20T20:27:28Z</time>
      </trkpt>
      <trkpt lat="45.38933" lon="5.61931">
        <ele>444</ele>
        <time>2018-10-20T20:27:31Z</time>
      </trkpt>
      <trkpt lat="45.38923" lon="5.61937">
        <ele>444</ele>
        <time>2018-10-20T20:27:33Z</time>
      </trkpt>
      <trkpt lat="45.38905" lon="5.61952">
        <ele>443</ele>
        <time>2018-10-20T20:27:37Z</time>
      </trkpt>
      <trkpt lat="45.38877" lon="5.61991">
        <ele>442</ele>
        <time>2018-10-20T20:27:44Z</time>
      </trkpt>
      <trkpt lat="45.38849" lon="5.62003">
        <ele>442</ele>
        <time>2018-10-20T20:27:50Z</time>
      </trkpt>
      <trkpt lat="45.3884" lon="5.61996">
        <ele>442</ele>
        <time>2018-10-20T20:27:52Z</time>
      </trkpt>
      <trkpt lat="45.38789" lon="5.61937">
        <ele>441</ele>
        <time>2018-10-20T20:28:05Z</time>
      </trkpt>
      <trkpt lat="45.38753" lon="5.61924">
        <ele>441</ele>
        <time>2018-10-20T20:28:15Z</time>
      </trkpt>
      <trkpt lat="45.38723" lon="5.61899">
        <ele>444</ele>
        <time>2018-10-20T20:28:29Z</time>
      </trkpt>
      <trkpt lat="45.387" lon="5.61897">
        <ele>446</ele>
        <time>2018-10-20T20:28:40Z</time>
      </trkpt>
      <trkpt lat="45.38696" lon="5.6189">
        <ele>447</ele>
        <time>2018-10-20T20:28:44Z</time>
      </trkpt>
      <trkpt lat="45.38695" lon="5.61846">
        <ele>450</ele>
        <time>2018-10-20T20:29:02Z</time>
      </trkpt>
      <trkpt lat="45.38692" lon="5.61795">
        <ele>452</ele>
        <time>2018-10-20T20:29:23Z</time>
      </trkpt>
      <trkpt lat="45.38692" lon="5.61755">
        <ele>456</ele>
        <time>2018-10-20T20:29:41Z</time>
      </trkpt>
      <trkpt lat="45.38695" lon="5.61717">
        <ele>458</ele>
        <time>2018-10-20T20:29:59Z</time>
      </trkpt>
      <trkpt lat="45.38699" lon="5.61673">
        <ele>462</ele>
        <time>2018-10-20T20:30:19Z</time>
      </trkpt>
      <trkpt lat="45.38699" lon="5.61634">
        <ele>465</ele>
        <time>2018-10-20T20:30:35Z</time>
      </trkpt>
      <trkpt lat="45.38691" lon="5.61609">
        <ele>468</ele>
        <time>2018-10-20T20:30:48Z</time>
      </trkpt>
      <trkpt lat="45.38687" lon="5.61582">
        <ele>471</ele>
        <time>2018-10-20T20:31:04Z</time>
      </trkpt>
      <trkpt lat="45.38685" lon="5.61557">
        <ele>474</ele>
        <time>2018-10-20T20:31:18Z</time>
      </trkpt>
      <trkpt lat="45.38686" lon="5.6153">
        <ele>477</ele>
        <time>2018-10-20T20:31:34Z</time>
      </trkpt>
      <trkpt lat="45.38686" lon="5.61502">
        <ele>480</ele>
        <time>2018-10-20T20:31:50Z</time>
      </trkpt>
      <trkpt lat="45.38685" lon="5.61474">
        <ele>484</ele>
        <time>2018-10-20T20:32:06Z</time>
      </trkpt>
      <trkpt lat="45.38683" lon="5.61448">
        <ele>487</ele>
        <time>2018-10-20T20:32:21Z</time>
      </trkpt>
      <trkpt lat="45.38683" lon="5.61428">
        <ele>490</ele>
        <time>2018-10-20T20:32:33Z</time>
      </trkpt>
      <trkpt lat="45.38681" lon="5.61407">
        <ele>493</ele>
        <time>2018-10-20T20:32:45Z</time>
      </trkpt>
      <trkpt lat="45.38671" lon="5.61378">
        <ele>496</ele>
        <time>2018-10-20T20:33:02Z</time>
      </trkpt>
      <trkpt lat="45.38663" lon="5.6136">
        <ele>498</ele>
        <time>2018-10-20T20:33:17Z</time>
      </trkpt>
      <trkpt lat="45.38663" lon="5.6136">
        <ele>498</ele>
        <time>2018-10-20T20:33:28Z</time>
      </trkpt>
      <trkpt lat="45.38657" lon="5.61356">
        <ele>498</ele>
        <time>2018-10-20T20:33:32Z</time>
      </trkpt>
      <trkpt lat="45.38621" lon="5.61338">
        <ele>499</ele>
        <time>2018-10-20T20:33:49Z</time>
      </trkpt>
      <trkpt lat="45.38577" lon="5.61338">
        <ele>501</ele>
        <time>2018-10-20T20:34:07Z</time>
      </trkpt>
      <trkpt lat="45.38519" lon="5.61335">
        <ele>502</ele>
        <time>2018-10-20T20:34:26Z</time>
      </trkpt>
      <trkpt lat="45.38464" lon="5.61321">
        <ele>503</ele>
        <time>2018-10-20T20:34:43Z</time>
      </trkpt>
      <trkpt lat="45.3839" lon="5.61286">
        <ele>505</ele>
        <time>2018-10-20T20:35:06Z</time>
      </trkpt>
      <trkpt lat="45.38345" lon="5.61254">
        <ele>508</ele>
        <time>2018-10-20T20:35:22Z</time>
      </trkpt>
      <trkpt lat="45.38324" lon="5.61247">
        <ele>508</ele>
        <time>2018-10-20T20:35:29Z</time>
      </trkpt>
      <trkpt lat="45.38323" lon="5.6125">
        <ele>508</ele>
        <time>2018-10-20T20:35:30Z</time>
      </trkpt>
      <trkpt lat="45.38321" lon="5.61254">
        <ele>508</ele>
        <time>2018-10-20T20:35:31Z</time>
      </trkpt>
      <trkpt lat="45.38321" lon="5.61259">
        <ele>508</ele>
        <time>2018-10-20T20:35:32Z</time>
      </trkpt>
      <trkpt lat="45.3832" lon="5.61264">
        <ele>509</ele>
        <time>2018-10-20T20:35:33Z</time>
      </trkpt>
      <trkpt lat="45.38317" lon="5.61356">
        <ele>508</ele>
        <time>2018-10-20T20:35:51Z</time>
      </trkpt>
      <trkpt lat="45.38318" lon="5.61399">
        <ele>508</ele>
        <time>2018-10-20T20:35:58Z</time>
      </trkpt>
      <trkpt lat="45.38316" lon="5.61405">
        <ele>508</ele>
        <time>2018-10-20T20:35:59Z</time>
      </trkpt>
      <trkpt lat="45.38314" lon="5.61408">
        <ele>507</ele>
        <time>2018-10-20T20:36:00Z</time>
      </trkpt>
      <trkpt lat="45.38312" lon="5.61409">
        <ele>507</ele>
        <time>2018-10-20T20:36:01Z</time>
      </trkpt>
      <trkpt lat="45.38311" lon="5.61409">
        <ele>507</ele>
        <time>2018-10-20T20:36:02Z</time>
      </trkpt>
      <trkpt lat="45.3831" lon="5.61409">
        <ele>507</ele>
        <time>2018-10-20T20:36:03Z</time>
      </trkpt>
      <trkpt lat="45.38309" lon="5.61409">
        <ele>507</ele>
        <time>2018-10-20T20:36:04Z</time>
      </trkpt>
      <trkpt lat="45.38292" lon="5.6141">
        <ele>508</ele>
        <time>2018-10-20T20:36:12Z</time>
      </trkpt>
      <trkpt lat="45.38283" lon="5.61411">
        <ele>508</ele>
        <time>2018-10-20T20:36:16Z</time>
      </trkpt>
      <trkpt lat="45.38253" lon="5.61419">
        <ele>511</ele>
        <time>2018-10-20T20:36:34Z</time>
      </trkpt>
      <trkpt lat="45.38248" lon="5.61455">
        <ele>514</ele>
        <time>2018-10-20T20:36:49Z</time>
      </trkpt>
      <trkpt lat="45.3825" lon="5.61499">
        <ele>515</ele>
        <time>2018-10-20T20:37:03Z</time>
      </trkpt>
      <trkpt lat="45.38248" lon="5.61541">
        <ele>515</ele>
        <time>2018-10-20T20:37:15Z</time>
      </trkpt>
      <trkpt lat="45.38242" lon="5.61581">
        <ele>516</ele>
        <time>2018-10-20T20:37:28Z</time>
      </trkpt>
      <trkpt lat="45.3823" lon="5.61608">
        <ele>519</ele>
        <time>2018-10-20T20:37:40Z</time>
      </trkpt>
      <trkpt lat="45.38215" lon="5.61632">
        <ele>522</ele>
        <time>2018-10-20T20:37:53Z</time>
      </trkpt>
      <trkpt lat="45.38203" lon="5.61657">
        <ele>523</ele>
        <time>2018-10-20T20:38:06Z</time>
      </trkpt>
      <trkpt lat="45.38198" lon="5.61666">
        <ele>524</ele>
        <time>2018-10-20T20:38:10Z</time>
      </trkpt>
      <trkpt lat="45.38194" lon="5.61675">
        <ele>524</ele>
        <time>2018-10-20T20:38:14Z</time>
      </trkpt>
      <trkpt lat="45.38191" lon="5.61683">
        <ele>524</ele>
        <time>2018-10-20T20:38:17Z</time>
      </trkpt>
      <trkpt lat="45.38168" lon="5.61718">
        <ele>525</ele>
        <time>2018-10-20T20:38:32Z</time>
      </trkpt>
      <trkpt lat="45.38145" lon="5.61741">
        <ele>527</ele>
        <time>2018-10-20T20:38:47Z</time>
      </trkpt>
      <trkpt lat="45.38138" lon="5.6175">
        <ele>528</ele>
        <time>2018-10-20T20:38:52Z</time>
      </trkpt>
      <trkpt lat="45.38131" lon="5.6176">
        <ele>529</ele>
        <time>2018-10-20T20:38:58Z</time>
      </trkpt>
      <trkpt lat="45.38122" lon="5.61769">
        <ele>530</ele>
        <time>2018-10-20T20:39:04Z</time>
      </trkpt>
      <trkpt lat="45.38105" lon="5.61789">
        <ele>533</ele>
        <time>2018-10-20T20:39:18Z</time>
      </trkpt>
      <trkpt lat="45.3808" lon="5.618">
        <ele>536</ele>
        <time>2018-10-20T20:39:35Z</time>
      </trkpt>
      <trkpt lat="45.38072" lon="5.61798">
        <ele>538</ele>
        <time>2018-10-20T20:39:41Z</time>
      </trkpt>
      <trkpt lat="45.38054" lon="5.61805">
        <ele>541</ele>
        <time>2018-10-20T20:39:55Z</time>
      </trkpt>
      <trkpt lat="45.38045" lon="5.61808">
        <ele>543</ele>
        <time>2018-10-20T20:40:04Z</time>
      </trkpt>
      <trkpt lat="45.38025" lon="5.6182">
        <ele>547</ele>
        <time>2018-10-20T20:40:21Z</time>
      </trkpt>
      <trkpt lat="45.38009" lon="5.61838">
        <ele>548</ele>
        <time>2018-10-20T20:40:33Z</time>
      </trkpt>
      <trkpt lat="45.3799" lon="5.61861">
        <ele>549</ele>
        <time>2018-10-20T20:40:47Z</time>
      </trkpt>
      <trkpt lat="45.37971" lon="5.61885">
        <ele>550</ele>
        <time>2018-10-20T20:40:59Z</time>
      </trkpt>
      <trkpt lat="45.37946" lon="5.6192">
        <ele>550</ele>
        <time>2018-10-20T20:41:12Z</time>
      </trkpt>
      <trkpt lat="45.37935" lon="5.61936">
        <ele>550</ele>
        <time>2018-10-20T20:41:16Z</time>
      </trkpt>
      <trkpt lat="45.37912" lon="5.61977">
        <ele>549</ele>
        <time>2018-10-20T20:41:27Z</time>
      </trkpt>
      <trkpt lat="45.3791" lon="5.6198">
        <ele>549</ele>
        <time>2018-10-20T20:41:28Z</time>
      </trkpt>
      <trkpt lat="45.37889" lon="5.62019">
        <ele>549</ele>
        <time>2018-10-20T20:41:39Z</time>
      </trkpt>
      <trkpt lat="45.3788" lon="5.62046">
        <ele>550</ele>
        <time>2018-10-20T20:41:46Z</time>
      </trkpt>
      <trkpt lat="45.3787" lon="5.62077">
        <ele>548</ele>
        <time>2018-10-20T20:41:54Z</time>
      </trkpt>
      <trkpt lat="45.37862" lon="5.62119">
        <ele>545</ele>
        <time>2018-10-20T20:42:01Z</time>
      </trkpt>
      <trkpt lat="45.37858" lon="5.62138">
        <ele>542</ele>
        <time>2018-10-20T20:42:05Z</time>
      </trkpt>
      <trkpt lat="45.37857" lon="5.62154">
        <ele>542</ele>
        <time>2018-10-20T20:42:09Z</time>
      </trkpt>
      <trkpt lat="45.37857" lon="5.62174">
        <ele>541</ele>
        <time>2018-10-20T20:42:15Z</time>
      </trkpt>
      <trkpt lat="45.37856" lon="5.62222">
        <ele>539</ele>
        <time>2018-10-20T20:42:27Z</time>
      </trkpt>
      <trkpt lat="45.37856" lon="5.62245">
        <ele>538</ele>
        <time>2018-10-20T20:42:34Z</time>
      </trkpt>
      <trkpt lat="45.37856" lon="5.62272">
        <ele>536</ele>
        <time>2018-10-20T20:42:41Z</time>
      </trkpt>
      <trkpt lat="45.3786" lon="5.6229">
        <ele>531</ele>
        <time>2018-10-20T20:42:48Z</time>
      </trkpt>
      <trkpt lat="45.37864" lon="5.62293">
        <ele>529</ele>
        <time>2018-10-20T20:42:50Z</time>
      </trkpt>
      <trkpt lat="45.37869" lon="5.62318">
        <ele>525</ele>
        <time>2018-10-20T20:42:54Z</time>
      </trkpt>
      <trkpt lat="45.37885" lon="5.62363">
        <ele>523</ele>
        <time>2018-10-20T20:43:03Z</time>
      </trkpt>
      <trkpt lat="45.37888" lon="5.62372">
        <ele>523</ele>
        <time>2018-10-20T20:43:13Z</time>
      </trkpt>
      <trkpt lat="45.3789" lon="5.6238">
        <ele>523</ele>
        <time>2018-10-20T20:43:41Z</time>
      </trkpt>
      <trkpt lat="45.37894" lon="5.62391">
        <ele>523</ele>
        <time>2018-10-20T20:44:03Z</time>
      </trkpt>
      <trkpt lat="45.37897" lon="5.62417">
        <ele>521</ele>
        <time>2018-10-20T20:44:10Z</time>
      </trkpt>
      <trkpt lat="45.37906" lon="5.62444">
        <ele>517</ele>
        <time>2018-10-20T20:44:15Z</time>
      </trkpt>
      <trkpt lat="45.3791" lon="5.62459">
        <ele>513</ele>
        <time>2018-10-20T20:44:18Z</time>
      </trkpt>
      <trkpt lat="45.37914" lon="5.62476">
        <ele>510</ele>
        <time>2018-10-20T20:44:21Z</time>
      </trkpt>
      <trkpt lat="45.37916" lon="5.62494">
        <ele>507</ele>
        <time>2018-10-20T20:44:25Z</time>
      </trkpt>
      <trkpt lat="45.3792" lon="5.62519">
        <ele>506</ele>
        <time>2018-10-20T20:44:30Z</time>
      </trkpt>
      <trkpt lat="45.37922" lon="5.6254">
        <ele>505</ele>
        <time>2018-10-20T20:44:33Z</time>
      </trkpt>
      <trkpt lat="45.37923" lon="5.62554">
        <ele>504</ele>
        <time>2018-10-20T20:44:35Z</time>
      </trkpt>
      <trkpt lat="45.37922" lon="5.62585">
        <ele>503</ele>
        <time>2018-10-20T20:44:39Z</time>
      </trkpt>
      <trkpt lat="45.37914" lon="5.62625">
        <ele>501</ele>
        <time>2018-10-20T20:44:44Z</time>
      </trkpt>
      <trkpt lat="45.37908" lon="5.62646">
        <ele>499</ele>
        <time>2018-10-20T20:44:47Z</time>
      </trkpt>
      <trkpt lat="45.37895" lon="5.62686">
        <ele>497</ele>
        <time>2018-10-20T20:44:57Z</time>
      </trkpt>
      <trkpt lat="45.37889" lon="5.62704">
        <ele>496</ele>
        <time>2018-10-20T20:45:08Z</time>
      </trkpt>
      <trkpt lat="45.37873" lon="5.62729">
        <ele>493</ele>
        <time>2018-10-20T20:45:16Z</time>
      </trkpt>
      <trkpt lat="45.3786" lon="5.62739">
        <ele>490</ele>
        <time>2018-10-20T20:45:24Z</time>
      </trkpt>
      <trkpt lat="45.37851" lon="5.62748">
        <ele>488</ele>
        <time>2018-10-20T20:45:34Z</time>
      </trkpt>
      <trkpt lat="45.37841" lon="5.62758">
        <ele>487</ele>
        <time>2018-10-20T20:45:38Z</time>
      </trkpt>
      <trkpt lat="45.37826" lon="5.62767">
        <ele>483</ele>
        <time>2018-10-20T20:45:44Z</time>
      </trkpt>
      <trkpt lat="45.37824" lon="5.62768">
        <ele>481</ele>
        <time>2018-10-20T20:45:57Z</time>
      </trkpt>
      <trkpt lat="45.37797" lon="5.62779">
        <ele>480</ele>
        <time>2018-10-20T20:46:07Z</time>
      </trkpt>
      <trkpt lat="45.37777" lon="5.62785">
        <ele>477</ele>
        <time>2018-10-20T20:46:12Z</time>
      </trkpt>
      <trkpt lat="45.37773" lon="5.62786">
        <ele>476</ele>
        <time>2018-10-20T20:46:13Z</time>
      </trkpt>
      <trkpt lat="45.3776" lon="5.62799">
        <ele>472</ele>
        <time>2018-10-20T20:46:17Z</time>
      </trkpt>
      <trkpt lat="45.37756" lon="5.62808">
        <ele>469</ele>
        <time>2018-10-20T20:46:19Z</time>
      </trkpt>
      <trkpt lat="45.37752" lon="5.62827">
        <ele>464</ele>
        <time>2018-10-20T20:46:23Z</time>
      </trkpt>
      <trkpt lat="45.37736" lon="5.62836">
        <ele>459</ele>
        <time>2018-10-20T20:46:28Z</time>
      </trkpt>
      <trkpt lat="45.37723" lon="5.62834">
        <ele>457</ele>
        <time>2018-10-20T20:46:30Z</time>
      </trkpt>
      <trkpt lat="45.37717" lon="5.62832">
        <ele>456</ele>
        <time>2018-10-20T20:46:31Z</time>
      </trkpt>
      <trkpt lat="45.37713" lon="5.6283">
        <ele>456</ele>
        <time>2018-10-20T20:46:32Z</time>
      </trkpt>
      <trkpt lat="45.37687" lon="5.62819">
        <ele>457</ele>
        <time>2018-10-20T20:46:43Z</time>
      </trkpt>
      <trkpt lat="45.37665" lon="5.62805">
        <ele>460</ele>
        <time>2018-10-20T20:46:56Z</time>
      </trkpt>
      <trkpt lat="45.37648" lon="5.62787">
        <ele>463</ele>
        <time>2018-10-20T20:47:08Z</time>
      </trkpt>
      <trkpt lat="45.37626" lon="5.62752">
        <ele>466</ele>
        <time>2018-10-20T20:47:24Z</time>
      </trkpt>
      <trkpt lat="45.37622" lon="5.62748">
        <ele>466</ele>
        <time>2018-10-20T20:47:26Z</time>
      </trkpt>
      <trkpt lat="45.37621" lon="5.62746">
        <ele>466</ele>
        <time>2018-10-20T20:47:27Z</time>
      </trkpt>
      <trkpt lat="45.37619" lon="5.62744">
        <ele>466</ele>
        <time>2018-10-20T20:47:28Z</time>
      </trkpt>
      <trkpt lat="45.37617" lon="5.62743">
        <ele>467</ele>
        <time>2018-10-20T20:47:29Z</time>
      </trkpt>
      <trkpt lat="45.37615" lon="5.62741">
        <ele>467</ele>
        <time>2018-10-20T20:47:30Z</time>
      </trkpt>
      <trkpt lat="45.37613" lon="5.62738">
        <ele>467</ele>
        <time>2018-10-20T20:47:31Z</time>
      </trkpt>
      <trkpt lat="45.37595" lon="5.6272">
        <ele>468</ele>
        <time>2018-10-20T20:47:38Z</time>
      </trkpt>
      <trkpt lat="45.37592" lon="5.62716">
        <ele>468</ele>
        <time>2018-10-20T20:47:39Z</time>
      </trkpt>
      <trkpt lat="45.37566" lon="5.62682">
        <ele>470</ele>
        <time>2018-10-20T20:47:52Z</time>
      </trkpt>
      <trkpt lat="45.37533" lon="5.62625">
        <ele>471</ele>
        <time>2018-10-20T20:48:11Z</time>
      </trkpt>
      <trkpt lat="45.37504" lon="5.62571">
        <ele>473</ele>
        <time>2018-10-20T20:48:28Z</time>
      </trkpt>
      <trkpt lat="45.37491" lon="5.62552">
        <ele>474</ele>
        <time>2018-10-20T20:48:36Z</time>
      </trkpt>
      <trkpt lat="45.37488" lon="5.62553">
        <ele>474</ele>
        <time>2018-10-20T20:48:37Z</time>
      </trkpt>
      <trkpt lat="45.37485" lon="5.62555">
        <ele>474</ele>
        <time>2018-10-20T20:48:38Z</time>
      </trkpt>
      <trkpt lat="45.37482" lon="5.62559">
        <ele>474</ele>
        <time>2018-10-20T20:48:39Z</time>
      </trkpt>
      <trkpt lat="45.3748" lon="5.62563">
        <ele>474</ele>
        <time>2018-10-20T20:48:40Z</time>
      </trkpt>
      <trkpt lat="45.37474" lon="5.6257">
        <ele>473</ele>
        <time>2018-10-20T20:48:42Z</time>
      </trkpt>
      <trkpt lat="45.3746" lon="5.62586">
        <ele>471</ele>
        <time>2018-10-20T20:48:46Z</time>
      </trkpt>
      <trkpt lat="45.37455" lon="5.62586">
        <ele>470</ele>
        <time>2018-10-20T20:48:47Z</time>
      </trkpt>
      <trkpt lat="45.37451" lon="5.62584">
        <ele>470</ele>
        <time>2018-10-20T20:48:48Z</time>
      </trkpt>
      <trkpt lat="45.37447" lon="5.62582">
        <ele>470</ele>
        <time>2018-10-20T20:48:49Z</time>
      </trkpt>
      <trkpt lat="45.37444" lon="5.6258">
        <ele>469</ele>
        <time>2018-10-20T20:48:50Z</time>
      </trkpt>
      <trkpt lat="45.3742" lon="5.62559">
        <ele>470</ele>
        <time>2018-10-20T20:49:00Z</time>
      </trkpt>
      <trkpt lat="45.37381" lon="5.62516">
        <ele>470</ele>
        <time>2018-10-20T20:49:15Z</time>
      </trkpt>
      <trkpt lat="45.37345" lon="5.62462">
        <ele>471</ele>
        <time>2018-10-20T20:49:30Z</time>
      </trkpt>
      <trkpt lat="45.37329" lon="5.62399">
        <ele>474</ele>
        <time>2018-10-20T20:49:46Z</time>
      </trkpt>
      <trkpt lat="45.37312" lon="5.62353">
        <ele>473</ele>
        <time>2018-10-20T20:49:55Z</time>
      </trkpt>
      <trkpt lat="45.37309" lon="5.62347">
        <ele>473</ele>
        <time>2018-10-20T20:49:56Z</time>
      </trkpt>
      <trkpt lat="45.37295" lon="5.62325">
        <ele>473</ele>
        <time>2018-10-20T20:50:00Z</time>
      </trkpt>
      <trkpt lat="45.37223" lon="5.62257">
        <ele>472</ele>
        <time>2018-10-20T20:50:18Z</time>
      </trkpt>
      <trkpt lat="45.37201" lon="5.62243">
        <ele>471</ele>
        <time>2018-10-20T20:50:25Z</time>
      </trkpt>
      <trkpt lat="45.37198" lon="5.62246">
        <ele>471</ele>
        <time>2018-10-20T20:50:26Z</time>
      </trkpt>
      <trkpt lat="45.37193" lon="5.62255">
        <ele>471</ele>
        <time>2018-10-20T20:50:28Z</time>
      </trkpt>
      <trkpt lat="45.37187" lon="5.6227">
        <ele>470</ele>
        <time>2018-10-20T20:50:31Z</time>
      </trkpt>
      <trkpt lat="45.37171" lon="5.62288">
        <ele>470</ele>
        <time>2018-10-20T20:50:35Z</time>
      </trkpt>
      <trkpt lat="45.37139" lon="5.62311">
        <ele>466</ele>
        <time>2018-10-20T20:50:40Z</time>
      </trkpt>
      <trkpt lat="45.37126" lon="5.62323">
        <ele>463</ele>
        <time>2018-10-20T20:50:43Z</time>
      </trkpt>
      <trkpt lat="45.37106" lon="5.6234">
        <ele>459</ele>
        <time>2018-10-20T20:50:47Z</time>
      </trkpt>
      <trkpt lat="45.37084" lon="5.62358">
        <ele>455</ele>
        <time>2018-10-20T20:50:51Z</time>
      </trkpt>
      <trkpt lat="45.37069" lon="5.6237">
        <ele>452</ele>
        <time>2018-10-20T20:50:54Z</time>
      </trkpt>
      <trkpt lat="45.37046" lon="5.62403">
        <ele>448</ele>
        <time>2018-10-20T20:50:59Z</time>
      </trkpt>
      <trkpt lat="45.37015" lon="5.62479">
        <ele>445</ele>
        <time>2018-10-20T20:51:08Z</time>
      </trkpt>
      <trkpt lat="45.37001" lon="5.62524">
        <ele>442</ele>
        <time>2018-10-20T20:51:13Z</time>
      </trkpt>
      <trkpt lat="45.36995" lon="5.62549">
        <ele>441</ele>
        <time>2018-10-20T20:51:16Z</time>
      </trkpt>
      <trkpt lat="45.36976" lon="5.62581">
        <ele>439</ele>
        <time>2018-10-20T20:51:22Z</time>
      </trkpt>
      <trkpt lat="45.36967" lon="5.62596">
        <ele>437</ele>
        <time>2018-10-20T20:51:25Z</time>
      </trkpt>
      <trkpt lat="45.36954" lon="5.6261">
        <ele>435</ele>
        <time>2018-10-20T20:51:28Z</time>
      </trkpt>
      <trkpt lat="45.36926" lon="5.62632">
        <ele>432</ele>
        <time>2018-10-20T20:51:35Z</time>
      </trkpt>
      <trkpt lat="45.369" lon="5.62651">
        <ele>428</ele>
        <time>2018-10-20T20:51:41Z</time>
      </trkpt>
      <trkpt lat="45.36897" lon="5.62657">
        <ele>427</ele>
        <time>2018-10-20T20:51:42Z</time>
      </trkpt>
      <trkpt lat="45.36892" lon="5.62667">
        <ele>424</ele>
        <time>2018-10-20T20:51:44Z</time>
      </trkpt>
      <trkpt lat="45.36891" lon="5.62699">
        <ele>420</ele>
        <time>2018-10-20T20:51:50Z</time>
      </trkpt>
      <trkpt lat="45.36894" lon="5.62717">
        <ele>418</ele>
        <time>2018-10-20T20:51:53Z</time>
      </trkpt>
      <trkpt lat="45.36898" lon="5.62734">
        <ele>417</ele>
        <time>2018-10-20T20:51:55Z</time>
      </trkpt>
      <trkpt lat="45.36902" lon="5.62785">
        <ele>415</ele>
        <time>2018-10-20T20:52:01Z</time>
      </trkpt>
      <trkpt lat="45.36881" lon="5.62831">
        <ele>411</ele>
        <time>2018-10-20T20:52:09Z</time>
      </trkpt>
      <trkpt lat="45.36868" lon="5.6282">
        <ele>409</ele>
        <time>2018-10-20T20:52:12Z</time>
      </trkpt>
      <trkpt lat="45.36844" lon="5.62812">
        <ele>404</ele>
        <time>2018-10-20T20:52:16Z</time>
      </trkpt>
      <trkpt lat="45.36816" lon="5.62834">
        <ele>400</ele>
        <time>2018-10-20T20:52:20Z</time>
      </trkpt>
      <trkpt lat="45.3681" lon="5.62842">
        <ele>399</ele>
        <time>2018-10-20T20:52:21Z</time>
      </trkpt>
      <trkpt lat="45.36803" lon="5.62848">
        <ele>398</ele>
        <time>2018-10-20T20:52:22Z</time>
      </trkpt>
      <trkpt lat="45.36795" lon="5.62854">
        <ele>397</ele>
        <time>2018-10-20T20:52:23Z</time>
      </trkpt>
      <trkpt lat="45.36788" lon="5.62858">
        <ele>396</ele>
        <time>2018-10-20T20:52:24Z</time>
      </trkpt>
      <trkpt lat="45.36781" lon="5.62861">
        <ele>395</ele>
        <time>2018-10-20T20:52:25Z</time>
      </trkpt>
      <trkpt lat="45.36766" lon="5.62867">
        <ele>394</ele>
        <time>2018-10-20T20:52:31Z</time>
      </trkpt>
      <trkpt lat="45.36764" lon="5.6287">
        <ele>394</ele>
        <time>2018-10-20T20:52:52Z</time>
      </trkpt>
      <trkpt lat="45.36763" lon="5.62869">
        <ele>388</ele>
        <time>2018-10-20T20:53:38Z</time>
      </trkpt>
      <trkpt lat="45.36763" lon="5.62869">
        <ele>391</ele>
        <time>2018-10-20T20:53:39Z</time>
      </trkpt>
      <trkpt lat="45.36764" lon="5.6287">
        <ele>394</ele>
        <time>2018-10-20T20:57:25Z</time>
      </trkpt>
      <trkpt lat="45.36762" lon="5.6287">
        <ele>394</ele>
        <time>2018-10-20T21:00:40Z</time>
      </trkpt>
      <trkpt lat="45.36759" lon="5.62868">
        <ele>394</ele>
        <time>2018-10-20T21:03:48Z</time>
      </trkpt>
      <trkpt lat="45.36758" lon="5.62872">
        <ele>394</ele>
        <time>2018-10-20T21:05:27Z</time>
      </trkpt>
      <trkpt lat="45.36757" lon="5.62869">
        <ele>394</ele>
        <time>2018-10-20T21:05:31Z</time>
      </trkpt>
      <trkpt lat="45.36757" lon="5.62868">
        <ele>394</ele>
        <time>2018-10-20T21:05:32Z</time>
      </trkpt>
      <trkpt lat="45.36756" lon="5.62866">
        <ele>394</ele>
        <time>2018-10-20T21:05:33Z</time>
      </trkpt>
      <trkpt lat="45.36755" lon="5.62863">
        <ele>394</ele>
        <time>2018-10-20T21:05:34Z</time>
      </trkpt>
      <trkpt lat="45.3674" lon="5.62806">
        <ele>394</ele>
        <time>2018-10-20T21:05:47Z</time>
      </trkpt>
      <trkpt lat="45.36712" lon="5.62726">
        <ele>394</ele>
        <time>2018-10-20T21:06:04Z</time>
      </trkpt>
      <trkpt lat="45.36701" lon="5.6267">
        <ele>395</ele>
        <time>2018-10-20T21:06:16Z</time>
      </trkpt>
      <trkpt lat="45.36691" lon="5.62539">
        <ele>396</ele>
        <time>2018-10-20T21:06:37Z</time>
      </trkpt>
      <trkpt lat="45.36676" lon="5.62419">
        <ele>397</ele>
        <time>2018-10-20T21:06:55Z</time>
      </trkpt>
      <trkpt lat="45.36633" lon="5.6228">
        <ele>399</ele>
        <time>2018-10-20T21:07:17Z</time>
      </trkpt>
      <trkpt lat="45.36611" lon="5.62227">
        <ele>400</ele>
        <time>2018-10-20T21:07:28Z</time>
      </trkpt>
      <trkpt lat="45.36552" lon="5.62157">
        <ele>401</ele>
        <time>2018-10-20T21:07:45Z</time>
      </trkpt>
      <trkpt lat="45.36548" lon="5.62153">
        <ele>401</ele>
        <time>2018-10-20T21:07:46Z</time>
      </trkpt>
      <trkpt lat="45.36535" lon="5.62136">
        <ele>401</ele>
        <time>2018-10-20T21:07:50Z</time>
      </trkpt>
      <trkpt lat="45.36532" lon="5.62131">
        <ele>401</ele>
        <time>2018-10-20T21:07:51Z</time>
      </trkpt>
      <trkpt lat="45.3653" lon="5.62125">
        <ele>401</ele>
        <time>2018-10-20T21:07:52Z</time>
      </trkpt>
      <trkpt lat="45.36526" lon="5.62114">
        <ele>401</ele>
        <time>2018-10-20T21:07:54Z</time>
      </trkpt>
      <trkpt lat="45.36523" lon="5.62109">
        <ele>401</ele>
        <time>2018-10-20T21:07:55Z</time>
      </trkpt>
      <trkpt lat="45.36519" lon="5.62106">
        <ele>401</ele>
        <time>2018-10-20T21:07:56Z</time>
      </trkpt>
      <trkpt lat="45.36515" lon="5.62105">
        <ele>401</ele>
        <time>2018-10-20T21:07:57Z</time>
      </trkpt>
      <trkpt lat="45.3651" lon="5.62104">
        <ele>401</ele>
        <time>2018-10-20T21:07:58Z</time>
      </trkpt>
      <trkpt lat="45.36505" lon="5.62104">
        <ele>402</ele>
        <time>2018-10-20T21:07:59Z</time>
      </trkpt>
      <trkpt lat="45.36501" lon="5.62104">
        <ele>402</ele>
        <time>2018-10-20T21:08:00Z</time>
      </trkpt>
      <trkpt lat="45.36496" lon="5.62104">
        <ele>402</ele>
        <time>2018-10-20T21:08:01Z</time>
      </trkpt>
      <trkpt lat="45.36492" lon="5.62103">
        <ele>402</ele>
        <time>2018-10-20T21:08:02Z</time>
      </trkpt>
      <trkpt lat="45.36489" lon="5.62098">
        <ele>401</ele>
        <time>2018-10-20T21:08:09Z</time>
      </trkpt>
      <trkpt lat="45.36488" lon="5.62098">
        <ele>401</ele>
        <time>2018-10-20T21:08:10Z</time>
      </trkpt>
      <trkpt lat="45.36484" lon="5.62094">
        <ele>398</ele>
        <time>2018-10-20T21:08:16Z</time>
      </trkpt>
      <trkpt lat="45.36481" lon="5.6209">
        <ele>395</ele>
        <time>2018-10-20T21:08:23Z</time>
      </trkpt>
      <trkpt lat="45.36479" lon="5.62089">
        <ele>395</ele>
        <time>2018-10-20T21:08:26Z</time>
      </trkpt>
      <trkpt lat="45.36477" lon="5.6209">
        <ele>395</ele>
        <time>2018-10-20T21:08:27Z</time>
      </trkpt>
      <trkpt lat="45.36474" lon="5.6209">
        <ele>394</ele>
        <time>2018-10-20T21:08:28Z</time>
      </trkpt>
      <trkpt lat="45.3643" lon="5.62092">
        <ele>392</ele>
        <time>2018-10-20T21:08:37Z</time>
      </trkpt>
      <trkpt lat="45.36394" lon="5.6209">
        <ele>389</ele>
        <time>2018-10-20T21:08:42Z</time>
      </trkpt>
      <trkpt lat="45.36386" lon="5.62089">
        <ele>388</ele>
        <time>2018-10-20T21:08:43Z</time>
      </trkpt>
      <trkpt lat="45.36378" lon="5.62087">
        <ele>387</ele>
        <time>2018-10-20T21:08:44Z</time>
      </trkpt>
      <trkpt lat="45.36358" lon="5.62049">
        <ele>382</ele>
        <time>2018-10-20T21:08:49Z</time>
      </trkpt>
      <trkpt lat="45.36356" lon="5.62011">
        <ele>379</ele>
        <time>2018-10-20T21:08:52Z</time>
      </trkpt>
      <trkpt lat="45.36354" lon="5.61961">
        <ele>375</ele>
        <time>2018-10-20T21:08:56Z</time>
      </trkpt>
      <trkpt lat="45.36331" lon="5.61913">
        <ele>371</ele>
        <time>2018-10-20T21:09:01Z</time>
      </trkpt>
      <trkpt lat="45.36324" lon="5.61907">
        <ele>371</ele>
        <time>2018-10-20T21:09:02Z</time>
      </trkpt>
      <trkpt lat="45.36316" lon="5.61903">
        <ele>369</ele>
        <time>2018-10-20T21:09:03Z</time>
      </trkpt>
      <trkpt lat="45.36278" lon="5.6187">
        <ele>364</ele>
        <time>2018-10-20T21:09:09Z</time>
      </trkpt>
      <trkpt lat="45.36268" lon="5.61859">
        <ele>362</ele>
        <time>2018-10-20T21:09:11Z</time>
      </trkpt>
      <trkpt lat="45.36231" lon="5.61841">
        <ele>358</ele>
        <time>2018-10-20T21:09:17Z</time>
      </trkpt>
      <trkpt lat="45.36196" lon="5.61829">
        <ele>355</ele>
        <time>2018-10-20T21:09:22Z</time>
      </trkpt>
      <trkpt lat="45.36166" lon="5.61828">
        <ele>352</ele>
        <time>2018-10-20T21:09:28Z</time>
      </trkpt>
      <trkpt lat="45.36156" lon="5.61833">
        <ele>350</ele>
        <time>2018-10-20T21:09:31Z</time>
      </trkpt>
      <trkpt lat="45.36149" lon="5.61839">
        <ele>350</ele>
        <time>2018-10-20T21:09:33Z</time>
      </trkpt>
      <trkpt lat="45.36079" lon="5.61884">
        <ele>347</ele>
        <time>2018-10-20T21:09:47Z</time>
      </trkpt>
      <trkpt lat="45.36002" lon="5.61904">
        <ele>344</ele>
        <time>2018-10-20T21:09:59Z</time>
      </trkpt>
      <trkpt lat="45.35916" lon="5.61924">
        <ele>341</ele>
        <time>2018-10-20T21:10:13Z</time>
      </trkpt>
      <trkpt lat="45.3583" lon="5.61951">
        <ele>338</ele>
        <time>2018-10-20T21:10:26Z</time>
      </trkpt>
      <trkpt lat="45.35818" lon="5.61956">
        <ele>337</ele>
        <time>2018-10-20T21:10:28Z</time>
      </trkpt>
      <trkpt lat="45.35796" lon="5.61965">
        <ele>336</ele>
        <time>2018-10-20T21:10:32Z</time>
      </trkpt>
      <trkpt lat="45.35767" lon="5.61957">
        <ele>336</ele>
        <time>2018-10-20T21:10:37Z</time>
      </trkpt>
      <trkpt lat="45.35736" lon="5.61933">
        <ele>335</ele>
        <time>2018-10-20T21:10:43Z</time>
      </trkpt>
      <trkpt lat="45.35723" lon="5.61909">
        <ele>335</ele>
        <time>2018-10-20T21:10:48Z</time>
      </trkpt>
      <trkpt lat="45.35706" lon="5.61858">
        <ele>326.057495</ele>
        <time>2018-10-20T21:11:45Z</time>
      </trkpt>
      <trkpt lat="45.35741" lon="5.61796">
        <ele>321.309174</ele>
      </trkpt>
      <trkpt lat="45.35763" lon="5.61667">
        <ele>320.071259</ele>
      </trkpt>
      <trkpt lat="45.3572" lon="5.6161">
        <ele>318.683075</ele>
      </trkpt>
      <trkpt lat="45.35629" lon="5.61566">
        <ele>321.09613</ele>
      </trkpt>
      <trkpt lat="45.35572" lon="5.61502">
        <ele>318.761383</ele>
      </trkpt>
      <trkpt lat="45.35514" lon="5.61476">
        <ele>317.669128</ele>
      </trkpt>
      <trkpt lat="45.35487" lon="5.61392">
        <ele>307.776184</ele>
        <time>2018-10-20T21:13:01Z</time>
      </trkpt>
      <trkpt lat="45.35495" lon="5.61334">
        <ele>317</ele>
        <time>2018-10-20T21:13:06Z</time>
      </trkpt>
      <trkpt lat="45.35496" lon="5.61325">
        <ele>317</ele>
        <time>2018-10-20T21:13:07Z</time>
      </trkpt>
      <trkpt lat="45.35496" lon="5.61317">
        <ele>316</ele>
        <time>2018-10-20T21:13:08Z</time>
      </trkpt>
      <trkpt lat="45.35493" lon="5.6131">
        <ele>316</ele>
        <time>2018-10-20T21:13:09Z</time>
      </trkpt>
      <trkpt lat="45.35489" lon="5.61305">
        <ele>315</ele>
        <time>2018-10-20T21:13:10Z</time>
      </trkpt>
      <trkpt lat="45.35485" lon="5.613">
        <ele>315</ele>
        <time>2018-10-20T21:13:11Z</time>
      </trkpt>
      <trkpt lat="45.3548" lon="5.61296">
        <ele>315</ele>
        <time>2018-10-20T21:13:12Z</time>
      </trkpt>
      <trkpt lat="45.35475" lon="5.61292">
        <ele>315</ele>
        <time>2018-10-20T21:13:13Z</time>
      </trkpt>
      <trkpt lat="45.35437" lon="5.61257">
        <ele>315</ele>
        <time>2018-10-20T21:13:21Z</time>
      </trkpt>
      <trkpt lat="45.35433" lon="5.61251">
        <ele>314</ele>
        <time>2018-10-20T21:13:22Z</time>
      </trkpt>
      <trkpt lat="45.3543" lon="5.61245">
        <ele>314</ele>
        <time>2018-10-20T21:13:23Z</time>
      </trkpt>
      <trkpt lat="45.35399" lon="5.61155">
        <ele>313</ele>
        <time>2018-10-20T21:13:35Z</time>
      </trkpt>
      <trkpt lat="45.35342" lon="5.61193">
        <ele>313</ele>
        <time>2018-10-20T21:13:55Z</time>
      </trkpt>
      <trkpt lat="45.35343" lon="5.61198">
        <ele>313</ele>
        <time>2018-10-20T21:13:56Z</time>
      </trkpt>
      <trkpt lat="45.35351" lon="5.61214">
        <ele>314</ele>
        <time>2018-10-20T21:14:00Z</time>
      </trkpt>
      <trkpt lat="45.35344" lon="5.61203">
        <ele>314</ele>
        <time>2018-10-20T21:14:07Z</time>
      </trkpt>
    </trkseg>
  </trk>
</gpx>